ftp/pub/palmer/observations_modified/2019/November/AR191111_AWS3.txt

Download

Sample DateTime	Unit Id	WS Avg 2min	WD Avg 2min	WGS 10min	WGD 10min	Air Temp	Rel Humidity	Dew Point	Pyranometer	Quantum	Air Pressure	Snow Level	Rainfall	PW Current	Visibility	CBase 1	CBase 2	CBase 3	Vert Vis
2019/11/11 00:00:00	AWS3	3.70	313	5.04	309	-1.2	100	-1.2	NA	NA	987.7	NA	NA		M	NA	NA	NA	NA
2019/11/11 00:01:00	AWS3	3.55	314	5.04	309	-1.2	100	-1.2	NA	NA	987.7	NA	NA		M	NA	NA	NA	NA
2019/11/11 00:02:00	AWS3	3.43	315	5.04	309	-1.2	100	-1.2	NA	NA	987.5	NA	NA		M	NA	NA	NA	NA
2019/11/11 00:03:00	AWS3	3.45	315	5.04	309	-1.2	100	-1.2	NA	NA	987.7	NA	NA		M	NA	NA	NA	NA
2019/11/11 00:04:00	AWS3	3.14	316	4.78	315	-1.2	100	-1.2	NA	NA	987.7	NA	NA		M	NA	NA	NA	NA
2019/11/11 00:05:00	AWS3	3.09	317	4.42	313	-1.2	100	-1.2	NA	NA	987.7	NA	NA		M	NA	NA	NA	NA
2019/11/11 00:06:00	AWS3	3.40	319	4.42	313	-1.2	100	-1.2	NA	NA	987.6	NA	NA		M	NA	NA	NA	NA
2019/11/11 00:07:00	AWS3	3.12	318	4.42	313	-1.2	100	-1.2	NA	NA	987.5	NA	NA		M	NA	NA	NA	NA
2019/11/11 00:08:00	AWS3	2.91	317	4.42	313	-1.2	100	-1.2	NA	NA	987.5	NA	NA		M	NA	NA	NA	NA
2019/11/11 00:09:00	AWS3	3.09	319	4.22	316	-1.2	100	-1.2	NA	NA	987.5	NA	NA		M	NA	NA	NA	NA
2019/11/11 00:10:00	AWS3	3.20	321	4.22	316	-1.2	100	-1.2	NA	NA	987.6	NA	NA		M	NA	NA	NA	NA
2019/11/11 00:11:00	AWS3	3.27	323	4.22	316	-1.2	100	-1.2	NA	NA	987.5	NA	NA		M	NA	NA	NA	NA
2019/11/11 00:12:00	AWS3	3.40	323	4.22	316	-1.2	100	-1.2	NA	NA	987.5	NA	NA		M	NA	NA	NA	NA
2019/11/11 00:13:00	AWS3	3.32	321	4.22	316	-1.2	100	-1.2	NA	NA	987.5	NA	NA		M	NA	NA	NA	NA
2019/11/11 00:14:00	AWS3	3.10	321	4.22	316	-1.2	100	-1.2	NA	NA	987.7	NA	NA		M	NA	NA	NA	NA
2019/11/11 00:15:00	AWS3	3.13	323	3.91	316	-1.2	100	-1.2	NA	NA	987.6	NA	NA		M	NA	NA	NA	NA
2019/11/11 00:16:00	AWS3	3.14	322	3.91	316	-1.2	100	-1.2	NA	NA	987.5	NA	NA		M	NA	NA	NA	NA
2019/11/11 00:17:00	AWS3	3.04	324	3.91	316	-1.2	100	-1.2	NA	NA	987.5	NA	NA		M	NA	NA	NA	NA
2019/11/11 00:18:00	AWS3	2.86	325	3.91	316	-1.2	100	-1.2	NA	NA	987.4	NA	NA		M	NA	NA	NA	NA
2019/11/11 00:19:00	AWS3	2.79	325	3.91	316	-1.2	100	-1.2	NA	NA	987.3	NA	NA		M	NA	NA	NA	NA
2019/11/11 00:20:00	AWS3	2.92	327	3.91	316	-1.2	100	-1.2	NA	NA	987.4	NA	NA		M	NA	NA	NA	NA
2019/11/11 00:21:00	AWS3	2.98	325	3.91	316	-1.2	100	-1.2	NA	NA	987.4	NA	NA		M	NA	NA	NA	NA
2019/11/11 00:22:00	AWS3	3.21	325	3.76	322	-1.2	100	-1.2	NA	NA	987.3	NA	NA		M	NA	NA	NA	NA
2019/11/11 00:23:00	AWS3	3.19	327	3.76	322	-1.2	100	-1.2	NA	NA	987.4	NA	NA		M	NA	NA	NA	NA
2019/11/11 00:24:00	AWS3	2.92	328	3.76	322	-1.2	100	-1.2	NA	NA	987.3	NA	NA		M	NA	NA	NA	NA
2019/11/11 00:25:00	AWS3	2.86	328	3.76	322	-1.2	100	-1.2	NA	NA	987.3	NA	NA		M	NA	NA	NA	NA
2019/11/11 00:26:00	AWS3	2.87	329	3.76	322	-1.2	100	-1.2	NA	NA	987.2	NA	NA		M	NA	NA	NA	NA
2019/11/11 00:27:00	AWS3	3.02	332	3.76	322	-1.2	100	-1.2	NA	NA	987.2	NA	NA		M	NA	NA	NA	NA
2019/11/11 00:28:00	AWS3	3.23	332	3.86	328	-1.2	100	-1.2	NA	NA	987.2	NA	NA		M	NA	NA	NA	NA
2019/11/11 00:29:00	AWS3	3.18	333	3.86	328	-1.2	100	-1.2	NA	NA	987.0	NA	NA		M	NA	NA	NA	NA
2019/11/11 00:30:00	AWS3	3.10	335	3.86	328	-1.2	100	-1.2	NA	NA	987.2	NA	NA		M	NA	NA	NA	NA
2019/11/11 00:31:00	AWS3	3.14	335	3.86	328	-1.2	100	-1.2	NA	NA	987.3	NA	NA		M	NA	NA	NA	NA
2019/11/11 00:32:00	AWS3	3.20	337	3.86	328	-1.2	100	-1.2	NA	NA	987.1	NA	NA		M	NA	NA	NA	NA
2019/11/11 00:33:00	AWS3	3.32	339	3.86	328	-1.2	100	-1.2	NA	NA	987.1	NA	NA		M	NA	NA	NA	NA
2019/11/11 00:34:00	AWS3	3.42	339	3.86	341	-1.2	100	-1.2	NA	NA	987.0	NA	NA		M	NA	NA	NA	NA
2019/11/11 00:35:00	AWS3	3.50	342	3.86	341	-1.2	100	-1.2	NA	NA	987.1	NA	NA		M	NA	NA	NA	NA
2019/11/11 00:36:00	AWS3	3.50	343	3.86	341	-1.2	100	-1.2	NA	NA	987.0	NA	NA		M	NA	NA	NA	NA
2019/11/11 00:37:00	AWS3	3.37	341	3.86	341	-1.2	100	-1.2	NA	NA	987.1	NA	NA		M	NA	NA	NA	NA
2019/11/11 00:38:00	AWS3	3.46	342	3.86	341	-1.3	100	-1.3	NA	NA	987.1	NA	NA		M	NA	NA	NA	NA
2019/11/11 00:39:00	AWS3	3.58	343	4.17	339	-1.3	100	-1.3	NA	NA	987.1	NA	NA		M	NA	NA	NA	NA
2019/11/11 00:40:00	AWS3	3.63	343	4.17	339	-1.2	100	-1.2	NA	NA	987.0	NA	NA		M	NA	NA	NA	NA
2019/11/11 00:41:00	AWS3	3.41	346	4.17	339	-1.3	100	-1.3	NA	NA	987.1	NA	NA		M	NA	NA	NA	NA
2019/11/11 00:42:00	AWS3	2.93	347	4.17	339	-1.3	100	-1.3	NA	NA	986.9	NA	NA		M	NA	NA	NA	NA
2019/11/11 00:43:00	AWS3	2.90	348	4.17	339	-1.2	100	-1.2	NA	NA	987.1	NA	NA		M	NA	NA	NA	NA
2019/11/11 00:44:00	AWS3	3.06	350	4.17	339	-1.2	100	-1.2	NA	NA	987.0	NA	NA		M	NA	NA	NA	NA
2019/11/11 00:45:00	AWS3	3.14	348	4.17	339	-1.2	100	-1.2	NA	NA	987.1	NA	NA		M	NA	NA	NA	NA
2019/11/11 00:46:00	AWS3	3.09	346	4.17	339	-1.2	100	-1.2	NA	NA	987.1	NA	NA		M	NA	NA	NA	NA
2019/11/11 00:47:00	AWS3	3.15	347	4.17	339	-1.2	100	-1.2	NA	NA	986.9	NA	NA		M	NA	NA	NA	NA
2019/11/11 00:48:00	AWS3	3.07	348	4.17	339	-1.2	100	-1.2	NA	NA	987.2	NA	NA		M	NA	NA	NA	NA
2019/11/11 00:49:00	AWS3	2.90	353	4.01	345	-1.2	100	-1.2	NA	NA	987.1	NA	NA		M	NA	NA	NA	NA
2019/11/11 00:50:00	AWS3	3.06	353	4.01	350	-1.2	100	-1.2	NA	NA	986.9	NA	NA		M	NA	NA	NA	NA
2019/11/11 00:51:00	AWS3	3.18	347	4.01	350	-1.2	100	-1.2	NA	NA	987.1	NA	NA		M	NA	NA	NA	NA
2019/11/11 00:52:00	AWS3	3.28	347	4.01	350	-1.2	100	-1.2	NA	NA	987.0	NA	NA		M	NA	NA	NA	NA
2019/11/11 00:53:00	AWS3	3.25	349	4.01	350	-1.2	100	-1.2	NA	NA	987.1	NA	NA		M	NA	NA	NA	NA
2019/11/11 00:54:00	AWS3	3.22	348	4.01	350	-1.2	100	-1.2	NA	NA	987.0	NA	NA		M	NA	NA	NA	NA
2019/11/11 00:55:00	AWS3	3.37	348	4.01	350	-1.2	100	-1.2	NA	NA	986.9	NA	NA		M	NA	NA	NA	NA
2019/11/11 00:56:00	AWS3	3.49	352	4.32	344	-1.2	100	-1.2	NA	NA	987.0	NA	NA		M	NA	NA	NA	NA
2019/11/11 00:57:00	AWS3	3.59	353	4.32	344	-1.2	100	-1.2	NA	NA	986.9	NA	NA		M	NA	NA	NA	NA
2019/11/11 00:58:00	AWS3	3.54	352	4.32	344	-1.2	100	-1.2	NA	NA	987.0	NA	NA		M	NA	NA	NA	NA
2019/11/11 00:59:00	AWS3	3.34	354	4.32	344	-1.2	100	-1.2	NA	NA	987.2	NA	NA		M	NA	NA	NA	NA
2019/11/11 01:00:00	AWS3	3.13	355	4.32	344	-1.2	100	-1.2	NA	NA	987.0	NA	NA		M	NA	NA	NA	NA
2019/11/11 01:01:00	AWS3	2.85	357	4.32	344	-1.2	100	-1.2	NA	NA	987.0	NA	NA		M	NA	NA	NA	NA
2019/11/11 01:02:00	AWS3	3.10	359	4.37	348	-1.2	100	-1.2	NA	NA	987.0	NA	NA		M	NA	NA	NA	NA
2019/11/11 01:03:00	AWS3	3.27	1	4.37	353	-1.2	100	-1.2	NA	NA	986.9	NA	NA		M	NA	NA	NA	NA
2019/11/11 01:04:00	AWS3	3.16	359	4.37	353	-1.2	100	-1.2	NA	NA	986.9	NA	NA		M	NA	NA	NA	NA
2019/11/11 01:05:00	AWS3	3.30	3	4.37	353	-1.2	100	-1.2	NA	NA	986.9	NA	NA		M	NA	NA	NA	NA
2019/11/11 01:06:00	AWS3	3.62	9	4.63	360	-1.2	100	-1.2	NA	NA	986.9	NA	NA		M	NA	NA	NA	NA
2019/11/11 01:07:00	AWS3	3.60	5	4.63	360	-1.2	100	-1.2	NA	NA	986.8	NA	NA		M	NA	NA	NA	NA
2019/11/11 01:08:00	AWS3	3.17	5	4.63	360	-1.2	100	-1.2	NA	NA	986.7	NA	NA		M	NA	NA	NA	NA
2019/11/11 01:09:00	AWS3	3.26	6	4.63	360	-1.2	100	-1.2	NA	NA	986.9	NA	NA		M	NA	NA	NA	NA
2019/11/11 01:10:00	AWS3	3.43	3	4.63	360	-1.2	100	-1.2	NA	NA	986.8	NA	NA		M	NA	NA	NA	NA
2019/11/11 01:11:00	AWS3	3.47	4	4.94	354	-1.2	100	-1.2	NA	NA	986.8	NA	NA		M	NA	NA	NA	NA
2019/11/11 01:12:00	AWS3	3.56	6	4.94	354	-1.2	100	-1.2	NA	NA	986.8	NA	NA		M	NA	NA	NA	NA
2019/11/11 01:13:00	AWS3	3.63	7	4.94	354	-1.2	100	-1.2	NA	NA	986.7	NA	NA		M	NA	NA	NA	NA
2019/11/11 01:14:00	AWS3	3.80	7	4.94	354	-1.2	100	-1.2	NA	NA	986.8	NA	NA		M	NA	NA	NA	NA
2019/11/11 01:15:00	AWS3	3.96	6	5.14	3	-1.2	100	-1.2	NA	NA	986.7	NA	NA		M	NA	NA	NA	NA
2019/11/11 01:16:00	AWS3	4.04	10	5.14	16	-1.2	100	-1.2	NA	NA	986.7	NA	NA		M	NA	NA	NA	NA
2019/11/11 01:17:00	AWS3	3.87	7	5.14	16	-1.2	100	-1.2	NA	NA	986.8	NA	NA		M	NA	NA	NA	NA
2019/11/11 01:18:00	AWS3	3.71	3	5.14	16	-1.2	100	-1.2	NA	NA	986.7	NA	NA		M	NA	NA	NA	NA
2019/11/11 01:19:00	AWS3	3.77	7	5.14	16	-1.2	100	-1.2	NA	NA	986.7	NA	NA		M	NA	NA	NA	NA
2019/11/11 01:20:00	AWS3	3.55	6	5.14	16	-1.2	100	-1.2	NA	NA	986.8	NA	NA		M	NA	NA	NA	NA
2019/11/11 01:21:00	AWS3	3.29	4	5.14	16	-1.2	100	-1.2	NA	NA	986.7	NA	NA		M	NA	NA	NA	NA
2019/11/11 01:22:00	AWS3	3.75	8	5.25	5	-1.2	100	-1.2	NA	NA	986.6	NA	NA		M	NA	NA	NA	NA
2019/11/11 01:23:00	AWS3	3.96	8	5.25	5	-1.2	100	-1.2	NA	NA	986.6	NA	NA		M	NA	NA	NA	NA
2019/11/11 01:24:00	AWS3	3.72	7	5.25	5	-1.2	100	-1.2	NA	NA	986.6	NA	NA		M	NA	NA	NA	NA
2019/11/11 01:25:00	AWS3	3.84	6	5.25	5	-1.2	100	-1.2	NA	NA	986.6	NA	NA		M	NA	NA	NA	NA
2019/11/11 01:26:00	AWS3	3.94	6	5.25	5	-1.2	100	-1.2	NA	NA	986.6	NA	NA		M	NA	NA	NA	NA
2019/11/11 01:27:00	AWS3	3.91	6	5.25	5	-1.2	100	-1.2	NA	NA	986.5	NA	NA		M	NA	NA	NA	NA
2019/11/11 01:28:00	AWS3	4.02	7	5.25	5	-1.2	100	-1.2	NA	NA	986.5	NA	NA		M	NA	NA	NA	NA
2019/11/11 01:29:00	AWS3	4.03	8	5.25	5	-1.2	100	-1.2	NA	NA	986.6	NA	NA		M	NA	NA	NA	NA
2019/11/11 01:30:00	AWS3	3.82	8	5.25	5	-1.2	100	-1.2	NA	NA	986.6	NA	NA		M	NA	NA	NA	NA
2019/11/11 01:31:00	AWS3	3.94	8	5.25	5	-1.2	100	-1.2	NA	NA	986.6	NA	NA		M	NA	NA	NA	NA
2019/11/11 01:32:00	AWS3	4.04	8	5.09	3	-1.2	100	-1.2	NA	NA	986.6	NA	NA		M	NA	NA	NA	NA
2019/11/11 01:33:00	AWS3	4.15	8	5.09	11	-1.2	100	-1.2	NA	NA	986.5	NA	NA		M	NA	NA	NA	NA
2019/11/11 01:34:00	AWS3	4.43	10	5.20	2	-1.2	100	-1.2	NA	NA	986.6	NA	NA		M	NA	NA	NA	NA
2019/11/11 01:35:00	AWS3	4.54	9	5.20	2	-1.2	100	-1.2	NA	NA	986.5	NA	NA		M	NA	NA	NA	NA
2019/11/11 01:36:00	AWS3	4.36	11	5.20	2	-1.2	100	-1.2	NA	NA	986.5	NA	NA		M	NA	NA	NA	NA
2019/11/11 01:37:00	AWS3	4.01	15	5.25	16	-1.2	100	-1.2	NA	NA	986.5	NA	NA		M	NA	NA	NA	NA
2019/11/11 01:38:00	AWS3	3.91	8	5.25	16	-1.2	100	-1.2	NA	NA	986.5	NA	NA		M	NA	NA	NA	NA
2019/11/11 01:39:00	AWS3	3.86	5	5.25	16	-1.2	100	-1.2	NA	NA	986.4	NA	NA		M	NA	NA	NA	NA
2019/11/11 01:40:00	AWS3	4.18	5	5.25	16	-1.2	100	-1.2	NA	NA	986.5	NA	NA		M	NA	NA	NA	NA
2019/11/11 01:41:01	AWS3	4.39	6	5.25	16	-1.2	100	-1.2	NA	NA	986.4	NA	NA		M	NA	NA	NA	NA
2019/11/11 01:42:01	AWS3	4.17	11	5.25	10	-1.2	100	-1.2	NA	NA	986.4	NA	NA		M	NA	NA	NA	NA
2019/11/11 01:43:01	AWS3	4.11	12	5.25	10	-1.2	100	-1.2	NA	NA	986.4	NA	NA		M	NA	NA	NA	NA
2019/11/11 01:44:01	AWS3	4.36	13	5.66	360	-1.2	100	-1.2	NA	NA	986.4	NA	NA		M	NA	NA	NA	NA
2019/11/11 01:45:01	AWS3	4.53	10	5.66	360	-1.2	100	-1.2	NA	NA	986.4	NA	NA		M	NA	NA	NA	NA
2019/11/11 01:46:01	AWS3	4.24	5	5.66	360	-1.2	100	-1.2	NA	NA	986.4	NA	NA		M	NA	NA	NA	NA
2019/11/11 01:47:01	AWS3	4.19	2	5.66	360	-1.2	100	-1.2	NA	NA	986.3	NA	NA		M	NA	NA	NA	NA
2019/11/11 01:48:01	AWS3	4.26	358	5.66	360	-1.2	100	-1.2	NA	NA	986.3	NA	NA		M	NA	NA	NA	NA
2019/11/11 01:49:01	AWS3	4.21	1	5.66	360	-1.2	100	-1.2	NA	NA	986.3	NA	NA		M	NA	NA	NA	NA
2019/11/11 01:50:01	AWS3	4.06	3	5.66	360	-1.2	100	-1.2	NA	NA	986.4	NA	NA		M	NA	NA	NA	NA
2019/11/11 01:51:01	AWS3	3.86	2	5.66	360	-1.2	100	-1.2	NA	NA	986.3	NA	NA		M	NA	NA	NA	NA
2019/11/11 01:52:01	AWS3	3.66	11	5.66	360	-1.2	100	-1.2	NA	NA	986.3	NA	NA		M	NA	NA	NA	NA
2019/11/11 01:53:01	AWS3	3.62	13	5.66	360	-1.2	100	-1.2	NA	NA	986.4	NA	NA		M	NA	NA	NA	NA
2019/11/11 01:54:01	AWS3	3.85	4	5.45	5	-1.2	100	-1.2	NA	NA	986.4	NA	NA		M	NA	NA	NA	NA
2019/11/11 01:55:01	AWS3	3.94	0	5.45	5	-1.2	100	-1.2	NA	NA	986.3	NA	NA		M	NA	NA	NA	NA
2019/11/11 01:56:01	AWS3	3.93	358	5.45	5	-1.2	100	-1.2	NA	NA	986.3	NA	NA		M	NA	NA	NA	NA
2019/11/11 01:57:01	AWS3	3.77	3	5.45	5	-1.2	100	-1.2	NA	NA	986.3	NA	NA		M	NA	NA	NA	NA
2019/11/11 01:58:01	AWS3	4.00	12	5.45	5	-1.2	100	-1.2	NA	NA	986.2	NA	NA		M	NA	NA	NA	NA
2019/11/11 01:59:01	AWS3	4.45	13	5.56	14	-1.2	100	-1.2	NA	NA	986.2	NA	NA		M	NA	NA	NA	NA
2019/11/11 02:00:01	AWS3	4.16	5	5.56	14	-1.2	100	-1.2	NA	NA	986.2	NA	NA		M	NA	NA	NA	NA
2019/11/11 02:01:01	AWS3	4.08	2	5.56	14	-1.2	100	-1.2	NA	NA	986.1	NA	NA		M	NA	NA	NA	NA
2019/11/11 02:02:01	AWS3	4.29	8	5.56	14	-1.2	100	-1.2	NA	NA	986.3	NA	NA		M	NA	NA	NA	NA
2019/11/11 02:03:01	AWS3	4.41	9	5.56	14	-1.2	100	-1.2	NA	NA	986.2	NA	NA		M	NA	NA	NA	NA
2019/11/11 02:04:01	AWS3	4.59	9	5.56	14	-1.2	100	-1.2	NA	NA	986.2	NA	NA		M	NA	NA	NA	NA
2019/11/11 02:05:01	AWS3	4.31	9	5.56	14	-1.2	100	-1.2	NA	NA	986.2	NA	NA		M	NA	NA	NA	NA
2019/11/11 02:06:01	AWS3	4.06	11	5.56	14	-1.2	100	-1.2	NA	NA	986.2	NA	NA		M	NA	NA	NA	NA
2019/11/11 02:07:01	AWS3	4.29	9	5.56	1	-1.1	100	-1.1	NA	NA	986.2	NA	NA		M	NA	NA	NA	NA
2019/11/11 02:08:01	AWS3	4.75	10	5.92	19	-1.1	100	-1.1	NA	NA	986.1	NA	NA		M	NA	NA	NA	NA
2019/11/11 02:09:01	AWS3	5.01	13	5.92	19	-1.1	100	-1.1	NA	NA	986.1	NA	NA		M	NA	NA	NA	NA
2019/11/11 02:10:01	AWS3	4.87	9	5.92	19	-1.1	100	-1.1	NA	NA	986.1	NA	NA		M	NA	NA	NA	NA
2019/11/11 02:11:01	AWS3	5.00	9	6.12	3	-1.1	100	-1.1	NA	NA	986.0	NA	NA		M	NA	NA	NA	NA
2019/11/11 02:12:01	AWS3	5.02	10	6.12	3	-1.1	100	-1.1	NA	NA	986.0	NA	NA		M	NA	NA	NA	NA
2019/11/11 02:13:01	AWS3	4.99	10	6.12	3	-1.1	100	-1.1	NA	NA	986.0	NA	NA		M	NA	NA	NA	NA
2019/11/11 02:14:01	AWS3	5.06	8	6.12	3	-1.1	100	-1.1	NA	NA	986.0	NA	NA		M	NA	NA	NA	NA
2019/11/11 02:15:01	AWS3	5.48	6	6.58	9	-1.1	100	-1.1	NA	NA	985.9	NA	NA		M	NA	NA	NA	NA
2019/11/11 02:16:01	AWS3	5.74	6	6.58	9	-1.1	100	-1.1	NA	NA	985.9	NA	NA		M	NA	NA	NA	NA
2019/11/11 02:17:01	AWS3	5.08	8	6.58	9	-1.1	100	-1.1	NA	NA	986.0	NA	NA		M	NA	NA	NA	NA
2019/11/11 02:18:01	AWS3	4.50	11	6.58	9	-1.1	100	-1.1	NA	NA	985.9	NA	NA		M	NA	NA	NA	NA
2019/11/11 02:19:01	AWS3	4.39	8	6.58	9	-1.1	100	-1.1	NA	NA	985.9	NA	NA		M	NA	NA	NA	NA
2019/11/11 02:20:01	AWS3	4.82	10	6.58	9	-1.1	100	-1.1	NA	NA	985.9	NA	NA		M	NA	NA	NA	NA
2019/11/11 02:21:01	AWS3	5.17	11	6.58	9	-1.1	100	-1.1	NA	NA	985.9	NA	NA		M	NA	NA	NA	NA
2019/11/11 02:22:01	AWS3	5.42	10	6.58	9	-1.1	100	-1.1	NA	NA	985.8	NA	NA		M	NA	NA	NA	NA
2019/11/11 02:23:01	AWS3	5.43	10	6.58	9	-1.1	100	-1.1	NA	NA	985.8	NA	NA		M	NA	NA	NA	NA
2019/11/11 02:24:01	AWS3	5.56	11	6.74	12	-1.1	100	-1.1	NA	NA	985.8	NA	NA		M	NA	NA	NA	NA
2019/11/11 02:25:01	AWS3	5.83	14	7.00	21	-1.1	100	-1.1	NA	NA	985.8	NA	NA		M	NA	NA	NA	NA
2019/11/11 02:26:01	AWS3	5.29	11	7.00	21	-1.1	100	-1.1	NA	NA	985.7	NA	NA		M	NA	NA	NA	NA
2019/11/11 02:27:01	AWS3	4.99	9	7.00	21	-1.1	100	-1.1	NA	NA	985.8	NA	NA		M	NA	NA	NA	NA
2019/11/11 02:28:01	AWS3	5.22	10	7.00	21	-1.1	100	-1.1	NA	NA	985.7	NA	NA		M	NA	NA	NA	NA
2019/11/11 02:29:01	AWS3	4.98	12	7.00	21	-1.1	100	-1.1	NA	NA	985.8	NA	NA		M	NA	NA	NA	NA
2019/11/11 02:30:01	AWS3	4.71	14	7.00	21	-1.1	100	-1.1	NA	NA	985.8	NA	NA		M	NA	NA	NA	NA
2019/11/11 02:31:01	AWS3	5.21	12	7.00	21	-1.1	100	-1.1	NA	NA	985.5	NA	NA		M	NA	NA	NA	NA
2019/11/11 02:32:01	AWS3	4.96	12	7.00	21	-1.1	100	-1.1	NA	NA	985.8	NA	NA		M	NA	NA	NA	NA
2019/11/11 02:33:01	AWS3	4.55	7	7.00	21	-1.1	100	-1.1	NA	NA	985.6	NA	NA		M	NA	NA	NA	NA
2019/11/11 02:34:01	AWS3	4.83	8	7.00	21	-1.1	100	-1.1	NA	NA	985.6	NA	NA		M	NA	NA	NA	NA
2019/11/11 02:35:01	AWS3	5.09	13	6.58	351	-1.1	100	-1.1	NA	NA	985.6	NA	NA		M	NA	NA	NA	NA
2019/11/11 02:36:01	AWS3	5.41	13	6.58	351	-1.1	100	-1.1	NA	NA	985.6	NA	NA		M	NA	NA	NA	NA
2019/11/11 02:37:01	AWS3	5.35	13	6.58	351	-1.1	100	-1.1	NA	NA	985.6	NA	NA		M	NA	NA	NA	NA
2019/11/11 02:38:01	AWS3	5.28	12	6.58	351	-1.1	100	-1.1	NA	NA	985.4	NA	NA		M	NA	NA	NA	NA
2019/11/11 02:39:01	AWS3	5.17	13	6.58	351	-1.1	100	-1.1	NA	NA	985.5	NA	NA		M	NA	NA	NA	NA
2019/11/11 02:40:01	AWS3	4.90	13	6.58	351	-1.1	100	-1.1	NA	NA	985.6	NA	NA		M	NA	NA	NA	NA
2019/11/11 02:41:01	AWS3	5.05	13	6.58	351	-1.1	100	-1.1	NA	NA	985.3	NA	NA		M	NA	NA	NA	NA
2019/11/11 02:42:01	AWS3	5.50	13	6.58	351	-1.1	100	-1.1	NA	NA	985.4	NA	NA		M	NA	NA	NA	NA
2019/11/11 02:43:01	AWS3	5.51	12	6.38	10	-1.1	100	-1.1	NA	NA	985.4	NA	NA		M	NA	NA	NA	NA
2019/11/11 02:44:01	AWS3	5.31	11	6.38	10	-1.1	100	-1.1	NA	NA	985.4	NA	NA		M	NA	NA	NA	NA
2019/11/11 02:45:01	AWS3	5.09	15	6.38	9	-1.1	100	-1.1	NA	NA	985.3	NA	NA		M	NA	NA	NA	NA
2019/11/11 02:46:01	AWS3	5.27	16	6.64	15	-1.1	100	-1.1	NA	NA	985.3	NA	NA		M	NA	NA	NA	NA
2019/11/11 02:47:01	AWS3	5.40	13	6.64	15	-1.1	100	-1.1	NA	NA	985.3	NA	NA		M	NA	NA	NA	NA
2019/11/11 02:48:01	AWS3	5.31	9	6.74	2	-1.1	100	-1.1	NA	NA	985.2	NA	NA		M	NA	NA	NA	NA
2019/11/11 02:49:01	AWS3	5.46	10	6.74	2	-1.1	100	-1.1	NA	NA	985.4	NA	NA		M	NA	NA	NA	NA
2019/11/11 02:50:01	AWS3	5.67	12	6.74	2	-1.1	100	-1.1	NA	NA	985.2	NA	NA		M	NA	NA	NA	NA
2019/11/11 02:51:01	AWS3	5.63	11	6.74	2	-1.1	100	-1.1	NA	NA	985.2	NA	NA		M	NA	NA	NA	NA
2019/11/11 02:52:01	AWS3	5.52	11	6.74	2	-1.1	100	-1.1	NA	NA	985.2	NA	NA		M	NA	NA	NA	NA
2019/11/11 02:53:01	AWS3	5.58	14	6.74	2	-1.1	100	-1.1	NA	NA	985.1	NA	NA		M	NA	NA	NA	NA
2019/11/11 02:54:01	AWS3	5.40	15	6.74	2	-1.1	100	-1.1	NA	NA	985.2	NA	NA		M	NA	NA	NA	NA
2019/11/11 02:55:01	AWS3	5.22	16	6.74	2	-1.1	100	-1.1	NA	NA	985.2	NA	NA		M	NA	NA	NA	NA
2019/11/11 02:56:01	AWS3	5.31	18	6.74	2	-1.1	100	-1.1	NA	NA	985.1	NA	NA		M	NA	NA	NA	NA
2019/11/11 02:57:01	AWS3	5.54	16	6.74	2	-1.0	100	-1.0	NA	NA	985.1	NA	NA		M	NA	NA	NA	NA
2019/11/11 02:58:01	AWS3	5.75	11	6.64	15	-1.0	100	-1.0	NA	NA	985.1	NA	NA		M	NA	NA	NA	NA
2019/11/11 02:59:00	AWS3	5.43	10	6.48	3	-1.0	100	-1.0	NA	NA	985.1	NA	NA		M	NA	NA	NA	NA
2019/11/11 03:00:00	AWS3	5.25	14	6.48	3	-1.0	100	-1.0	NA	NA	985.1	NA	NA		M	NA	NA	NA	NA
2019/11/11 03:01:00	AWS3	5.65	14	6.69	16	-1.0	100	-1.0	NA	NA	985.0	NA	NA		M	NA	NA	NA	NA
2019/11/11 03:02:00	AWS3	5.77	11	6.69	16	-1.0	100	-1.0	NA	NA	984.9	NA	NA		M	NA	NA	NA	NA
2019/11/11 03:03:00	AWS3	5.80	12	6.74	9	-1.0	100	-1.0	NA	NA	985.1	NA	NA		M	NA	NA	NA	NA
2019/11/11 03:04:00	AWS3	5.93	12	6.79	9	-1.0	100	-1.0	NA	NA	985.0	NA	NA		M	NA	NA	NA	NA
2019/11/11 03:05:00	AWS3	5.68	12	6.79	9	-1.0	100	-1.0	NA	NA	984.8	NA	NA		M	NA	NA	NA	NA
2019/11/11 03:06:00	AWS3	5.14	11	6.79	9	-1.0	100	-1.0	NA	NA	985.1	NA	NA		M	NA	NA	NA	NA
2019/11/11 03:07:00	AWS3	5.42	12	7.25	3	-1.0	100	-1.0	NA	NA	985.0	NA	NA		M	NA	NA	NA	NA
2019/11/11 03:08:00	AWS3	5.73	13	7.25	3	-1.0	100	-1.0	NA	NA	984.8	NA	NA		M	NA	NA	NA	NA
2019/11/11 03:09:00	AWS3	5.34	11	7.25	3	-1.0	100	-1.0	NA	NA	984.8	NA	NA		M	NA	NA	NA	NA
2019/11/11 03:10:00	AWS3	5.39	11	7.25	3	-1.0	100	-1.0	NA	NA	984.9	NA	NA		M	NA	NA	NA	NA
2019/11/11 03:11:00	AWS3	5.67	15	7.25	3	-1.0	100	-1.0	NA	NA	985.0	NA	NA		M	NA	NA	NA	NA
2019/11/11 03:12:00	AWS3	5.63	16	7.25	3	-1.0	100	-1.0	NA	NA	985.0	NA	NA		M	NA	NA	NA	NA
2019/11/11 03:13:00	AWS3	5.62	16	7.25	3	-1.0	100	-1.0	NA	NA	984.9	NA	NA		M	NA	NA	NA	NA
2019/11/11 03:14:00	AWS3	5.42	12	7.25	3	-1.0	100	-1.0	NA	NA	985.0	NA	NA		M	NA	NA	NA	NA
2019/11/11 03:15:00	AWS3	5.34	13	7.25	3	-1.0	100	-1.0	NA	NA	984.9	NA	NA		M	NA	NA	NA	NA
2019/11/11 03:16:00	AWS3	5.60	18	7.25	3	-1.0	100	-1.0	NA	NA	984.9	NA	NA		M	NA	NA	NA	NA
2019/11/11 03:17:00	AWS3	5.64	14	6.53	12	-1.0	100	-1.0	NA	NA	984.9	NA	NA		M	NA	NA	NA	NA
2019/11/11 03:18:00	AWS3	5.25	10	6.53	12	-1.0	100	-1.0	NA	NA	984.9	NA	NA		M	NA	NA	NA	NA
2019/11/11 03:19:00	AWS3	5.12	14	6.53	12	-1.0	100	-1.0	NA	NA	984.9	NA	NA		M	NA	NA	NA	NA
2019/11/11 03:20:00	AWS3	5.36	14	6.53	12	-1.0	100	-1.0	NA	NA	984.8	NA	NA		M	NA	NA	NA	NA
2019/11/11 03:21:00	AWS3	5.23	13	6.53	12	-1.0	100	-1.0	NA	NA	984.9	NA	NA		M	NA	NA	NA	NA
2019/11/11 03:22:00	AWS3	5.54	16	6.69	19	-1.0	100	-1.0	NA	NA	984.8	NA	NA		M	NA	NA	NA	NA
2019/11/11 03:23:00	AWS3	5.90	15	6.69	19	-1.0	100	-1.0	NA	NA	984.8	NA	NA		M	NA	NA	NA	NA
2019/11/11 03:24:00	AWS3	5.53	14	6.69	19	-1.0	100	-1.0	NA	NA	984.9	NA	NA		M	NA	NA	NA	NA
2019/11/11 03:25:00	AWS3	5.46	12	7.00	10	-1.0	100	-1.0	NA	NA	984.9	NA	NA		M	NA	NA	NA	NA
2019/11/11 03:26:00	AWS3	5.61	12	7.00	10	-1.0	100	-1.0	NA	NA	984.8	NA	NA		M	NA	NA	NA	NA
2019/11/11 03:27:00	AWS3	5.61	15	7.00	7	-1.0	100	-1.0	NA	NA	984.8	NA	NA		M	NA	NA	NA	NA
2019/11/11 03:28:00	AWS3	5.69	16	7.00	7	-1.0	100	-1.0	NA	NA	984.8	NA	NA		M	NA	NA	NA	NA
2019/11/11 03:29:00	AWS3	5.80	16	7.00	7	-1.0	100	-1.0	NA	NA	984.8	NA	NA		M	NA	NA	NA	NA
2019/11/11 03:30:00	AWS3	5.62	18	7.00	7	-1.0	100	-1.0	NA	NA	984.8	NA	NA		M	NA	NA	NA	NA
2019/11/11 03:31:00	AWS3	5.57	17	7.00	7	-1.0	100	-1.0	NA	NA	984.7	NA	NA		M	NA	NA	NA	NA
2019/11/11 03:32:00	AWS3	5.61	16	7.00	7	-1.0	100	-1.0	NA	NA	984.7	NA	NA		M	NA	NA	NA	NA
2019/11/11 03:33:00	AWS3	5.52	16	7.00	7	-1.0	100	-1.0	NA	NA	984.7	NA	NA		M	NA	NA	NA	NA
2019/11/11 03:34:00	AWS3	5.67	15	7.00	7	-1.0	100	-1.0	NA	NA	984.8	NA	NA		M	NA	NA	NA	NA
2019/11/11 03:35:00	AWS3	5.46	16	7.00	7	-1.0	100	-1.0	NA	NA	984.6	NA	NA		M	NA	NA	NA	NA
2019/11/11 03:36:00	AWS3	5.35	16	7.00	7	-1.0	100	-1.0	NA	NA	984.7	NA	NA		M	NA	NA	NA	NA
2019/11/11 03:37:00	AWS3	5.53	14	6.79	19	-1.0	100	-1.0	NA	NA	984.5	NA	NA		M	NA	NA	NA	NA
2019/11/11 03:38:00	AWS3	5.73	17	6.79	19	-1.0	100	-1.0	NA	NA	984.6	NA	NA		M	NA	NA	NA	NA
2019/11/11 03:39:00	AWS3	6.08	14	7.61	8	-1.0	100	-1.0	NA	NA	984.6	NA	NA		M	NA	NA	NA	NA
2019/11/11 03:40:00	AWS3	6.18	11	7.61	8	-1.0	100	-1.0	NA	NA	984.6	NA	NA		M	NA	NA	NA	NA
2019/11/11 03:41:00	AWS3	6.15	14	7.61	8	-1.0	100	-1.0	NA	NA	984.4	NA	NA		M	NA	NA	NA	NA
2019/11/11 03:42:00	AWS3	6.42	15	7.61	8	-1.0	100	-1.0	NA	NA	984.5	NA	NA		M	NA	NA	NA	NA
2019/11/11 03:43:00	AWS3	6.00	15	7.61	8	-1.0	100	-1.0	NA	NA	984.6	NA	NA		M	NA	NA	NA	NA
2019/11/11 03:44:00	AWS3	5.71	15	7.61	8	-1.0	100	-1.0	NA	NA	984.5	NA	NA		M	NA	NA	NA	NA
2019/11/11 03:45:00	AWS3	6.24	17	7.61	8	-1.0	100	-1.0	NA	NA	984.4	NA	NA		M	NA	NA	NA	NA
2019/11/11 03:46:00	AWS3	6.85	21	7.97	30	-1.0	100	-1.0	NA	NA	984.3	NA	NA		M	NA	NA	NA	NA
2019/11/11 03:47:00	AWS3	6.96	20	7.97	30	-1.0	100	-1.0	NA	NA	984.4	NA	NA		M	NA	NA	NA	NA
2019/11/11 03:48:00	AWS3	6.57	18	7.97	30	-1.0	100	-1.0	NA	NA	984.4	NA	NA		M	NA	NA	NA	NA
2019/11/11 03:49:00	AWS3	6.40	16	7.97	30	-1.0	100	-1.0	NA	NA	984.4	NA	NA		M	NA	NA	NA	NA
2019/11/11 03:50:00	AWS3	6.22	15	7.97	30	-1.0	100	-1.0	NA	NA	984.3	NA	NA		M	NA	NA	NA	NA
2019/11/11 03:51:00	AWS3	5.91	17	7.97	30	-1.0	100	-1.0	NA	NA	984.4	NA	NA		M	NA	NA	NA	NA
2019/11/11 03:52:00	AWS3	5.86	15	7.97	30	-1.1	100	-1.1	NA	NA	984.3	NA	NA		M	NA	NA	NA	NA
2019/11/11 03:53:00	AWS3	5.89	14	7.97	30	-1.1	100	-1.1	NA	NA	984.4	NA	NA		M	NA	NA	NA	NA
2019/11/11 03:54:00	AWS3	5.87	17	7.97	30	-1.1	100	-1.1	NA	NA	984.4	NA	NA		M	NA	NA	NA	NA
2019/11/11 03:55:00	AWS3	6.13	17	7.97	30	-1.1	100	-1.1	NA	NA	984.4	NA	NA		M	NA	NA	NA	NA
2019/11/11 03:56:00	AWS3	6.36	16	7.61	12	-1.1	100	-1.1	NA	NA	984.3	NA	NA		M	NA	NA	NA	NA
2019/11/11 03:57:00	AWS3	6.15	17	7.41	13	-1.1	100	-1.1	NA	NA	984.3	NA	NA		M	NA	NA	NA	NA
2019/11/11 03:58:00	AWS3	5.91	18	7.41	13	-1.1	100	-1.1	NA	NA	984.4	NA	NA		M	NA	NA	NA	NA
2019/11/11 03:59:00	AWS3	6.34	19	7.41	13	-1.1	100	-1.1	NA	NA	984.2	NA	NA		M	NA	NA	NA	NA
2019/11/11 04:00:00	AWS3	6.50	18	7.46	17	-1.1	100	-1.1	NA	NA	984.3	NA	NA		M	NA	NA	NA	NA
2019/11/11 04:01:00	AWS3	6.21	17	7.46	17	-1.0	100	-1.0	NA	NA	984.3	NA	NA		M	NA	NA	NA	NA
2019/11/11 04:02:00	AWS3	6.17	20	7.46	17	-1.0	100	-1.0	NA	NA	984.2	NA	NA		M	NA	NA	NA	NA
2019/11/11 04:03:00	AWS3	6.41	20	8.39	10	-1.0	100	-1.0	NA	NA	984.2	NA	NA		M	NA	NA	NA	NA
2019/11/11 04:04:00	AWS3	6.65	18	8.39	10	-1.0	100	-1.0	NA	NA	984.1	NA	NA		M	NA	NA	NA	NA
2019/11/11 04:05:00	AWS3	6.44	19	8.39	10	-1.0	100	-1.0	NA	NA	984.2	NA	NA		M	NA	NA	NA	NA
2019/11/11 04:06:00	AWS3	5.99	17	8.39	10	-1.0	100	-1.0	NA	NA	984.3	NA	NA		M	NA	NA	NA	NA
2019/11/11 04:07:00	AWS3	6.10	16	8.39	10	-1.1	100	-1.1	NA	NA	984.2	NA	NA		M	NA	NA	NA	NA
2019/11/11 04:08:00	AWS3	6.57	20	8.39	10	-1.1	100	-1.1	NA	NA	984.1	NA	NA		M	NA	NA	NA	NA
2019/11/11 04:09:00	AWS3	6.33	19	8.39	10	-1.0	100	-1.0	NA	NA	984.1	NA	NA		M	NA	NA	NA	NA
2019/11/11 04:10:00	AWS3	5.84	15	8.39	10	-1.0	100	-1.0	NA	NA	984.2	NA	NA		M	NA	NA	NA	NA
2019/11/11 04:11:00	AWS3	5.93	15	8.39	10	-1.0	100	-1.0	NA	NA	984.1	NA	NA		M	NA	NA	NA	NA
2019/11/11 04:12:00	AWS3	6.03	16	8.39	10	-1.0	100	-1.0	NA	NA	984.0	NA	NA		M	NA	NA	NA	NA
2019/11/11 04:13:00	AWS3	6.02	17	7.92	19	-1.0	100	-1.0	NA	NA	984.0	NA	NA		M	NA	NA	NA	NA
2019/11/11 04:14:00	AWS3	6.07	16	7.36	23	-1.0	100	-1.0	NA	NA	983.9	NA	NA		M	NA	NA	NA	NA
2019/11/11 04:15:00	AWS3	6.07	15	7.36	23	-1.0	100	-1.0	NA	NA	984.1	NA	NA		M	NA	NA	NA	NA
2019/11/11 04:16:00	AWS3	6.07	18	7.36	23	-1.0	100	-1.0	NA	NA	984.0	NA	NA		M	NA	NA	NA	NA
2019/11/11 04:17:00	AWS3	6.25	21	7.36	23	-1.0	100	-1.0	NA	NA	984.0	NA	NA		M	NA	NA	NA	NA
2019/11/11 04:18:00	AWS3	6.35	19	7.05	9	-1.0	100	-1.0	NA	NA	983.8	NA	NA		M	NA	NA	NA	NA
2019/11/11 04:19:00	AWS3	6.38	16	7.41	12	-1.0	100	-1.0	NA	NA	984.0	NA	NA		M	NA	NA	NA	NA
2019/11/11 04:20:00	AWS3	6.19	17	7.41	12	-1.0	100	-1.0	NA	NA	983.9	NA	NA		M	NA	NA	NA	NA
2019/11/11 04:21:00	AWS3	5.89	17	7.41	12	-1.0	100	-1.0	NA	NA	984.0	NA	NA		M	NA	NA	NA	NA
2019/11/11 04:22:00	AWS3	5.77	14	7.41	12	-1.0	100	-1.0	NA	NA	983.7	NA	NA		M	NA	NA	NA	NA
2019/11/11 04:23:00	AWS3	5.65	15	7.41	12	-1.0	100	-1.0	NA	NA	983.9	NA	NA		M	NA	NA	NA	NA
2019/11/11 04:24:00	AWS3	5.52	13	7.41	12	-1.0	100	-1.0	NA	NA	983.9	NA	NA		M	NA	NA	NA	NA
2019/11/11 04:25:00	AWS3	5.63	13	7.41	12	-1.0	100	-1.0	NA	NA	983.8	NA	NA		M	NA	NA	NA	NA
2019/11/11 04:26:00	AWS3	5.79	15	7.41	12	-1.0	100	-1.0	NA	NA	983.9	NA	NA		M	NA	NA	NA	NA
2019/11/11 04:27:00	AWS3	5.77	15	7.41	12	-1.0	100	-1.0	NA	NA	983.8	NA	NA		M	NA	NA	NA	NA
2019/11/11 04:28:00	AWS3	6.35	18	7.72	24	-1.0	100	-1.0	NA	NA	983.7	NA	NA		M	NA	NA	NA	NA
2019/11/11 04:29:00	AWS3	6.69	20	7.72	24	-1.0	100	-1.0	NA	NA	983.6	NA	NA		M	NA	NA	NA	NA
2019/11/11 04:30:00	AWS3	6.17	17	7.72	24	-1.0	100	-1.0	NA	NA	983.8	NA	NA		M	NA	NA	NA	NA
2019/11/11 04:31:00	AWS3	5.79	18	7.72	24	-1.0	100	-1.0	NA	NA	983.8	NA	NA		M	NA	NA	NA	NA
2019/11/11 04:32:00	AWS3	6.07	19	7.72	22	-1.0	100	-1.0	NA	NA	983.7	NA	NA		M	NA	NA	NA	NA
2019/11/11 04:33:00	AWS3	6.35	18	7.72	22	-1.0	100	-1.0	NA	NA	983.7	NA	NA		M	NA	NA	NA	NA
2019/11/11 04:34:00	AWS3	5.94	19	7.72	22	-1.0	100	-1.0	NA	NA	983.8	NA	NA		M	NA	NA	NA	NA
2019/11/11 04:35:00	AWS3	5.83	20	7.72	22	-1.0	100	-1.0	NA	NA	983.8	NA	NA		M	NA	NA	NA	NA
2019/11/11 04:36:00	AWS3	5.95	19	7.72	22	-1.0	100	-1.0	NA	NA	983.6	NA	NA		M	NA	NA	NA	NA
2019/11/11 04:37:00	AWS3	5.89	19	7.72	22	-1.0	100	-1.0	NA	NA	983.6	NA	NA		M	NA	NA	NA	NA
2019/11/11 04:38:00	AWS3	6.15	21	7.72	22	-1.0	100	-1.0	NA	NA	983.6	NA	NA		M	NA	NA	NA	NA
2019/11/11 04:39:00	AWS3	6.34	20	7.72	22	-1.0	100	-1.0	NA	NA	983.5	NA	NA		M	NA	NA	NA	NA
2019/11/11 04:40:00	AWS3	6.48	19	7.72	22	-1.0	100	-1.0	NA	NA	983.3	NA	NA		M	NA	NA	NA	NA
2019/11/11 04:41:00	AWS3	6.77	20	7.72	22	-1.0	100	-1.0	NA	NA	983.3	NA	NA		M	NA	NA	NA	NA
2019/11/11 04:42:00	AWS3	6.64	22	7.25	16	-1.0	100	-1.0	NA	NA	983.4	NA	NA		M	NA	NA	NA	NA
2019/11/11 04:43:00	AWS3	6.29	23	7.25	16	-1.0	100	-1.0	NA	NA	983.3	NA	NA		M	NA	NA	NA	NA
2019/11/11 04:44:00	AWS3	5.99	24	7.25	16	-1.0	100	-1.0	NA	NA	983.4	NA	NA		M	NA	NA	NA	NA
2019/11/11 04:45:00	AWS3	6.06	20	7.25	16	-1.0	100	-1.0	NA	NA	983.3	NA	NA		M	NA	NA	NA	NA
2019/11/11 04:46:00	AWS3	5.94	19	7.25	16	-1.0	100	-1.0	NA	NA	983.3	NA	NA		M	NA	NA	NA	NA
2019/11/11 04:47:00	AWS3	5.62	21	7.25	16	-1.0	100	-1.0	NA	NA	983.3	NA	NA		M	NA	NA	NA	NA
2019/11/11 04:48:00	AWS3	5.91	22	7.25	16	-1.0	100	-1.0	NA	NA	983.3	NA	NA		M	NA	NA	NA	NA
2019/11/11 04:49:00	AWS3	5.95	23	7.25	16	-1.0	100	-1.0	NA	NA	983.3	NA	NA		M	NA	NA	NA	NA
2019/11/11 04:50:00	AWS3	5.93	23	7.25	16	-1.0	100	-1.0	NA	NA	983.4	NA	NA		M	NA	NA	NA	NA
2019/11/11 04:51:00	AWS3	6.06	22	7.05	26	-1.0	100	-1.0	NA	NA	983.3	NA	NA		M	NA	NA	NA	NA
2019/11/11 04:52:00	AWS3	6.05	24	6.89	25	-1.0	100	-1.0	NA	NA	983.2	NA	NA		M	NA	NA	NA	NA
2019/11/11 04:53:00	AWS3	6.17	24	7.15	29	-1.0	100	-1.0	NA	NA	983.2	NA	NA		M	NA	NA	NA	NA
2019/11/11 04:54:00	AWS3	6.26	22	7.15	29	-1.0	100	-1.0	NA	NA	983.3	NA	NA		M	NA	NA	NA	NA
2019/11/11 04:55:00	AWS3	6.24	22	7.15	29	-1.0	100	-1.0	NA	NA	983.1	NA	NA		M	NA	NA	NA	NA
2019/11/11 04:56:00	AWS3	6.00	20	7.15	29	-1.0	100	-1.0	NA	NA	983.2	NA	NA		M	NA	NA	NA	NA
2019/11/11 04:57:00	AWS3	5.62	19	7.15	29	-1.0	100	-1.0	NA	NA	983.0	NA	NA		M	NA	NA	NA	NA
2019/11/11 04:58:00	AWS3	5.71	23	7.15	29	-1.0	100	-1.0	NA	NA	983.1	NA	NA		M	NA	NA	NA	NA
2019/11/11 04:59:00	AWS3	5.92	22	7.15	29	-1.0	100	-1.0	NA	NA	983.0	NA	NA		M	NA	NA	NA	NA
2019/11/11 05:00:00	AWS3	6.07	22	7.15	29	-1.0	100	-1.0	NA	NA	983.2	NA	NA		M	NA	NA	NA	NA
2019/11/11 05:01:00	AWS3	6.25	25	7.15	29	-1.0	100	-1.0	NA	NA	982.9	NA	NA		M	NA	NA	NA	NA
2019/11/11 05:02:00	AWS3	6.25	24	7.15	29	-1.0	100	-1.0	NA	NA	983.0	NA	NA		M	NA	NA	NA	NA
2019/11/11 05:03:00	AWS3	6.28	24	6.84	22	-1.0	100	-1.0	NA	NA	983.0	NA	NA		M	NA	NA	NA	NA
2019/11/11 05:04:00	AWS3	6.51	26	7.10	22	-1.0	100	-1.0	NA	NA	983.0	NA	NA		M	NA	NA	NA	NA
2019/11/11 05:05:00	AWS3	6.65	23	7.31	20	-1.0	100	-1.0	NA	NA	982.9	NA	NA		M	NA	NA	NA	NA
2019/11/11 05:06:00	AWS3	6.58	24	7.31	29	-1.0	100	-1.0	NA	NA	982.9	NA	NA		M	NA	NA	NA	NA
2019/11/11 05:07:00	AWS3	6.65	24	7.67	23	-1.0	100	-1.0	NA	NA	983.0	NA	NA		M	NA	NA	NA	NA
2019/11/11 05:08:00	AWS3	6.44	21	7.67	23	-1.0	100	-1.0	NA	NA	983.0	NA	NA		M	NA	NA	NA	NA
2019/11/11 05:09:00	AWS3	6.28	22	7.67	23	-1.0	100	-1.0	NA	NA	982.9	NA	NA		M	NA	NA	NA	NA
2019/11/11 05:10:00	AWS3	6.52	23	7.67	23	-1.0	100	-1.0	NA	NA	982.9	NA	NA		M	NA	NA	NA	NA
2019/11/11 05:11:00	AWS3	6.37	21	7.67	23	-1.0	100	-1.0	NA	NA	983.0	NA	NA		M	NA	NA	NA	NA
2019/11/11 05:12:00	AWS3	6.02	20	7.67	23	-1.0	100	-1.0	NA	NA	982.9	NA	NA		M	NA	NA	NA	NA
2019/11/11 05:13:00	AWS3	6.10	23	7.67	23	-0.9	100	-0.9	NA	NA	982.8	NA	NA		M	NA	NA	NA	NA
2019/11/11 05:14:00	AWS3	5.97	22	7.67	23	-0.9	100	-0.9	NA	NA	983.0	NA	NA		M	NA	NA	NA	NA
2019/11/11 05:15:00	AWS3	5.92	20	7.67	23	-0.9	100	-0.9	NA	NA	982.9	NA	NA		M	NA	NA	NA	NA
2019/11/11 05:16:00	AWS3	6.39	18	7.67	23	-0.9	100	-0.9	NA	NA	982.9	NA	NA		M	NA	NA	NA	NA
2019/11/11 05:17:00	AWS3	6.51	18	7.36	23	-0.9	100	-0.9	NA	NA	982.8	NA	NA		M	NA	NA	NA	NA
2019/11/11 05:18:01	AWS3	6.33	19	7.36	23	-0.9	100	-0.9	NA	NA	982.9	NA	NA		M	NA	NA	NA	NA
2019/11/11 05:19:01	AWS3	6.38	19	7.67	18	-1.0	100	-1.0	NA	NA	982.8	NA	NA		M	NA	NA	NA	NA
2019/11/11 05:20:01	AWS3	6.60	20	7.67	18	-1.0	100	-1.0	NA	NA	982.8	NA	NA		M	NA	NA	NA	NA
2019/11/11 05:21:01	AWS3	6.68	21	7.87	20	-1.0	100	-1.0	NA	NA	982.8	NA	NA		M	NA	NA	NA	NA
2019/11/11 05:22:01	AWS3	6.65	21	7.87	20	-1.0	100	-1.0	NA	NA	982.7	NA	NA		M	NA	NA	NA	NA
2019/11/11 05:23:01	AWS3	6.57	21	7.87	20	-1.0	100	-1.0	NA	NA	982.7	NA	NA		M	NA	NA	NA	NA
2019/11/11 05:24:01	AWS3	6.41	19	7.87	20	-1.0	100	-1.0	NA	NA	982.7	NA	NA		M	NA	NA	NA	NA
2019/11/11 05:25:01	AWS3	6.55	21	7.87	20	-1.0	100	-1.0	NA	NA	982.7	NA	NA		M	NA	NA	NA	NA
2019/11/11 05:26:01	AWS3	7.02	23	7.87	20	-0.9	100	-0.9	NA	NA	982.5	NA	NA		M	NA	NA	NA	NA
2019/11/11 05:27:01	AWS3	7.10	22	7.87	20	-0.9	100	-0.9	NA	NA	982.6	NA	NA		M	NA	NA	NA	NA
2019/11/11 05:28:01	AWS3	6.96	18	8.03	4	-0.9	100	-0.9	NA	NA	982.4	NA	NA		M	NA	NA	NA	NA
2019/11/11 05:29:01	AWS3	6.56	15	8.03	4	-0.9	100	-0.9	NA	NA	982.6	NA	NA		M	NA	NA	NA	NA
2019/11/11 05:30:01	AWS3	6.28	18	8.03	4	-0.9	100	-0.9	NA	NA	982.4	NA	NA		M	NA	NA	NA	NA
2019/11/11 05:31:01	AWS3	6.65	21	8.03	4	-0.9	100	-0.9	NA	NA	982.6	NA	NA		M	NA	NA	NA	NA
2019/11/11 05:32:01	AWS3	6.93	22	8.03	4	-0.9	100	-0.9	NA	NA	982.5	NA	NA		M	NA	NA	NA	NA
2019/11/11 05:33:01	AWS3	6.87	22	8.03	4	-0.9	100	-0.9	NA	NA	982.5	NA	NA		M	NA	NA	NA	NA
2019/11/11 05:34:01	AWS3	6.69	21	8.03	4	-0.9	100	-0.9	NA	NA	982.4	NA	NA		M	NA	NA	NA	NA
2019/11/11 05:35:01	AWS3	6.83	22	8.03	4	-0.9	100	-0.9	NA	NA	982.5	NA	NA		M	NA	NA	NA	NA
2019/11/11 05:36:01	AWS3	6.84	23	8.03	4	-0.9	100	-0.9	NA	NA	982.4	NA	NA		M	NA	NA	NA	NA
2019/11/11 05:37:01	AWS3	7.04	23	8.08	14	-0.9	100	-0.9	NA	NA	982.3	NA	NA		M	NA	NA	NA	NA
2019/11/11 05:38:01	AWS3	7.50	21	8.23	17	-0.9	100	-0.9	NA	NA	982.2	NA	NA		M	NA	NA	NA	NA
2019/11/11 05:39:01	AWS3	7.14	20	8.23	17	-0.9	100	-0.9	NA	NA	982.4	NA	NA		M	NA	NA	NA	NA
2019/11/11 05:40:01	AWS3	6.66	18	8.23	17	-0.9	100	-0.9	NA	NA	982.4	NA	NA		M	NA	NA	NA	NA
2019/11/11 05:41:01	AWS3	6.82	16	8.23	17	-0.9	100	-0.9	NA	NA	982.3	NA	NA		M	NA	NA	NA	NA
2019/11/11 05:42:01	AWS3	6.70	16	8.23	17	-0.9	100	-0.9	NA	NA	982.4	NA	NA		M	NA	NA	NA	NA
2019/11/11 05:43:01	AWS3	6.27	16	8.23	17	-0.9	100	-0.9	NA	NA	982.3	NA	NA		M	NA	NA	NA	NA
2019/11/11 05:44:01	AWS3	6.22	16	8.23	17	-0.9	100	-0.9	NA	NA	982.4	NA	NA		M	NA	NA	NA	NA
2019/11/11 05:45:01	AWS3	6.55	17	8.23	17	-0.9	100	-0.9	NA	NA	982.3	NA	NA		M	NA	NA	NA	NA
2019/11/11 05:46:01	AWS3	6.96	18	8.23	17	-0.9	100	-0.9	NA	NA	982.2	NA	NA		M	NA	NA	NA	NA
2019/11/11 05:47:02	AWS3	7.14	19	8.23	17	-0.9	100	-0.9	NA	NA	M	NA	NA		M	NA	NA	NA	NA
2019/11/11 05:48:02	AWS3	7.48	21	8.28	18	-0.9	100	-0.9	NA	NA	982.2	NA	NA		M	NA	NA	NA	NA
2019/11/11 05:49:01	AWS3	7.45	19	8.28	18	-0.9	100	-0.9	NA	NA	982.0	NA	NA		M	NA	NA	NA	NA
2019/11/11 05:50:01	AWS3	7.16	20	8.28	18	-0.9	100	-0.9	NA	NA	982.2	NA	NA		M	NA	NA	NA	NA
2019/11/11 05:51:01	AWS3	7.26	19	8.28	18	-0.9	100	-0.9	NA	NA	982.1	NA	NA		M	NA	NA	NA	NA
2019/11/11 05:52:01	AWS3	6.99	17	8.28	18	-0.9	100	-0.9	NA	NA	982.2	NA	NA		M	NA	NA	NA	NA
2019/11/11 05:53:01	AWS3	6.74	19	8.28	18	-0.9	100	-0.9	NA	NA	982.2	NA	NA		M	NA	NA	NA	NA
2019/11/11 05:54:01	AWS3	7.28	20	8.54	15	-0.9	100	-0.9	NA	NA	982.1	NA	NA		M	NA	NA	NA	NA
2019/11/11 05:55:01	AWS3	7.21	19	8.54	15	-0.9	100	-0.9	NA	NA	982.0	NA	NA		M	NA	NA	NA	NA
2019/11/11 05:56:01	AWS3	7.08	19	8.64	30	-0.9	100	-0.9	NA	NA	982.1	NA	NA		M	NA	NA	NA	NA
2019/11/11 05:57:02	AWS3	6.97	17	8.64	30	-0.9	100	-0.9	NA	NA	982.0	NA	NA		M	NA	NA	NA	NA
2019/11/11 05:58:01	AWS3	6.54	16	8.64	30	-0.9	100	-0.9	NA	NA	982.2	NA	NA		M	NA	NA	NA	NA
2019/11/11 05:59:01	AWS3	6.30	15	8.64	30	-0.9	100	-0.9	NA	NA	982.0	NA	NA		M	NA	NA	NA	NA
2019/11/11 06:00:02	AWS3	6.26	12	8.64	30	-0.9	100	-0.9	NA	NA	982.1	NA	NA		M	NA	NA	NA	NA
2019/11/11 06:01:02	AWS3	6.16	15	8.64	30	-0.9	100	-0.9	NA	NA	981.9	NA	NA		M	NA	NA	NA	NA
2019/11/11 06:02:01	AWS3	6.44	16	8.64	30	-0.9	100	-0.9	NA	NA	981.9	NA	NA		M	NA	NA	NA	NA
2019/11/11 06:03:01	AWS3	6.92	14	8.64	30	-0.9	100	-0.9	NA	NA	981.9	NA	NA		M	NA	NA	NA	NA
2019/11/11 06:04:01	AWS3	7.06	16	8.64	30	-0.9	100	-0.9	NA	NA	981.9	NA	NA		M	NA	NA	NA	NA
2019/11/11 06:05:02	AWS3	7.15	20	8.64	30	-0.8	100	-0.8	NA	NA	981.9	NA	NA		M	NA	NA	NA	NA
2019/11/11 06:06:02	AWS3	7.63	18	9.11	19	-0.8	100	-0.8	NA	NA	981.8	NA	NA		M	NA	NA	NA	NA
2019/11/11 06:07:00	AWS3	7.50	17	9.11	19	-0.8	100	-0.8	NA	NA	982.0	NA	NA		M	NA	NA	NA	NA
2019/11/11 06:08:01	AWS3	7.15	19	9.11	19	-0.8	100	-0.8	NA	NA	981.9	NA	NA		M	NA	NA	NA	NA
2019/11/11 06:09:01	AWS3	7.30	18	9.11	19	-0.8	100	-0.8	NA	NA	981.8	NA	NA		M	NA	NA	NA	NA
2019/11/11 06:10:01	AWS3	6.71	16	9.11	19	-0.8	100	-0.8	NA	NA	981.9	NA	NA		M	NA	NA	NA	NA
2019/11/11 06:11:00	AWS3	6.66	16	9.11	19	-0.8	100	-0.8	NA	NA	981.7	NA	NA		M	NA	NA	NA	NA
2019/11/11 06:12:01	AWS3	7.13	18	9.11	19	-0.8	100	-0.8	NA	NA	981.8	NA	NA		M	NA	NA	NA	NA
2019/11/11 06:13:02	AWS3	7.13	18	9.11	19	-0.8	100	-0.8	NA	NA	981.8	NA	NA		M	NA	NA	NA	NA
2019/11/11 06:14:00	AWS3	6.67	17	9.11	19	-0.8	100	-0.8	NA	NA	981.8	NA	NA		M	NA	NA	NA	NA
2019/11/11 06:15:01	AWS3	6.60	16	9.11	19	-0.8	100	-0.8	NA	NA	981.6	NA	NA		M	NA	NA	NA	NA
2019/11/11 06:16:01	AWS3	7.33	19	8.64	28	-0.8	100	-0.8	NA	NA	981.5	NA	NA		M	NA	NA	NA	NA
2019/11/11 06:17:01	AWS3	7.30	20	8.64	28	-0.8	100	-0.8	NA	NA	981.7	NA	NA		M	NA	NA	NA	NA
2019/11/11 06:18:02	AWS3	6.74	19	8.64	28	-0.8	100	-0.8	NA	NA	981.5	NA	NA		M	NA	NA	NA	NA
2019/11/11 06:19:02	AWS3	6.87	20	8.64	28	-0.8	100	-0.8	NA	NA	981.6	NA	NA		M	NA	NA	NA	NA
2019/11/11 06:20:01	AWS3	7.23	22	8.64	28	-0.8	100	-0.8	NA	NA	981.6	NA	NA		M	NA	NA	NA	NA
2019/11/11 06:21:01	AWS3	7.17	21	8.64	28	-0.8	100	-0.8	NA	NA	981.5	NA	NA		M	NA	NA	NA	NA
2019/11/11 06:22:01	AWS3	7.14	19	8.64	28	-0.8	100	-0.8	NA	NA	981.5	NA	NA		M	NA	NA	NA	NA
2019/11/11 06:23:02	AWS3	7.03	21	8.59	16	-0.8	100	-0.8	NA	NA	981.6	NA	NA		M	NA	NA	NA	NA
2019/11/11 06:24:01	AWS3	7.06	22	8.59	16	-0.8	100	-0.8	NA	NA	981.3	NA	NA		M	NA	NA	NA	NA
2019/11/11 06:25:01	AWS3	6.99	21	8.59	16	-0.8	100	-0.8	NA	NA	981.5	NA	NA		M	NA	NA	NA	NA
2019/11/11 06:26:01	AWS3	6.81	20	8.28	19	-0.8	100	-0.8	NA	NA	981.4	NA	NA		M	NA	NA	NA	NA
2019/11/11 06:27:01	AWS3	6.56	20	8.28	19	-0.8	100	-0.8	NA	NA	981.4	NA	NA		M	NA	NA	NA	NA
2019/11/11 06:28:01	AWS3	6.63	21	8.39	26	-0.8	100	-0.8	NA	NA	981.2	NA	NA		M	NA	NA	NA	NA
2019/11/11 06:29:01	AWS3	6.81	24	8.39	26	-0.8	100	-0.8	NA	NA	981.4	NA	NA		M	NA	NA	NA	NA
2019/11/11 06:30:01	AWS3	6.54	22	8.39	26	-0.8	100	-0.8	NA	NA	981.4	NA	NA		M	NA	NA	NA	NA
2019/11/11 06:31:02	AWS3	6.46	22	8.39	26	-0.8	100	-0.8	NA	NA	981.4	NA	NA		M	NA	NA	NA	NA
2019/11/11 06:32:00	AWS3	6.07	21	8.39	26	-0.8	100	-0.8	NA	NA	981.4	NA	NA		M	NA	NA	NA	NA
2019/11/11 06:33:01	AWS3	5.94	19	8.39	26	-0.8	100	-0.8	NA	NA	981.3	NA	NA		M	NA	NA	NA	NA
2019/11/11 06:34:01	AWS3	6.20	21	8.39	26	-0.8	100	-0.8	NA	NA	981.3	NA	NA		M	NA	NA	NA	NA
2019/11/11 06:35:03	AWS3	6.22	24	8.39	26	-0.8	100	-0.8	NA	NA	981.4	NA	NA		M	NA	NA	NA	NA
2019/11/11 06:36:01	AWS3	6.19	24	8.39	26	-0.8	100	-0.8	NA	NA	981.3	NA	NA		M	NA	NA	NA	NA
2019/11/11 06:37:01	AWS3	6.31	21	8.39	26	-0.8	100	-0.8	NA	NA	981.2	NA	NA		M	NA	NA	NA	NA
2019/11/11 06:38:01	AWS3	6.50	21	7.72	28	-0.8	100	-0.8	NA	NA	981.3	NA	NA		M	NA	NA	NA	NA
2019/11/11 06:39:01	AWS3	6.13	19	7.72	28	-0.8	100	-0.8	NA	NA	981.2	NA	NA		M	NA	NA	NA	NA
2019/11/11 06:40:01	AWS3	5.78	20	7.72	28	-0.8	100	-0.8	NA	NA	981.3	NA	NA		M	NA	NA	NA	NA
2019/11/11 06:41:01	AWS3	5.83	23	7.72	28	-0.8	100	-0.8	NA	NA	981.2	NA	NA		M	NA	NA	NA	NA
2019/11/11 06:42:01	AWS3	6.16	24	7.72	28	-0.8	100	-0.8	NA	NA	981.0	NA	NA		M	NA	NA	NA	NA
2019/11/11 06:43:01	AWS3	6.41	23	7.72	28	-0.8	100	-0.8	NA	NA	981.1	NA	NA		M	NA	NA	NA	NA
2019/11/11 06:44:01	AWS3	6.25	21	7.20	19	-0.8	100	-0.8	NA	NA	981.0	NA	NA		M	NA	NA	NA	NA
2019/11/11 06:45:01	AWS3	6.24	21	7.20	19	-0.8	100	-0.8	NA	NA	981.1	NA	NA		M	NA	NA	NA	NA
2019/11/11 06:46:01	AWS3	6.46	22	8.03	28	-0.8	100	-0.8	NA	NA	981.0	NA	NA		M	NA	NA	NA	NA
2019/11/11 06:47:01	AWS3	6.81	24	8.03	28	-0.8	100	-0.8	NA	NA	981.0	NA	NA		M	NA	NA	NA	NA
2019/11/11 06:48:01	AWS3	7.10	25	8.08	23	-0.8	100	-0.8	NA	NA	981.0	NA	NA		M	NA	NA	NA	NA
2019/11/11 06:49:01	AWS3	7.17	24	8.08	23	-0.8	100	-0.8	NA	NA	980.9	NA	NA		M	NA	NA	NA	NA
2019/11/11 06:50:01	AWS3	7.03	25	8.08	23	-0.8	100	-0.8	NA	NA	980.7	NA	NA		M	NA	NA	NA	NA
2019/11/11 06:51:01	AWS3	6.76	27	8.08	23	-0.8	100	-0.8	NA	NA	980.9	NA	NA		M	NA	NA	NA	NA
2019/11/11 06:52:01	AWS3	6.74	25	8.08	23	-0.8	100	-0.8	NA	NA	980.9	NA	NA		M	NA	NA	NA	NA
2019/11/11 06:53:01	AWS3	7.21	26	8.18	25	-0.7	100	-0.7	NA	NA	981.0	NA	NA		M	NA	NA	NA	NA
2019/11/11 06:54:01	AWS3	7.15	28	8.18	25	-0.7	100	-0.7	NA	NA	980.6	NA	NA		M	NA	NA	NA	NA
2019/11/11 06:55:01	AWS3	7.32	29	8.95	32	-0.7	100	-0.7	NA	NA	980.5	NA	NA		M	NA	NA	NA	NA
2019/11/11 06:56:01	AWS3	7.73	29	8.95	32	-0.7	100	-0.7	NA	NA	980.8	NA	NA		M	NA	NA	NA	NA
2019/11/11 06:57:02	AWS3	7.80	28	9.05	32	-0.7	100	-0.7	NA	NA	980.7	NA	NA		M	NA	NA	NA	NA
2019/11/11 06:58:01	AWS3	7.93	28	9.05	32	-0.7	100	-0.7	NA	NA	980.7	NA	NA		M	NA	NA	NA	NA
2019/11/11 06:59:01	AWS3	7.35	27	9.05	32	-0.7	100	-0.7	NA	NA	980.7	NA	NA		M	NA	NA	NA	NA
2019/11/11 07:00:01	AWS3	7.18	28	9.05	32	-0.7	100	-0.7	NA	NA	980.8	NA	NA		M	NA	NA	NA	NA
2019/11/11 07:01:02	AWS3	7.64	29	9.57	24	-0.7	100	-0.7	NA	NA	980.5	NA	NA		M	NA	NA	NA	NA
2019/11/11 07:02:01	AWS3	7.77	29	9.57	24	-0.7	100	-0.7	NA	NA	980.7	NA	NA		M	NA	NA	NA	NA
2019/11/11 07:03:01	AWS3	7.67	29	9.57	24	-0.7	100	-0.7	NA	NA	980.6	NA	NA		M	NA	NA	NA	NA
2019/11/11 07:04:01	AWS3	7.68	29	9.57	24	-0.7	100	-0.7	NA	NA	980.6	NA	NA		M	NA	NA	NA	NA
2019/11/11 07:05:01	AWS3	7.23	28	9.57	24	-0.7	100	-0.7	NA	NA	980.7	NA	NA		M	NA	NA	NA	NA
2019/11/11 07:06:01	AWS3	6.92	28	9.57	24	-0.7	100	-0.7	NA	NA	980.7	NA	NA		M	NA	NA	NA	NA
2019/11/11 07:07:02	AWS3	6.74	30	9.57	24	-0.7	100	-0.7	NA	NA	980.7	NA	NA		M	NA	NA	NA	NA
2019/11/11 07:08:00	AWS3	6.68	30	9.57	24	-0.7	100	-0.7	NA	NA	980.6	NA	NA		M	NA	NA	NA	NA
2019/11/11 07:09:01	AWS3	6.84	30	9.57	24	-0.7	100	-0.7	NA	NA	980.6	NA	NA		M	NA	NA	NA	NA
2019/11/11 07:10:01	AWS3	6.56	31	9.57	24	-0.7	100	-0.7	NA	NA	980.6	NA	NA		M	NA	NA	NA	NA
2019/11/11 07:11:01	AWS3	6.72	29	9.31	27	-0.7	100	-0.7	NA	NA	980.5	NA	NA		M	NA	NA	NA	NA
2019/11/11 07:12:01	AWS3	7.20	27	8.85	26	-0.7	100	-0.7	NA	NA	980.5	NA	NA		M	NA	NA	NA	NA
2019/11/11 07:13:01	AWS3	7.09	29	8.85	26	-0.7	100	-0.7	NA	NA	980.4	NA	NA		M	NA	NA	NA	NA
2019/11/11 07:14:01	AWS3	6.37	29	8.85	26	-0.7	100	-0.7	NA	NA	980.4	NA	NA		M	NA	NA	NA	NA
2019/11/11 07:15:01	AWS3	6.45	28	8.85	26	-0.6	100	-0.6	NA	NA	980.4	NA	NA		M	NA	NA	NA	NA
2019/11/11 07:16:01	AWS3	7.12	29	8.85	26	-0.6	100	-0.6	NA	NA	980.4	NA	NA		M	NA	NA	NA	NA
2019/11/11 07:17:01	AWS3	7.13	32	8.85	26	-0.6	100	-0.6	NA	NA	980.3	NA	NA		M	NA	NA	NA	NA
2019/11/11 07:18:00	AWS3	6.88	33	8.85	26	-0.6	100	-0.6	NA	NA	980.3	NA	NA		M	NA	NA	NA	NA
2019/11/11 07:19:01	AWS3	6.96	33	8.85	26	-0.6	100	-0.6	NA	NA	980.2	NA	NA		M	NA	NA	NA	NA
2019/11/11 07:20:00	AWS3	7.05	35	8.85	26	-0.6	100	-0.6	NA	NA	980.2	NA	NA		M	NA	NA	NA	NA
2019/11/11 07:21:01	AWS3	6.92	34	8.85	26	-0.6	100	-0.6	NA	NA	980.2	NA	NA		M	NA	NA	NA	NA
2019/11/11 07:22:01	AWS3	6.87	32	8.03	27	-0.6	100	-0.6	NA	NA	980.2	NA	NA		M	NA	NA	NA	NA
2019/11/11 07:23:01	AWS3	7.19	34	8.03	36	-0.6	100	-0.6	NA	NA	980.1	NA	NA		M	NA	NA	NA	NA
2019/11/11 07:24:01	AWS3	7.59	36	8.95	38	-0.6	100	-0.6	NA	NA	980.0	NA	NA		M	NA	NA	NA	NA
2019/11/11 07:25:01	AWS3	7.71	36	8.95	38	-0.6	100	-0.6	NA	NA	979.9	NA	NA		M	NA	NA	NA	NA
2019/11/11 07:26:01	AWS3	8.02	37	10.08	41	-0.6	100	-0.6	NA	NA	979.8	NA	NA		M	NA	NA	NA	NA
2019/11/11 07:27:01	AWS3	7.74	39	10.08	41	-0.6	100	-0.6	NA	NA	979.9	NA	NA		M	NA	NA	NA	NA
2019/11/11 07:28:01	AWS3	7.22	38	10.08	41	-0.6	100	-0.6	NA	NA	979.6	NA	NA		M	NA	NA	NA	NA
2019/11/11 07:29:01	AWS3	7.20	35	10.08	41	-0.6	100	-0.6	NA	NA	979.9	NA	NA		M	NA	NA	NA	NA
2019/11/11 07:30:01	AWS3	7.24	34	10.08	41	-0.6	100	-0.6	NA	NA	979.8	NA	NA		M	NA	NA	NA	NA
2019/11/11 07:31:02	AWS3	7.04	34	10.08	41	-0.6	100	-0.6	NA	NA	979.9	NA	NA		M	NA	NA	NA	NA
2019/11/11 07:32:01	AWS3	6.65	35	10.08	41	-0.6	100	-0.6	NA	NA	979.9	NA	NA		M	NA	NA	NA	NA
2019/11/11 07:33:02	AWS3	6.71	35	10.08	41	-0.6	100	-0.6	NA	NA	979.9	NA	NA		M	NA	NA	NA	NA
2019/11/11 07:34:00	AWS3	6.97	33	10.08	41	-0.6	100	-0.6	NA	NA	979.8	NA	NA		M	NA	NA	NA	NA
2019/11/11 07:35:01	AWS3	7.07	34	10.08	41	-0.6	100	-0.6	NA	NA	979.9	NA	NA		M	NA	NA	NA	NA
2019/11/11 07:36:01	AWS3	7.04	33	8.44	36	-0.6	100	-0.6	NA	NA	979.7	NA	NA		M	NA	NA	NA	NA
2019/11/11 07:37:00	AWS3	7.21	30	8.54	26	-0.6	100	-0.6	NA	NA	979.6	NA	NA		M	NA	NA	NA	NA
2019/11/11 07:38:01	AWS3	7.10	30	8.54	26	-0.6	100	-0.6	NA	NA	979.5	NA	NA		M	NA	NA	NA	NA
2019/11/11 07:39:01	AWS3	6.47	33	8.54	26	-0.6	100	-0.6	NA	NA	979.6	NA	NA		M	NA	NA	NA	NA
2019/11/11 07:40:01	AWS3	6.15	33	8.54	26	-0.6	100	-0.6	NA	NA	979.7	NA	NA		M	NA	NA	NA	NA
2019/11/11 07:41:01	AWS3	6.39	33	8.54	26	-0.6	100	-0.6	NA	NA	979.6	NA	NA		M	NA	NA	NA	NA
2019/11/11 07:42:01	AWS3	6.38	32	8.54	26	-0.6	100	-0.6	NA	NA	979.6	NA	NA		M	NA	NA	NA	NA
2019/11/11 07:43:01	AWS3	6.53	32	8.54	26	-0.6	100	-0.6	NA	NA	979.5	NA	NA		M	NA	NA	NA	NA
2019/11/11 07:44:01	AWS3	6.97	31	8.54	26	-0.6	100	-0.6	NA	NA	979.4	NA	NA		M	NA	NA	NA	NA
2019/11/11 07:45:00	AWS3	6.83	30	8.54	26	-0.6	100	-0.6	NA	NA	979.5	NA	NA		M	NA	NA	NA	NA
2019/11/11 07:46:01	AWS3	6.60	32	8.54	26	-0.6	100	-0.6	NA	NA	979.4	NA	NA		M	NA	NA	NA	NA
2019/11/11 07:47:01	AWS3	6.89	34	8.49	45	-0.6	100	-0.6	NA	NA	979.4	NA	NA		M	NA	NA	NA	NA
2019/11/11 07:48:01	AWS3	7.13	35	8.54	36	-0.6	100	-0.6	NA	NA	979.3	NA	NA		M	NA	NA	NA	NA
2019/11/11 07:49:01	AWS3	6.88	34	8.54	36	-0.6	100	-0.6	NA	NA	979.3	NA	NA		M	NA	NA	NA	NA
2019/11/11 07:50:01	AWS3	7.00	34	8.54	36	-0.5	100	-0.5	NA	NA	979.1	NA	NA		M	NA	NA	NA	NA
2019/11/11 07:51:02	AWS3	6.93	32	8.54	36	-0.5	100	-0.5	NA	NA	979.2	NA	NA		M	NA	NA	NA	NA
2019/11/11 07:52:02	AWS3	6.70	34	8.54	36	-0.5	100	-0.5	NA	NA	979.2	NA	NA		M	NA	NA	NA	NA
2019/11/11 07:53:01	AWS3	7.21	36	8.54	36	-0.5	100	-0.5	NA	NA	979.1	NA	NA		M	NA	NA	NA	NA
2019/11/11 07:54:01	AWS3	7.51	36	8.64	40	-0.5	100	-0.5	NA	NA	979.2	NA	NA		M	NA	NA	NA	NA
2019/11/11 07:55:00	AWS3	7.29	36	8.64	40	-0.5	100	-0.5	NA	NA	979.1	NA	NA		M	NA	NA	NA	NA
2019/11/11 07:56:01	AWS3	7.47	37	8.64	40	-0.5	100	-0.5	NA	NA	979.0	NA	NA		M	NA	NA	NA	NA
2019/11/11 07:57:01	AWS3	7.53	38	8.64	40	-0.5	100	-0.5	NA	NA	979.0	NA	NA		M	NA	NA	NA	NA
2019/11/11 07:58:01	AWS3	7.71	37	9.21	42	-0.5	100	-0.5	NA	NA	978.9	NA	NA		M	NA	NA	NA	NA
2019/11/11 07:59:02	AWS3	7.92	34	9.21	42	-0.5	100	-0.5	NA	NA	979.0	NA	NA		M	NA	NA	NA	NA
2019/11/11 08:00:01	AWS3	7.98	35	9.21	42	-0.6	100	-0.6	NA	NA	978.8	NA	NA		M	NA	NA	NA	NA
2019/11/11 08:01:01	AWS3	7.95	36	9.21	42	-0.6	100	-0.6	NA	NA	978.9	NA	NA		M	NA	NA	NA	NA
2019/11/11 08:02:01	AWS3	7.40	33	9.21	42	-0.6	100	-0.6	NA	NA	979.0	NA	NA		M	NA	NA	NA	NA
2019/11/11 08:03:01	AWS3	7.34	32	9.21	42	-0.6	100	-0.6	NA	NA	979.1	NA	NA		M	NA	NA	NA	NA
2019/11/11 08:04:01	AWS3	7.53	35	9.21	42	-0.6	100	-0.6	NA	NA	979.0	NA	NA		M	NA	NA	NA	NA
2019/11/11 08:05:01	AWS3	7.75	33	9.62	31	-0.6	100	-0.6	NA	NA	978.9	NA	NA		M	NA	NA	NA	NA
2019/11/11 08:06:01	AWS3	7.56	34	9.62	31	-0.6	100	-0.6	NA	NA	978.9	NA	NA		M	NA	NA	NA	NA
2019/11/11 08:07:01	AWS3	6.99	35	9.62	31	-0.6	100	-0.6	NA	NA	978.9	NA	NA		M	NA	NA	NA	NA
2019/11/11 08:08:00	AWS3	7.05	34	9.62	31	-0.6	100	-0.6	NA	NA	978.8	NA	NA		M	NA	NA	NA	NA
2019/11/11 08:09:01	AWS3	7.37	36	9.62	31	-0.6	100	-0.6	NA	NA	978.8	NA	NA		M	NA	NA	NA	NA
2019/11/11 08:10:01	AWS3	7.56	31	9.62	31	-0.6	100	-0.6	NA	NA	978.7	NA	NA		M	NA	NA	NA	NA
2019/11/11 08:11:02	AWS3	7.32	29	9.62	31	-0.6	100	-0.6	NA	NA	978.8	NA	NA		M	NA	NA	NA	NA
2019/11/11 08:12:01	AWS3	6.81	29	9.62	31	-0.6	100	-0.6	NA	NA	978.7	NA	NA		M	NA	NA	NA	NA
2019/11/11 08:13:02	AWS3	7.15	33	9.62	31	-0.6	100	-0.6	NA	NA	978.7	NA	NA		M	NA	NA	NA	NA
2019/11/11 08:14:02	AWS3	7.70	35	9.62	31	-0.6	100	-0.6	NA	NA	978.6	NA	NA		M	NA	NA	NA	NA
2019/11/11 08:15:02	AWS3	7.72	31	9.21	42	-0.6	100	-0.6	NA	NA	978.5	NA	NA		M	NA	NA	NA	NA
2019/11/11 08:16:02	AWS3	7.36	31	9.21	42	-0.6	100	-0.6	NA	NA	978.5	NA	NA		M	NA	NA	NA	NA
2019/11/11 08:17:01	AWS3	7.61	33	9.26	34	-0.6	100	-0.6	NA	NA	978.3	NA	NA		M	NA	NA	NA	NA
2019/11/11 08:18:01	AWS3	8.33	34	9.88	32	-0.6	100	-0.6	NA	NA	978.4	NA	NA		M	NA	NA	NA	NA
2019/11/11 08:19:01	AWS3	8.13	34	9.88	32	-0.6	100	-0.6	NA	NA	978.4	NA	NA		M	NA	NA	NA	NA
2019/11/11 08:20:02	AWS3	8.26	35	9.88	32	-0.6	100	-0.6	NA	NA	978.2	NA	NA		M	NA	NA	NA	NA
2019/11/11 08:21:02	AWS3	8.19	35	9.88	32	-0.6	100	-0.6	NA	NA	978.4	NA	NA		M	NA	NA	NA	NA
2019/11/11 08:22:02	AWS3	7.71	33	9.88	32	-0.6	100	-0.6	NA	NA	978.4	NA	NA		M	NA	NA	NA	NA
2019/11/11 08:23:02	AWS3	7.96	32	9.88	32	-0.6	100	-0.6	NA	NA	978.3	NA	NA		M	NA	NA	NA	NA
2019/11/11 08:24:02	AWS3	8.29	33	9.88	32	-0.6	100	-0.6	NA	NA	978.2	NA	NA		M	NA	NA	NA	NA
2019/11/11 08:25:02	AWS3	8.57	34	10.19	36	-0.6	100	-0.6	NA	NA	978.2	NA	NA		M	NA	NA	NA	NA
2019/11/11 08:26:02	AWS3	9.10	33	10.19	36	-0.6	100	-0.6	NA	NA	978.1	NA	NA		M	NA	NA	NA	NA
2019/11/11 08:27:01	AWS3	8.93	34	10.19	36	-0.6	100	-0.6	NA	NA	978.2	NA	NA		M	NA	NA	NA	NA
2019/11/11 08:28:01	AWS3	8.13	36	10.19	36	-0.6	100	-0.6	NA	NA	978.1	NA	NA		M	NA	NA	NA	NA
2019/11/11 08:29:02	AWS3	7.50	33	10.19	36	-0.6	100	-0.6	NA	NA	978.1	NA	NA		M	NA	NA	NA	NA
2019/11/11 08:30:02	AWS3	7.36	31	10.19	36	-0.6	100	-0.6	NA	NA	978.1	NA	NA		M	NA	NA	NA	NA
2019/11/11 08:31:02	AWS3	7.81	31	10.19	36	-0.6	100	-0.6	NA	NA	978.1	NA	NA		M	NA	NA	NA	NA
2019/11/11 08:32:02	AWS3	8.33	33	10.19	36	-0.6	100	-0.6	NA	NA	978.0	NA	NA		M	NA	NA	NA	NA
2019/11/11 08:33:02	AWS3	7.98	34	10.19	36	-0.6	100	-0.6	NA	NA	978.1	NA	NA		M	NA	NA	NA	NA
2019/11/11 08:34:02	AWS3	7.20	36	10.19	36	-0.6	100	-0.6	NA	NA	978.0	NA	NA		M	NA	NA	NA	NA
2019/11/11 08:35:02	AWS3	7.56	33	10.24	24	-0.6	100	-0.6	NA	NA	977.8	NA	NA		M	NA	NA	NA	NA
2019/11/11 08:36:02	AWS3	8.06	32	10.24	41	-0.6	100	-0.6	NA	NA	977.9	NA	NA		M	NA	NA	NA	NA
2019/11/11 08:37:02	AWS3	8.09	36	10.24	41	-0.6	100	-0.6	NA	NA	977.9	NA	NA		M	NA	NA	NA	NA
2019/11/11 08:38:02	AWS3	7.90	33	10.24	41	-0.6	100	-0.6	NA	NA	978.0	NA	NA		M	NA	NA	NA	NA
2019/11/11 08:39:01	AWS3	7.88	32	10.24	41	-0.6	100	-0.6	NA	NA	977.7	NA	NA		M	NA	NA	NA	NA
2019/11/11 08:40:02	AWS3	7.32	32	10.24	41	-0.6	100	-0.6	NA	NA	978.0	NA	NA		M	NA	NA	NA	NA
2019/11/11 08:41:02	AWS3	7.00	30	10.24	41	-0.6	100	-0.6	NA	NA	977.8	NA	NA		M	NA	NA	NA	NA
2019/11/11 08:42:02	AWS3	7.64	33	10.24	41	-0.6	100	-0.6	NA	NA	977.6	NA	NA		M	NA	NA	NA	NA
2019/11/11 08:43:02	AWS3	7.61	35	10.24	41	-0.6	100	-0.6	NA	NA	977.7	NA	NA		M	NA	NA	NA	NA
2019/11/11 08:44:01	AWS3	7.36	33	10.24	41	-0.6	100	-0.6	NA	NA	977.8	NA	NA		M	NA	NA	NA	NA
2019/11/11 08:45:02	AWS3	7.20	32	10.24	41	-0.6	100	-0.6	NA	NA	977.9	NA	NA		M	NA	NA	NA	NA
2019/11/11 08:46:01	AWS3	7.09	32	8.64	23	-0.5	100	-0.5	NA	NA	977.7	NA	NA		M	NA	NA	NA	NA
2019/11/11 08:47:02	AWS3	7.57	32	8.85	25	-0.5	100	-0.5	NA	NA	977.7	NA	NA		M	NA	NA	NA	NA
2019/11/11 08:48:01	AWS3	7.70	32	8.85	25	-0.5	100	-0.5	NA	NA	977.7	NA	NA		M	NA	NA	NA	NA
2019/11/11 08:49:01	AWS3	7.75	31	9.77	23	-0.5	100	-0.5	NA	NA	977.6	NA	NA		M	NA	NA	NA	NA
2019/11/11 08:50:01	AWS3	8.51	32	9.93	41	-0.5	100	-0.5	NA	NA	977.6	NA	NA		M	NA	NA	NA	NA
2019/11/11 08:51:01	AWS3	8.33	33	9.93	41	-0.5	100	-0.5	NA	NA	977.6	NA	NA		M	NA	NA	NA	NA
2019/11/11 08:52:01	AWS3	7.68	31	9.93	41	-0.5	100	-0.5	NA	NA	977.3	NA	NA		M	NA	NA	NA	NA
2019/11/11 08:53:01	AWS3	7.71	29	9.93	41	-0.5	100	-0.5	NA	NA	977.6	NA	NA		M	NA	NA	NA	NA
2019/11/11 08:54:02	AWS3	8.08	30	9.93	41	-0.5	100	-0.5	NA	NA	977.3	NA	NA		M	NA	NA	NA	NA
2019/11/11 08:55:01	AWS3	8.27	33	9.93	41	-0.5	100	-0.5	NA	NA	977.6	NA	NA		M	NA	NA	NA	NA
2019/11/11 08:56:01	AWS3	8.34	35	9.93	41	-0.5	100	-0.5	NA	NA	977.4	NA	NA		M	NA	NA	NA	NA
2019/11/11 08:57:02	AWS3	8.75	35	10.55	28	-0.5	100	-0.5	NA	NA	977.4	NA	NA		M	NA	NA	NA	NA
2019/11/11 08:58:01	AWS3	8.70	34	10.55	28	-0.5	100	-0.5	NA	NA	977.4	NA	NA		M	NA	NA	NA	NA
2019/11/11 08:59:01	AWS3	8.43	32	10.75	27	-0.5	100	-0.5	NA	NA	977.3	NA	NA		M	NA	NA	NA	NA
2019/11/11 09:00:02	AWS3	8.26	32	10.75	27	-0.5	100	-0.5	NA	NA	977.3	NA	NA		M	NA	NA	NA	NA
2019/11/11 09:01:01	AWS3	8.66	33	10.75	27	-0.5	100	-0.5	NA	NA	977.1	NA	NA		M	NA	NA	NA	NA
2019/11/11 09:02:01	AWS3	9.42	36	10.75	27	-0.5	100	-0.5	NA	NA	977.1	NA	NA		M	NA	NA	NA	NA
2019/11/11 09:03:02	AWS3	9.19	37	10.75	27	-0.5	100	-0.5	NA	NA	977.2	NA	NA		M	NA	NA	NA	NA
2019/11/11 09:04:01	AWS3	8.83	35	10.75	27	-0.5	100	-0.5	NA	NA	977.2	NA	NA		M	NA	NA	NA	NA
2019/11/11 09:05:02	AWS3	8.86	36	10.75	27	-0.5	100	-0.5	NA	NA	977.0	NA	NA		M	NA	NA	NA	NA
2019/11/11 09:06:01	AWS3	9.32	39	10.75	27	-0.5	100	-0.5	NA	NA	977.1	NA	NA		M	NA	NA	NA	NA
2019/11/11 09:07:01	AWS3	9.65	37	11.63	39	-0.5	100	-0.5	NA	NA	977.0	NA	NA		M	NA	NA	NA	NA
2019/11/11 09:08:01	AWS3	9.39	34	11.63	39	-0.5	100	-0.5	NA	NA	976.9	NA	NA		M	NA	NA	NA	NA
2019/11/11 09:09:01	AWS3	9.30	36	11.63	39	-0.5	100	-0.5	NA	NA	976.9	NA	NA		M	NA	NA	NA	NA
2019/11/11 09:10:01	AWS3	9.03	38	11.63	39	-0.5	100	-0.5	NA	NA	977.0	NA	NA		M	NA	NA	NA	NA
2019/11/11 09:11:01	AWS3	8.38	34	11.63	39	-0.6	100	-0.6	NA	NA	977.0	NA	NA		M	NA	NA	NA	NA
2019/11/11 09:12:01	AWS3	8.45	35	11.63	39	-0.5	100	-0.5	NA	NA	977.0	NA	NA		M	NA	NA	NA	NA
2019/11/11 09:13:01	AWS3	8.67	33	11.63	39	-0.6	100	-0.6	NA	NA	977.0	NA	NA		M	NA	NA	NA	NA
2019/11/11 09:14:01	AWS3	8.47	32	11.63	39	-0.6	100	-0.6	NA	NA	976.9	NA	NA		M	NA	NA	NA	NA
2019/11/11 09:15:01	AWS3	8.23	36	11.63	39	-0.6	100	-0.6	NA	NA	977.0	NA	NA		M	NA	NA	NA	NA
2019/11/11 09:16:01	AWS3	8.07	36	11.63	39	-0.5	100	-0.5	NA	NA	976.9	NA	NA		M	NA	NA	NA	NA
2019/11/11 09:17:01	AWS3	8.40	34	10.80	34	-0.5	100	-0.5	NA	NA	976.9	NA	NA		M	NA	NA	NA	NA
2019/11/11 09:18:01	AWS3	8.72	36	10.49	43	-0.5	100	-0.5	NA	NA	976.8	NA	NA		M	NA	NA	NA	NA
2019/11/11 09:19:01	AWS3	8.90	36	10.49	43	-0.5	100	-0.5	NA	NA	976.7	NA	NA		M	NA	NA	NA	NA
2019/11/11 09:20:02	AWS3	9.06	36	10.49	43	-0.5	100	-0.5	NA	NA	976.8	NA	NA		M	NA	NA	NA	NA
2019/11/11 09:21:01	AWS3	9.10	34	10.85	38	-0.5	100	-0.5	NA	NA	976.6	NA	NA		M	NA	NA	NA	NA
2019/11/11 09:22:01	AWS3	8.84	34	10.85	38	-0.5	100	-0.5	NA	NA	976.7	NA	NA		M	NA	NA	NA	NA
2019/11/11 09:23:01	AWS3	8.88	36	10.85	38	-0.5	100	-0.5	NA	NA	976.7	NA	NA		M	NA	NA	NA	NA
2019/11/11 09:24:01	AWS3	8.86	34	10.85	38	-0.5	100	-0.5	NA	NA	976.7	NA	NA		M	NA	NA	NA	NA
2019/11/11 09:25:01	AWS3	8.58	35	10.85	38	-0.5	100	-0.5	NA	NA	976.6	NA	NA		M	NA	NA	NA	NA
2019/11/11 09:26:01	AWS3	8.58	37	10.85	38	-0.5	100	-0.5	NA	NA	976.6	NA	NA		M	NA	NA	NA	NA
2019/11/11 09:27:01	AWS3	9.10	37	10.91	31	-0.5	100	-0.5	NA	NA	976.6	NA	NA		M	NA	NA	NA	NA
2019/11/11 09:28:01	AWS3	9.00	37	10.91	31	-0.5	100	-0.5	NA	NA	976.7	NA	NA		M	NA	NA	NA	NA
2019/11/11 09:29:01	AWS3	8.43	36	10.91	31	-0.5	100	-0.5	NA	NA	976.6	NA	NA		M	NA	NA	NA	NA
2019/11/11 09:30:01	AWS3	8.34	33	10.91	31	-0.5	100	-0.5	NA	NA	976.5	NA	NA		M	NA	NA	NA	NA
2019/11/11 09:31:02	AWS3	7.95	31	10.91	31	-0.5	100	-0.5	NA	NA	976.7	NA	NA		M	NA	NA	NA	NA
2019/11/11 09:32:01	AWS3	7.58	33	10.91	31	-0.5	100	-0.5	NA	NA	976.7	NA	NA		M	NA	NA	NA	NA
2019/11/11 09:33:01	AWS3	7.54	34	10.91	31	-0.5	100	-0.5	NA	NA	976.7	NA	NA		M	NA	NA	NA	NA
2019/11/11 09:34:01	AWS3	7.53	34	10.91	31	-0.5	100	-0.5	NA	NA	976.7	NA	NA		M	NA	NA	NA	NA
2019/11/11 09:35:01	AWS3	7.76	33	10.91	31	-0.5	100	-0.5	NA	NA	976.5	NA	NA		M	NA	NA	NA	NA
2019/11/11 09:36:01	AWS3	7.80	32	10.91	31	-0.5	100	-0.5	NA	NA	976.6	NA	NA		M	NA	NA	NA	NA
2019/11/11 09:37:02	AWS3	7.70	28	10.70	30	-0.5	100	-0.5	NA	NA	976.6	NA	NA		M	NA	NA	NA	NA
2019/11/11 09:38:01	AWS3	7.64	29	10.70	30	-0.5	100	-0.5	NA	NA	976.6	NA	NA		M	NA	NA	NA	NA
2019/11/11 09:39:01	AWS3	7.88	34	10.70	30	-0.5	100	-0.5	NA	NA	976.4	NA	NA		M	NA	NA	NA	NA
2019/11/11 09:40:01	AWS3	8.10	36	9.52	43	-0.5	100	-0.5	NA	NA	976.5	NA	NA		M	NA	NA	NA	NA
2019/11/11 09:41:01	AWS3	8.75	36	10.85	35	-0.5	100	-0.5	NA	NA	976.2	NA	NA		M	NA	NA	NA	NA
2019/11/11 09:42:01	AWS3	9.48	34	10.85	35	-0.5	100	-0.5	NA	NA	976.3	NA	NA		M	NA	NA	NA	NA
2019/11/11 09:43:01	AWS3	9.85	35	11.57	33	-0.5	100	-0.5	NA	NA	976.0	NA	NA		M	NA	NA	NA	NA
2019/11/11 09:44:01	AWS3	9.54	33	11.57	33	-0.5	100	-0.5	NA	NA	976.4	NA	NA		M	NA	NA	NA	NA
2019/11/11 09:45:01	AWS3	8.22	30	11.57	33	-0.5	100	-0.5	NA	NA	976.4	NA	NA		M	NA	NA	NA	NA
2019/11/11 09:46:01	AWS3	7.58	30	11.57	33	-0.5	100	-0.5	NA	NA	976.5	NA	NA		M	NA	NA	NA	NA
2019/11/11 09:47:01	AWS3	8.27	29	11.57	33	-0.4	100	-0.4	NA	NA	976.3	NA	NA		M	NA	NA	NA	NA
2019/11/11 09:48:01	AWS3	9.05	27	11.57	33	-0.4	100	-0.4	NA	NA	976.4	NA	NA		M	NA	NA	NA	NA
2019/11/11 09:49:01	AWS3	9.22	28	11.57	33	-0.4	100	-0.4	NA	NA	976.4	NA	NA		M	NA	NA	NA	NA
2019/11/11 09:50:01	AWS3	9.27	30	11.57	33	-0.4	100	-0.4	NA	NA	976.2	NA	NA		M	NA	NA	NA	NA
2019/11/11 09:51:02	AWS3	9.44	31	11.57	33	-0.4	100	-0.4	NA	NA	976.2	NA	NA		M	NA	NA	NA	NA
2019/11/11 09:52:01	AWS3	9.56	31	11.57	33	-0.4	100	-0.4	NA	NA	976.2	NA	NA		M	NA	NA	NA	NA
2019/11/11 09:53:01	AWS3	9.16	30	10.91	26	-0.4	100	-0.4	NA	NA	976.2	NA	NA		M	NA	NA	NA	NA
2019/11/11 09:54:02	AWS3	9.50	28	11.32	30	-0.4	100	-0.4	NA	NA	976.2	NA	NA		M	NA	NA	NA	NA
2019/11/11 09:55:01	AWS3	9.73	28	11.32	30	-0.4	100	-0.4	NA	NA	976.2	NA	NA		M	NA	NA	NA	NA
2019/11/11 09:56:01	AWS3	9.47	29	11.32	30	-0.4	100	-0.4	NA	NA	976.3	NA	NA		M	NA	NA	NA	NA
2019/11/11 09:57:01	AWS3	9.59	31	11.32	30	-0.4	100	-0.4	NA	NA	976.2	NA	NA		M	NA	NA	NA	NA
2019/11/11 09:58:01	AWS3	10.18	30	11.88	30	-0.4	100	-0.4	NA	NA	976.1	NA	NA		M	NA	NA	NA	NA
2019/11/11 09:59:01	AWS3	9.88	29	11.88	30	-0.4	100	-0.4	NA	NA	976.2	NA	NA		M	NA	NA	NA	NA
2019/11/11 10:00:01	AWS3	9.23	28	11.88	30	-0.4	100	-0.4	NA	NA	976.2	NA	NA		M	NA	NA	NA	NA
2019/11/11 10:01:01	AWS3	9.77	27	11.88	30	-0.4	100	-0.4	NA	NA	976.2	NA	NA		M	NA	NA	NA	NA
2019/11/11 10:02:01	AWS3	10.13	27	11.88	30	-0.4	100	-0.4	NA	NA	976.1	NA	NA		M	NA	NA	NA	NA
2019/11/11 10:03:01	AWS3	10.12	25	11.88	30	-0.4	100	-0.4	NA	NA	976.0	NA	NA		M	NA	NA	NA	NA
2019/11/11 10:04:01	AWS3	9.72	28	11.88	30	-0.4	100	-0.4	NA	NA	976.1	NA	NA		M	NA	NA	NA	NA
2019/11/11 10:05:01	AWS3	9.44	28	11.88	30	-0.4	100	-0.4	NA	NA	976.0	NA	NA		M	NA	NA	NA	NA
2019/11/11 10:06:01	AWS3	9.82	28	11.88	30	-0.4	100	-0.4	NA	NA	976.0	NA	NA		M	NA	NA	NA	NA
2019/11/11 10:07:01	AWS3	9.97	31	11.88	30	-0.4	100	-0.4	NA	NA	976.2	NA	NA		M	NA	NA	NA	NA
2019/11/11 10:08:01	AWS3	9.42	30	11.42	31	-0.4	100	-0.4	NA	NA	976.3	NA	NA		M	NA	NA	NA	NA
2019/11/11 10:09:01	AWS3	9.35	29	11.42	31	-0.4	100	-0.4	NA	NA	976.0	NA	NA		M	NA	NA	NA	NA
2019/11/11 10:10:01	AWS3	10.28	28	12.30	26	-0.4	100	-0.4	NA	NA	976.0	NA	NA		M	NA	NA	NA	NA
2019/11/11 10:11:01	AWS3	10.24	28	12.30	26	-0.4	100	-0.4	NA	NA	976.0	NA	NA		M	NA	NA	NA	NA
2019/11/11 10:12:01	AWS3	9.89	29	12.30	26	-0.4	100	-0.4	NA	NA	975.9	NA	NA		M	NA	NA	NA	NA
2019/11/11 10:13:01	AWS3	10.48	30	12.30	26	-0.4	100	-0.4	NA	NA	975.9	NA	NA		M	NA	NA	NA	NA
2019/11/11 10:14:01	AWS3	10.42	29	12.30	26	-0.4	100	-0.4	NA	NA	976.0	NA	NA		M	NA	NA	NA	NA
2019/11/11 10:15:01	AWS3	9.35	31	12.30	26	-0.4	100	-0.4	NA	NA	976.1	NA	NA		M	NA	NA	NA	NA
2019/11/11 10:16:00	AWS3	8.85	30	12.30	26	-0.4	100	-0.4	NA	NA	976.2	NA	NA		M	NA	NA	NA	NA
2019/11/11 10:17:01	AWS3	9.48	27	12.30	26	-0.4	100	-0.4	NA	NA	976.0	NA	NA		M	NA	NA	NA	NA
2019/11/11 10:18:01	AWS3	9.65	29	12.30	26	-0.4	100	-0.4	NA	NA	976.1	NA	NA		M	NA	NA	NA	NA
2019/11/11 10:19:00	AWS3	8.98	30	12.30	26	-0.4	100	-0.4	NA	NA	976.2	NA	NA		M	NA	NA	NA	NA
2019/11/11 10:20:01	AWS3	9.39	31	11.57	27	-0.4	100	-0.4	NA	NA	975.9	NA	NA		M	NA	NA	NA	NA
2019/11/11 10:21:00	AWS3	10.08	29	11.88	27	-0.4	100	-0.4	NA	NA	975.9	NA	NA		M	NA	NA	NA	NA
2019/11/11 10:22:01	AWS3	9.89	27	11.88	27	-0.4	100	-0.4	NA	NA	976.0	NA	NA		M	NA	NA	NA	NA
2019/11/11 10:23:01	AWS3	9.59	26	11.88	27	-0.4	100	-0.4	NA	NA	975.9	NA	NA		M	NA	NA	NA	NA
2019/11/11 10:24:01	AWS3	9.92	25	12.35	26	-0.4	100	-0.4	NA	NA	975.9	NA	NA		M	NA	NA	NA	NA
2019/11/11 10:25:01	AWS3	10.78	26	12.50	19	-0.4	100	-0.4	NA	NA	975.7	NA	NA		M	NA	NA	NA	NA
2019/11/11 10:26:01	AWS3	10.43	28	12.50	19	-0.4	100	-0.4	NA	NA	975.9	NA	NA		M	NA	NA	NA	NA
2019/11/11 10:27:01	AWS3	9.40	27	12.50	19	-0.4	100	-0.4	NA	NA	976.0	NA	NA		M	NA	NA	NA	NA
2019/11/11 10:28:01	AWS3	9.55	30	12.50	19	-0.4	100	-0.4	NA	NA	975.9	NA	NA		M	NA	NA	NA	NA
2019/11/11 10:29:01	AWS3	10.35	30	12.50	19	-0.4	100	-0.4	NA	NA	975.7	NA	NA		M	NA	NA	NA	NA
2019/11/11 10:30:01	AWS3	10.25	28	12.50	19	-0.4	100	-0.4	NA	NA	975.9	NA	NA		M	NA	NA	NA	NA
2019/11/11 10:31:02	AWS3	10.33	29	12.50	19	-0.4	100	-0.4	NA	NA	975.7	NA	NA		M	NA	NA	NA	NA
2019/11/11 10:32:02	AWS3	10.73	29	12.50	19	-0.5	100	-0.5	NA	NA	975.8	NA	NA		M	NA	NA	NA	NA
2019/11/11 10:33:01	AWS3	9.98	29	12.50	19	-0.5	100	-0.5	NA	NA	975.9	NA	NA		M	NA	NA	NA	NA
2019/11/11 10:34:01	AWS3	10.20	28	12.50	19	-0.5	100	-0.5	NA	NA	975.4	NA	NA		M	NA	NA	NA	NA
2019/11/11 10:35:01	AWS3	10.52	29	12.35	31	-0.5	100	-0.5	NA	NA	975.7	NA	NA		M	NA	NA	NA	NA
2019/11/11 10:36:01	AWS3	10.07	28	12.35	31	-0.5	100	-0.5	NA	NA	975.6	NA	NA		M	NA	NA	NA	NA
2019/11/11 10:37:01	AWS3	9.89	30	12.35	31	-0.5	100	-0.5	NA	NA	975.7	NA	NA		M	NA	NA	NA	NA
2019/11/11 10:38:01	AWS3	9.53	32	12.35	31	-0.5	100	-0.5	NA	NA	975.8	NA	NA		M	NA	NA	NA	NA
2019/11/11 10:39:01	AWS3	9.77	28	12.35	31	-0.5	100	-0.5	NA	NA	975.7	NA	NA		M	NA	NA	NA	NA
2019/11/11 10:40:01	AWS3	10.23	29	12.40	32	-0.5	100	-0.5	NA	NA	975.6	NA	NA		M	NA	NA	NA	NA
2019/11/11 10:41:01	AWS3	10.78	30	12.40	32	-0.5	100	-0.5	NA	NA	975.4	NA	NA		M	NA	NA	NA	NA
2019/11/11 10:42:00	AWS3	11.00	27	12.40	32	-0.5	100	-0.5	NA	NA	975.5	NA	NA		M	NA	NA	NA	NA
2019/11/11 10:43:02	AWS3	10.41	28	12.40	32	-0.5	100	-0.5	NA	NA	975.7	NA	NA		M	NA	NA	NA	NA
2019/11/11 10:44:01	AWS3	10.26	29	12.40	32	-0.5	100	-0.5	NA	NA	975.5	NA	NA		M	NA	NA	NA	NA
2019/11/11 10:45:01	AWS3	10.48	30	12.40	32	-0.5	100	-0.5	NA	NA	975.7	NA	NA		M	NA	NA	NA	NA
2019/11/11 10:46:01	AWS3	9.82	30	12.40	32	-0.5	100	-0.5	NA	NA	975.8	NA	NA		M	NA	NA	NA	NA
2019/11/11 10:47:01	AWS3	9.14	29	12.40	32	-0.5	100	-0.5	NA	NA	975.8	NA	NA		M	NA	NA	NA	NA
2019/11/11 10:48:02	AWS3	9.29	30	12.40	32	-0.5	100	-0.5	NA	NA	975.7	NA	NA		M	NA	NA	NA	NA
2019/11/11 10:49:01	AWS3	10.03	31	12.40	32	-0.5	100	-0.5	NA	NA	975.8	NA	NA		M	NA	NA	NA	NA
2019/11/11 10:50:01	AWS3	9.75	28	12.04	28	-0.5	100	-0.5	NA	NA	976.0	NA	NA		M	NA	NA	NA	NA
2019/11/11 10:51:02	AWS3	9.41	28	11.94	23	-0.5	100	-0.5	NA	NA	975.8	NA	NA		M	NA	NA	NA	NA
2019/11/11 10:52:01	AWS3	10.03	28	11.37	28	-0.5	100	-0.5	NA	NA	975.8	NA	NA		M	NA	NA	NA	NA
2019/11/11 10:53:01	AWS3	9.83	25	11.37	28	-0.5	100	-0.5	NA	NA	975.9	NA	NA		M	NA	NA	NA	NA
2019/11/11 10:54:01	AWS3	9.41	24	11.37	28	-0.5	100	-0.5	NA	NA	975.9	NA	NA		M	NA	NA	NA	NA
2019/11/11 10:55:01	AWS3	9.50	26	11.37	28	-0.5	100	-0.5	NA	NA	975.8	NA	NA		M	NA	NA	NA	NA
2019/11/11 10:56:01	AWS3	9.72	26	11.37	28	-0.6	100	-0.6	NA	NA	975.8	NA	NA		M	NA	NA	NA	NA
2019/11/11 10:57:01	AWS3	9.19	25	11.37	28	-0.6	100	-0.6	NA	NA	976.0	NA	NA		M	NA	NA	NA	NA
2019/11/11 10:58:01	AWS3	8.61	26	11.37	28	-0.6	100	-0.6	NA	NA	976.0	NA	NA		M	NA	NA	NA	NA
2019/11/11 10:59:02	AWS3	8.33	24	11.37	28	-0.6	100	-0.6	NA	NA	976.0	NA	NA		M	NA	NA	NA	NA
2019/11/11 11:00:02	AWS3	8.12	23	11.37	28	-0.6	100	-0.6	NA	NA	976.1	NA	NA		M	NA	NA	NA	NA
2019/11/11 11:01:01	AWS3	8.06	26	11.37	28	-0.6	100	-0.6	NA	NA	976.1	NA	NA		M	NA	NA	NA	NA
2019/11/11 11:02:01	AWS3	7.71	24	10.91	15	-0.6	100	-0.6	NA	NA	976.0	NA	NA		M	NA	NA	NA	NA
2019/11/11 11:03:01	AWS3	7.82	23	10.80	28	-0.6	100	-0.6	NA	NA	976.0	NA	NA		M	NA	NA	NA	NA
2019/11/11 11:04:02	AWS3	7.98	24	10.80	28	-0.6	100	-0.6	NA	NA	975.9	NA	NA		M	NA	NA	NA	NA
2019/11/11 11:05:01	AWS3	7.78	21	10.55	29	-0.6	100	-0.6	NA	NA	976.0	NA	NA		M	NA	NA	NA	NA
2019/11/11 11:06:01	AWS3	7.70	19	9.47	26	-0.6	100	-0.6	NA	NA	976.0	NA	NA		M	NA	NA	NA	NA
2019/11/11 11:07:01	AWS3	7.56	17	9.47	26	-0.6	100	-0.6	NA	NA	976.0	NA	NA		M	NA	NA	NA	NA
2019/11/11 11:08:01	AWS3	7.50	17	9.47	26	-0.6	100	-0.6	NA	NA	976.0	NA	NA		M	NA	NA	NA	NA
2019/11/11 11:09:01	AWS3	7.85	20	9.21	25	-0.6	100	-0.6	NA	NA	975.9	NA	NA		M	NA	NA	NA	NA
2019/11/11 11:10:01	AWS3	7.60	16	9.16	15	-0.6	100	-0.6	NA	NA	976.0	NA	NA		M	NA	NA	NA	NA
2019/11/11 11:11:01	AWS3	7.48	17	9.16	15	-0.6	100	-0.6	NA	NA	976.0	NA	NA		M	NA	NA	NA	NA
2019/11/11 11:12:01	AWS3	7.37	19	9.16	15	-0.6	100	-0.6	NA	NA	975.9	NA	NA		M	NA	NA	NA	NA
2019/11/11 11:13:01	AWS3	7.23	16	9.16	15	-0.6	100	-0.6	NA	NA	975.9	NA	NA		M	NA	NA	NA	NA
2019/11/11 11:14:01	AWS3	7.09	11	9.16	15	-0.6	100	-0.6	NA	NA	976.0	NA	NA		M	NA	NA	NA	NA
2019/11/11 11:15:01	AWS3	6.16	12	9.16	15	-0.6	100	-0.6	NA	NA	976.2	NA	NA		M	NA	NA	NA	NA
2019/11/11 11:16:01	AWS3	5.92	13	9.16	15	-0.6	100	-0.6	NA	NA	976.1	NA	NA		M	NA	NA	NA	NA
2019/11/11 11:17:01	AWS3	6.21	11	9.11	17	-0.6	100	-0.6	NA	NA	976.1	NA	NA		M	NA	NA	NA	NA
2019/11/11 11:18:01	AWS3	6.63	13	9.11	17	-0.5	100	-0.5	NA	NA	976.1	NA	NA		M	NA	NA	NA	NA
2019/11/11 11:19:01	AWS3	6.72	12	8.39	15	-0.5	100	-0.5	NA	NA	976.1	NA	NA		M	NA	NA	NA	NA
2019/11/11 11:20:02	AWS3	6.04	9	8.39	15	-0.5	100	-0.5	NA	NA	976.2	NA	NA		M	NA	NA	NA	NA
2019/11/11 11:21:01	AWS3	5.62	10	8.39	15	-0.5	100	-0.5	NA	NA	976.2	NA	NA		M	NA	NA	NA	NA
2019/11/11 11:22:01	AWS3	5.76	10	8.39	15	-0.5	100	-0.5	NA	NA	976.0	NA	NA		M	NA	NA	NA	NA
2019/11/11 11:23:02	AWS3	5.77	8	8.08	6	-0.5	100	-0.5	NA	NA	976.1	NA	NA		M	NA	NA	NA	NA
2019/11/11 11:24:01	AWS3	5.44	9	8.08	6	-0.5	100	-0.5	NA	NA	976.1	NA	NA		M	NA	NA	NA	NA
2019/11/11 11:25:01	AWS3	4.93	7	8.08	6	-0.5	100	-0.5	NA	NA	976.2	NA	NA		M	NA	NA	NA	NA
2019/11/11 11:26:02	AWS3	5.13	6	8.08	6	-0.5	100	-0.5	NA	NA	976.1	NA	NA		M	NA	NA	NA	NA
2019/11/11 11:27:02	AWS3	4.96	6	8.08	6	-0.5	100	-0.5	NA	NA	976.2	NA	NA		M	NA	NA	NA	NA
2019/11/11 11:28:01	AWS3	4.17	3	8.08	6	-0.5	100	-0.5	NA	NA	976.2	NA	NA		M	NA	NA	NA	NA
2019/11/11 11:29:02	AWS3	4.52	359	6.84	7	-0.5	100	-0.5	NA	NA	976.2	NA	NA		M	NA	NA	NA	NA
2019/11/11 11:30:01	AWS3	5.15	349	6.74	7	-0.5	100	-0.5	NA	NA	976.2	NA	NA		M	NA	NA	NA	NA
2019/11/11 11:31:02	AWS3	5.05	343	6.74	7	-0.5	100	-0.5	NA	NA	976.2	NA	NA		M	NA	NA	NA	NA
2019/11/11 11:32:01	AWS3	4.73	339	6.74	7	-0.5	100	-0.5	NA	NA	976.3	NA	NA		M	NA	NA	NA	NA
2019/11/11 11:33:01	AWS3	4.92	334	6.74	7	-0.5	100	-0.5	NA	NA	976.2	NA	NA		M	NA	NA	NA	NA
2019/11/11 11:34:01	AWS3	4.96	334	6.74	7	-0.5	100	-0.5	NA	NA	976.3	NA	NA		M	NA	NA	NA	NA
2019/11/11 11:35:01	AWS3	4.57	337	6.74	7	-0.5	100	-0.5	NA	NA	976.3	NA	NA		M	NA	NA	NA	NA
2019/11/11 11:36:01	AWS3	4.41	330	6.64	353	-0.5	100	-0.5	NA	NA	976.3	NA	NA		M	NA	NA	NA	NA
2019/11/11 11:37:02	AWS3	4.80	317	6.64	353	-0.5	100	-0.5	NA	NA	976.3	NA	NA		M	NA	NA	NA	NA
2019/11/11 11:38:01	AWS3	5.15	313	6.64	353	-0.6	100	-0.6	NA	NA	976.3	NA	NA		M	NA	NA	NA	NA
2019/11/11 11:39:01	AWS3	5.10	312	6.28	340	-0.6	100	-0.6	NA	NA	976.3	NA	NA		M	NA	NA	NA	NA
2019/11/11 11:40:00	AWS3	4.78	311	6.17	328	-0.6	100	-0.6	NA	NA	976.3	NA	NA		M	NA	NA	NA	NA
2019/11/11 11:41:01	AWS3	4.62	312	6.17	328	-0.6	100	-0.6	NA	NA	976.2	NA	NA		M	NA	NA	NA	NA
2019/11/11 11:42:00	AWS3	4.46	309	6.17	328	-0.6	100	-0.6	NA	NA	976.3	NA	NA		M	NA	NA	NA	NA
2019/11/11 11:43:01	AWS3	3.99	306	6.12	306	-0.6	100	-0.6	NA	NA	976.3	NA	NA		M	NA	NA	NA	NA
2019/11/11 11:44:01	AWS3	4.11	301	6.12	306	-0.6	100	-0.6	NA	NA	976.2	NA	NA		M	NA	NA	NA	NA
2019/11/11 11:45:01	AWS3	4.88	298	6.12	306	-0.6	100	-0.6	NA	NA	976.2	NA	NA		M	NA	NA	NA	NA
2019/11/11 11:46:01	AWS3	5.37	297	7.05	305	-0.6	100	-0.6	NA	NA	976.2	NA	NA		M	NA	NA	NA	NA
2019/11/11 11:47:01	AWS3	5.17	297	7.05	305	-0.6	100	-0.6	NA	NA	976.2	NA	NA		M	NA	NA	NA	NA
2019/11/11 11:48:02	AWS3	5.12	296	7.05	305	-0.6	100	-0.6	NA	NA	976.3	NA	NA		M	NA	NA	NA	NA
2019/11/11 11:49:01	AWS3	5.54	292	7.05	305	-0.6	100	-0.6	NA	NA	976.3	NA	NA		M	NA	NA	NA	NA
2019/11/11 11:50:00	AWS3	5.40	293	7.05	305	-0.6	100	-0.6	NA	NA	976.2	NA	NA		M	NA	NA	NA	NA
2019/11/11 11:51:01	AWS3	5.45	296	7.61	299	-0.6	100	-0.6	NA	NA	976.1	NA	NA		M	NA	NA	NA	NA
2019/11/11 11:52:01	AWS3	6.30	293	7.61	299	-0.6	100	-0.6	NA	NA	976.1	NA	NA		M	NA	NA	NA	NA
2019/11/11 11:53:01	AWS3	6.39	289	7.61	299	-0.6	100	-0.6	NA	NA	976.1	NA	NA		M	NA	NA	NA	NA
2019/11/11 11:54:01	AWS3	6.07	288	7.61	299	-0.6	100	-0.6	NA	NA	976.2	NA	NA		M	NA	NA	NA	NA
2019/11/11 11:55:01	AWS3	6.19	288	7.61	299	-0.6	100	-0.6	NA	NA	976.2	NA	NA		M	NA	NA	NA	NA
2019/11/11 11:56:02	AWS3	6.26	289	7.61	299	-0.6	100	-0.6	NA	NA	976.2	NA	NA		M	NA	NA	NA	NA
2019/11/11 11:57:01	AWS3	6.35	292	7.61	299	-0.6	100	-0.6	NA	NA	976.1	NA	NA		M	NA	NA	NA	NA
2019/11/11 11:58:01	AWS3	6.47	291	7.61	299	-0.7	100	-0.7	NA	NA	976.1	NA	NA		M	NA	NA	NA	NA
2019/11/11 11:59:01	AWS3	6.69	289	8.08	287	-0.7	100	-0.7	NA	NA	976.0	NA	NA		M	NA	NA	NA	NA
2019/11/11 12:00:02	AWS3	6.51	288	8.08	287	-0.7	100	-0.7	NA	NA	976.2	NA	NA		M	NA	NA	NA	NA
2019/11/11 12:01:02	AWS3	6.48	288	8.08	287	-0.7	100	-0.7	NA	NA	976.2	NA	NA		M	NA	NA	NA	NA
2019/11/11 12:02:01	AWS3	6.90	286	8.08	287	-0.7	100	-0.7	NA	NA	976.1	NA	NA		M	NA	NA	NA	NA
2019/11/11 12:03:01	AWS3	7.01	283	8.33	284	-0.7	100	-0.7	NA	NA	976.2	NA	NA		M	NA	NA	NA	NA
2019/11/11 12:04:02	AWS3	6.75	282	8.33	284	-0.7	100	-0.7	NA	NA	976.2	NA	NA		M	NA	NA	NA	NA
2019/11/11 12:05:01	AWS3	6.58	284	8.33	284	-0.7	100	-0.7	NA	NA	976.1	NA	NA		M	NA	NA	NA	NA
2019/11/11 12:06:01	AWS3	6.68	286	8.33	284	-0.7	100	-0.7	NA	NA	976.1	NA	NA		M	NA	NA	NA	NA
2019/11/11 12:07:01	AWS3	6.59	287	8.33	284	-0.7	100	-0.7	NA	NA	976.2	NA	NA		M	NA	NA	NA	NA
2019/11/11 12:08:01	AWS3	6.43	287	8.33	284	-0.7	100	-0.7	NA	NA	976.2	NA	NA		M	NA	NA	NA	NA
2019/11/11 12:09:01	AWS3	6.54	286	8.33	284	-0.7	100	-0.7	NA	NA	976.2	NA	NA		M	NA	NA	NA	NA
2019/11/11 12:10:01	AWS3	6.57	287	8.33	284	-0.7	100	-0.7	NA	NA	976.2	NA	NA		M	NA	NA	NA	NA
2019/11/11 12:11:02	AWS3	6.58	289	8.33	284	-0.7	100	-0.7	NA	NA	976.2	NA	NA		M	NA	NA	NA	NA
2019/11/11 12:12:01	AWS3	6.66	289	8.33	284	-0.7	100	-0.7	NA	NA	976.2	NA	NA		M	NA	NA	NA	NA
2019/11/11 12:13:01	AWS3	6.20	286	7.92	290	-0.7	100	-0.7	NA	NA	976.2	NA	NA		M	NA	NA	NA	NA
2019/11/11 12:14:01	AWS3	6.11	285	7.92	290	-0.7	100	-0.7	NA	NA	976.1	NA	NA		M	NA	NA	NA	NA
2019/11/11 12:15:02	AWS3	6.32	285	7.92	290	-0.7	100	-0.7	NA	NA	976.1	NA	NA		M	NA	NA	NA	NA
2019/11/11 12:16:01	AWS3	6.53	284	7.92	290	-0.7	100	-0.7	NA	NA	976.1	NA	NA		M	NA	NA	NA	NA
2019/11/11 12:17:01	AWS3	6.52	286	7.92	290	-0.7	100	-0.7	NA	NA	976.0	NA	NA		M	NA	NA	NA	NA
2019/11/11 12:18:01	AWS3	6.30	288	7.92	290	-0.7	100	-0.7	NA	NA	976.1	NA	NA		M	NA	NA	NA	NA
2019/11/11 12:19:01	AWS3	6.53	288	7.92	290	-0.7	100	-0.7	NA	NA	976.2	NA	NA		M	NA	NA	NA	NA
2019/11/11 12:20:01	AWS3	6.48	287	7.92	290	-0.7	100	-0.7	NA	NA	976.1	NA	NA		M	NA	NA	NA	NA
2019/11/11 12:21:01	AWS3	6.44	286	7.82	285	-0.7	100	-0.7	NA	NA	976.1	NA	NA		M	NA	NA	NA	NA
2019/11/11 12:22:01	AWS3	6.87	287	7.82	285	-0.7	100	-0.7	NA	NA	976.1	NA	NA		M	NA	NA	NA	NA
2019/11/11 12:23:01	AWS3	6.28	287	7.82	285	-0.6	100	-0.6	NA	NA	976.2	NA	NA		M	NA	NA	NA	NA
2019/11/11 12:24:01	AWS3	5.65	287	7.82	285	-0.6	100	-0.6	NA	NA	975.9	NA	NA		M	NA	NA	NA	NA
2019/11/11 12:25:01	AWS3	5.80	289	7.82	285	-0.6	100	-0.6	NA	NA	976.2	NA	NA		M	NA	NA	NA	NA
2019/11/11 12:26:01	AWS3	5.99	290	7.82	285	-0.6	100	-0.6	NA	NA	976.1	NA	NA		M	NA	NA	NA	NA
2019/11/11 12:27:01	AWS3	6.29	290	7.82	285	-0.6	100	-0.6	NA	NA	976.2	NA	NA		M	NA	NA	NA	NA
2019/11/11 12:28:01	AWS3	6.29	288	7.82	285	-0.6	100	-0.6	NA	NA	976.1	NA	NA		M	NA	NA	NA	NA
2019/11/11 12:29:01	AWS3	5.89	285	7.82	285	-0.6	100	-0.6	NA	NA	976.2	NA	NA		M	NA	NA	NA	NA
2019/11/11 12:30:01	AWS3	5.53	284	7.82	285	-0.6	100	-0.6	NA	NA	976.3	NA	NA		M	NA	NA	NA	NA
2019/11/11 12:31:02	AWS3	5.90	287	7.67	294	-0.6	100	-0.6	NA	NA	976.2	NA	NA		M	NA	NA	NA	NA
2019/11/11 12:32:01	AWS3	6.03	286	7.67	294	-0.6	100	-0.6	NA	NA	976.2	NA	NA		M	NA	NA	NA	NA
2019/11/11 12:33:01	AWS3	5.73	287	7.67	294	-0.6	100	-0.6	NA	NA	976.2	NA	NA		M	NA	NA	NA	NA
2019/11/11 12:34:01	AWS3	5.38	288	7.67	294	-0.6	100	-0.6	NA	NA	976.3	NA	NA		M	NA	NA	NA	NA
2019/11/11 12:35:01	AWS3	5.49	289	7.67	294	-0.6	100	-0.6	NA	NA	976.0	NA	NA		M	NA	NA	NA	NA
2019/11/11 12:36:01	AWS3	5.75	290	7.67	294	-0.6	100	-0.6	NA	NA	976.3	NA	NA		M	NA	NA	NA	NA
2019/11/11 12:37:01	AWS3	5.61	291	7.67	294	-0.6	100	-0.6	NA	NA	976.1	NA	NA		M	NA	NA	NA	NA
2019/11/11 12:38:00	AWS3	5.82	288	7.67	294	-0.6	100	-0.6	NA	NA	976.2	NA	NA		M	NA	NA	NA	NA
2019/11/11 12:39:01	AWS3	6.03	288	7.67	294	-0.6	100	-0.6	NA	NA	976.2	NA	NA		M	NA	NA	NA	NA
2019/11/11 12:40:01	AWS3	6.12	287	7.67	294	-0.6	100	-0.6	NA	NA	976.1	NA	NA		M	NA	NA	NA	NA
2019/11/11 12:41:01	AWS3	5.94	286	7.67	294	-0.6	100	-0.6	NA	NA	976.3	NA	NA		M	NA	NA	NA	NA
2019/11/11 12:42:01	AWS3	6.08	290	7.15	292	-0.6	100	-0.6	NA	NA	976.0	NA	NA		M	NA	NA	NA	NA
2019/11/11 12:43:00	AWS3	6.06	289	7.15	292	-0.6	100	-0.6	NA	NA	976.4	NA	NA		M	NA	NA	NA	NA
2019/11/11 12:44:01	AWS3	5.47	285	7.15	292	-0.6	100	-0.6	NA	NA	976.4	NA	NA		M	NA	NA	NA	NA
2019/11/11 12:45:01	AWS3	5.53	283	7.15	292	-0.6	100	-0.6	NA	NA	976.3	NA	NA		M	NA	NA	NA	NA
2019/11/11 12:46:01	AWS3	5.64	284	7.15	292	-0.6	100	-0.6	NA	NA	976.4	NA	NA		M	NA	NA	NA	NA
2019/11/11 12:47:01	AWS3	5.83	288	7.15	292	-0.6	100	-0.6	NA	NA	976.2	NA	NA		M	NA	NA	NA	NA
2019/11/11 12:48:00	AWS3	5.90	288	7.15	292	-0.6	100	-0.6	NA	NA	976.4	NA	NA		M	NA	NA	NA	NA
2019/11/11 12:49:01	AWS3	5.89	285	7.15	292	-0.6	100	-0.6	NA	NA	976.4	NA	NA		M	NA	NA	NA	NA
2019/11/11 12:50:01	AWS3	6.05	284	7.15	292	-0.6	100	-0.6	NA	NA	976.4	NA	NA		M	NA	NA	NA	NA
2019/11/11 12:51:01	AWS3	5.95	286	7.15	292	-0.6	100	-0.6	NA	NA	976.3	NA	NA		M	NA	NA	NA	NA
2019/11/11 12:52:01	AWS3	5.64	287	7.05	293	-0.6	100	-0.6	NA	NA	976.4	NA	NA		M	NA	NA	NA	NA
2019/11/11 12:53:01	AWS3	5.47	285	7.05	293	-0.6	100	-0.6	NA	NA	976.5	NA	NA		M	NA	NA	NA	NA
2019/11/11 12:54:02	AWS3	5.33	288	7.05	293	-0.6	100	-0.6	NA	NA	976.4	NA	NA		M	NA	NA	NA	NA
2019/11/11 12:55:01	AWS3	5.27	289	7.05	293	-0.6	100	-0.6	NA	NA	976.5	NA	NA		M	NA	NA	NA	NA
2019/11/11 12:56:00	AWS3	5.33	286	7.05	293	-0.6	100	-0.6	NA	NA	976.5	NA	NA		M	NA	NA	NA	NA
2019/11/11 12:57:01	AWS3	5.00	289	6.79	287	-0.6	100	-0.6	NA	NA	976.5	NA	NA		M	NA	NA	NA	NA
2019/11/11 12:58:01	AWS3	4.70	291	6.79	287	-0.5	100	-0.5	NA	NA	976.5	NA	NA		M	NA	NA	NA	NA
2019/11/11 12:59:01	AWS3	4.54	296	6.79	287	-0.5	100	-0.5	NA	NA	976.5	NA	NA		M	NA	NA	NA	NA
2019/11/11 13:00:01	AWS3	4.38	299	6.79	287	-0.5	100	-0.5	NA	NA	976.6	NA	NA		M	NA	NA	NA	NA
2019/11/11 13:01:01	AWS3	4.41	301	6.17	289	-0.5	100	-0.5	NA	NA	976.5	NA	NA		M	NA	NA	NA	NA
2019/11/11 13:02:01	AWS3	4.23	304	6.17	289	-0.5	100	-0.5	NA	NA	976.5	NA	NA		M	NA	NA	NA	NA
2019/11/11 13:03:01	AWS3	4.07	304	6.17	289	-0.5	100	-0.5	NA	NA	976.6	NA	NA		M	NA	NA	NA	NA
2019/11/11 13:04:02	AWS3	3.83	305	6.17	289	-0.5	100	-0.5	NA	NA	976.5	NA	NA		M	NA	NA	NA	NA
2019/11/11 13:05:00	AWS3	3.53	307	6.02	281	-0.5	100	-0.5	NA	NA	976.6	NA	NA		M	NA	NA	NA	NA
2019/11/11 13:06:01	AWS3	3.61	308	5.50	302	-0.5	100	-0.5	NA	NA	976.6	NA	NA		M	NA	NA	NA	NA
2019/11/11 13:07:01	AWS3	3.72	309	5.50	302	-0.5	100	-0.5	NA	NA	976.6	NA	NA		M	NA	NA	NA	NA
2019/11/11 13:08:01	AWS3	3.71	312	5.50	302	-0.5	100	-0.5	NA	NA	976.6	NA	NA		M	NA	NA	NA	NA
2019/11/11 13:09:00	AWS3	3.74	311	5.09	302	-0.5	100	-0.5	NA	NA	976.6	NA	NA		M	NA	NA	NA	NA
2019/11/11 13:10:00	AWS3	3.68	314	5.09	302	-0.5	100	-0.5	NA	NA	976.6	NA	NA		M	NA	NA	NA	NA
2019/11/11 13:11:01	AWS3	3.73	317	4.78	323	-0.5	100	-0.5	NA	NA	976.5	NA	NA		M	NA	NA	NA	NA
2019/11/11 13:12:01	AWS3	4.03	317	4.78	323	-0.5	100	-0.5	NA	NA	976.6	NA	NA		M	NA	NA	NA	NA
2019/11/11 13:13:01	AWS3	4.04	315	4.78	313	-0.5	100	-0.5	NA	NA	976.6	NA	NA		M	NA	NA	NA	NA
2019/11/11 13:14:01	AWS3	4.23	311	5.09	310	-0.5	100	-0.5	NA	NA	976.6	NA	NA		M	NA	NA	NA	NA
2019/11/11 13:15:00	AWS3	4.15	314	5.09	310	-0.5	100	-0.5	NA	NA	976.6	NA	NA		M	NA	NA	NA	NA
2019/11/11 13:16:02	AWS3	4.05	319	5.30	323	-0.5	100	-0.5	NA	NA	976.6	NA	NA		M	NA	NA	NA	NA
2019/11/11 13:17:01	AWS3	4.38	320	5.30	323	-0.5	100	-0.5	NA	NA	976.5	NA	NA		M	NA	NA	NA	NA
2019/11/11 13:18:01	AWS3	4.46	320	5.56	309	-0.5	100	-0.5	NA	NA	976.5	NA	NA		M	NA	NA	NA	NA
2019/11/11 13:19:01	AWS3	3.98	318	5.56	309	-0.5	100	-0.5	NA	NA	976.6	NA	NA		M	NA	NA	NA	NA
2019/11/11 13:20:01	AWS3	3.84	314	5.56	309	-0.5	100	-0.5	NA	NA	976.6	NA	NA		M	NA	NA	NA	NA
2019/11/11 13:21:01	AWS3	4.07	307	5.56	309	-0.5	100	-0.5	NA	NA	976.6	NA	NA		M	NA	NA	NA	NA
2019/11/11 13:22:01	AWS3	4.14	307	5.56	309	-0.5	100	-0.5	NA	NA	976.6	NA	NA		M	NA	NA	NA	NA
2019/11/11 13:23:01	AWS3	4.25	308	5.56	309	-0.5	100	-0.5	NA	NA	976.6	NA	NA		M	NA	NA	NA	NA
2019/11/11 13:24:01	AWS3	3.81	307	5.56	309	-0.5	100	-0.5	NA	NA	976.6	NA	NA		M	NA	NA	NA	NA
2019/11/11 13:25:01	AWS3	3.69	306	5.56	309	-0.5	100	-0.5	NA	NA	976.6	NA	NA		M	NA	NA	NA	NA
2019/11/11 13:26:02	AWS3	4.16	298	5.56	309	-0.5	100	-0.5	NA	NA	976.6	NA	NA		M	NA	NA	NA	NA
2019/11/11 13:27:02	AWS3	4.13	295	5.56	309	-0.5	100	-0.5	NA	NA	976.6	NA	NA		M	NA	NA	NA	NA
2019/11/11 13:28:01	AWS3	4.30	293	5.25	282	-0.4	100	-0.4	NA	NA	976.5	NA	NA		M	NA	NA	NA	NA
2019/11/11 13:29:02	AWS3	4.42	291	5.25	282	-0.4	100	-0.4	NA	NA	976.6	NA	NA		M	NA	NA	NA	NA
2019/11/11 13:30:01	AWS3	4.44	290	5.35	287	-0.4	100	-0.4	NA	NA	976.6	NA	NA		M	NA	NA	NA	NA
2019/11/11 13:31:03	AWS3	5.09	290	6.38	291	-0.4	100	-0.4	NA	NA	976.5	NA	NA		M	NA	NA	NA	NA
2019/11/11 13:32:02	AWS3	5.72	292	6.53	287	-0.4	100	-0.4	NA	NA	976.5	NA	NA		M	NA	NA	NA	NA
2019/11/11 13:33:01	AWS3	6.02	287	7.15	285	-0.4	100	-0.4	NA	NA	976.5	NA	NA		M	NA	NA	NA	NA
2019/11/11 13:34:01	AWS3	5.85	287	7.15	285	-0.4	100	-0.4	NA	NA	976.5	NA	NA		M	NA	NA	NA	NA
2019/11/11 13:35:01	AWS3	5.60	288	7.15	285	-0.3	100	-0.3	NA	NA	976.5	NA	NA		M	NA	NA	NA	NA
2019/11/11 13:36:01	AWS3	5.49	286	7.15	285	-0.3	100	-0.3	NA	NA	976.5	NA	NA		M	NA	NA	NA	NA
2019/11/11 13:37:01	AWS3	5.40	287	7.15	285	-0.3	100	-0.3	NA	NA	976.5	NA	NA		M	NA	NA	NA	NA
2019/11/11 13:38:01	AWS3	6.01	289	7.97	289	-0.3	100	-0.3	NA	NA	976.3	NA	NA		M	NA	NA	NA	NA
2019/11/11 13:39:01	AWS3	6.47	284	7.97	289	-0.3	100	-0.3	NA	NA	976.5	NA	NA		M	NA	NA	NA	NA
2019/11/11 13:40:01	AWS3	6.17	283	7.97	289	-0.3	100	-0.3	NA	NA	976.5	NA	NA		M	NA	NA	NA	NA
2019/11/11 13:41:01	AWS3	6.30	288	7.97	289	-0.3	100	-0.3	NA	NA	976.4	NA	NA		M	NA	NA	NA	NA
2019/11/11 13:42:01	AWS3	6.54	286	8.03	280	-0.3	100	-0.3	NA	NA	976.5	NA	NA		M	NA	NA	NA	NA
2019/11/11 13:43:01	AWS3	6.62	284	8.03	280	-0.3	100	-0.3	NA	NA	976.5	NA	NA		M	NA	NA	NA	NA
2019/11/11 13:44:01	AWS3	6.84	283	8.03	280	-0.3	100	-0.3	NA	NA	976.5	NA	NA		M	NA	NA	NA	NA
2019/11/11 13:45:01	AWS3	6.61	284	8.03	280	-0.3	100	-0.3	NA	NA	976.5	NA	NA		M	NA	NA	NA	NA
2019/11/11 13:46:01	AWS3	6.42	285	8.03	280	-0.3	100	-0.3	NA	NA	976.5	NA	NA		M	NA	NA	NA	NA
2019/11/11 13:47:02	AWS3	6.51	283	8.03	280	-0.3	100	-0.3	NA	NA	976.5	NA	NA		M	NA	NA	NA	NA
2019/11/11 13:48:01	AWS3	6.13	286	8.03	280	-0.2	100	-0.2	NA	NA	976.5	NA	NA		M	NA	NA	NA	NA
2019/11/11 13:49:01	AWS3	5.82	286	8.03	280	-0.2	100	-0.2	NA	NA	976.5	NA	NA		M	NA	NA	NA	NA
2019/11/11 13:50:00	AWS3	6.12	286	8.03	280	-0.2	100	-0.2	NA	NA	976.5	NA	NA		M	NA	NA	NA	NA
2019/11/11 13:51:01	AWS3	6.53	286	8.03	280	-0.2	100	-0.2	NA	NA	976.4	NA	NA		M	NA	NA	NA	NA
2019/11/11 13:52:01	AWS3	6.27	283	7.67	286	-0.2	100	-0.2	NA	NA	976.5	NA	NA		M	NA	NA	NA	NA
2019/11/11 13:53:01	AWS3	6.07	283	7.67	286	-0.2	100	-0.2	NA	NA	976.5	NA	NA		M	NA	NA	NA	NA
2019/11/11 13:54:01	AWS3	5.94	284	7.25	281	-0.2	100	-0.2	NA	NA	976.5	NA	NA		M	NA	NA	NA	NA
2019/11/11 13:55:01	AWS3	5.68	285	7.25	281	-0.2	100	-0.2	NA	NA	976.5	NA	NA		M	NA	NA	NA	NA
2019/11/11 13:56:02	AWS3	5.74	283	7.25	281	-0.2	100	-0.2	NA	NA	976.5	NA	NA		M	NA	NA	NA	NA
2019/11/11 13:57:01	AWS3	6.11	281	7.56	285	-0.2	100	-0.2	NA	NA	976.5	NA	NA		M	NA	NA	NA	NA
2019/11/11 13:58:01	AWS3	6.19	283	7.56	285	-0.2	100	-0.2	NA	NA	976.5	NA	NA		M	NA	NA	NA	NA
2019/11/11 13:59:02	AWS3	5.84	284	7.56	285	-0.2	100	-0.2	NA	NA	976.6	NA	NA		M	NA	NA	NA	NA
2019/11/11 14:00:02	AWS3	5.45	284	7.56	285	-0.2	100	-0.2	NA	NA	976.4	NA	NA		M	NA	NA	NA	NA
2019/11/11 14:01:01	AWS3	5.31	288	7.56	285	-0.2	100	-0.2	NA	NA	976.5	NA	NA		M	NA	NA	NA	NA
2019/11/11 14:02:00	AWS3	5.67	289	7.56	285	-0.2	100	-0.2	NA	NA	976.5	NA	NA		M	NA	NA	NA	NA
2019/11/11 14:03:00	AWS3	5.66	286	7.56	285	-0.2	100	-0.2	NA	NA	976.6	NA	NA		M	NA	NA	NA	NA
2019/11/11 14:04:00	AWS3	5.69	287	7.56	285	-0.2	100	-0.2	NA	NA	976.5	NA	NA		M	NA	NA	NA	NA
2019/11/11 14:05:01	AWS3	5.66	290	7.56	285	-0.2	100	-0.2	NA	NA	976.6	NA	NA		M	NA	NA	NA	NA
2019/11/11 14:06:01	AWS3	5.71	291	7.56	285	-0.2	100	-0.2	NA	NA	976.5	NA	NA		M	NA	NA	NA	NA
2019/11/11 14:07:01	AWS3	5.80	291	7.05	282	-0.2	100	-0.2	NA	NA	976.6	NA	NA		M	NA	NA	NA	NA
2019/11/11 14:08:01	AWS3	5.86	291	7.05	282	-0.2	100	-0.2	NA	NA	976.6	NA	NA		M	NA	NA	NA	NA
2019/11/11 14:09:01	AWS3	5.76	290	7.05	282	-0.2	100	-0.2	NA	NA	976.6	NA	NA		M	NA	NA	NA	NA
2019/11/11 14:10:00	AWS3	5.43	290	7.05	282	-0.2	100	-0.2	NA	NA	976.5	NA	NA		M	NA	NA	NA	NA
2019/11/11 14:11:00	AWS3	5.71	289	7.05	282	-0.2	100	-0.2	NA	NA	976.7	NA	NA		M	NA	NA	NA	NA
2019/11/11 14:12:01	AWS3	5.76	286	7.05	282	-0.2	100	-0.2	NA	NA	976.6	NA	NA		M	NA	NA	NA	NA
2019/11/11 14:13:01	AWS3	5.19	290	7.05	282	-0.2	100	-0.2	NA	NA	976.7	NA	NA		M	NA	NA	NA	NA
2019/11/11 14:14:00	AWS3	4.85	294	7.00	295	-0.2	100	-0.2	NA	NA	976.7	NA	NA		M	NA	NA	NA	NA
2019/11/11 14:15:01	AWS3	4.98	293	7.00	295	-0.2	100	-0.2	NA	NA	976.7	NA	NA		M	NA	NA	NA	NA
2019/11/11 14:16:00	AWS3	5.21	294	6.79	286	-0.1	100	-0.1	NA	NA	976.7	NA	NA		M	NA	NA	NA	NA
2019/11/11 14:17:01	AWS3	4.98	295	6.79	286	-0.1	100	-0.1	NA	NA	976.7	NA	NA		M	NA	NA	NA	NA
2019/11/11 14:18:01	AWS3	4.69	294	6.79	286	-0.1	100	-0.1	NA	NA	976.7	NA	NA		M	NA	NA	NA	NA
2019/11/11 14:19:01	AWS3	4.86	294	6.79	286	-0.1	100	-0.1	NA	NA	976.6	NA	NA		M	NA	NA	NA	NA
2019/11/11 14:20:01	AWS3	5.09	297	6.79	286	-0.1	100	-0.1	NA	NA	976.6	NA	NA		M	NA	NA	NA	NA
2019/11/11 14:21:00	AWS3	5.32	294	6.17	277	-0.1	100	-0.1	NA	NA	976.5	NA	NA		M	NA	NA	NA	NA
2019/11/11 14:22:01	AWS3	5.50	291	6.12	286	-0.1	100	-0.1	NA	NA	976.3	NA	NA		M	NA	NA	NA	NA
2019/11/11 14:23:01	AWS3	5.28	291	6.12	286	-0.1	100	-0.1	NA	NA	976.6	NA	NA		M	NA	NA	NA	NA
2019/11/11 14:24:01	AWS3	5.56	290	6.84	286	-0.1	100	-0.1	NA	NA	976.4	NA	NA		M	NA	NA	NA	NA
2019/11/11 14:25:01	AWS3	5.81	291	6.84	286	-0.1	100	-0.1	NA	NA	976.5	NA	NA		M	NA	NA	NA	NA
2019/11/11 14:26:01	AWS3	6.42	291	8.03	290	-0.1	100	-0.1	NA	NA	976.5	NA	NA		M	NA	NA	NA	NA
2019/11/11 14:27:01	AWS3	6.86	291	8.03	290	-0.1	100	-0.1	NA	NA	976.3	NA	NA		M	NA	NA	NA	NA
2019/11/11 14:28:01	AWS3	6.29	290	8.03	290	-0.1	100	-0.1	NA	NA	976.5	NA	NA		M	NA	NA	NA	NA
2019/11/11 14:29:01	AWS3	6.28	288	8.03	290	-0.1	100	-0.1	NA	NA	976.3	NA	NA		M	NA	NA	NA	NA
2019/11/11 14:30:01	AWS3	6.46	289	8.03	290	-0.1	100	-0.1	NA	NA	976.5	NA	NA		M	NA	NA	NA	NA
2019/11/11 14:31:02	AWS3	6.59	288	8.03	290	-0.1	100	-0.1	NA	NA	976.2	NA	NA		M	NA	NA	NA	NA
2019/11/11 14:32:01	AWS3	6.46	291	8.03	290	-0.1	100	-0.1	NA	NA	976.6	NA	NA		M	NA	NA	NA	NA
2019/11/11 14:33:01	AWS3	6.08	292	8.03	290	-0.1	100	-0.1	NA	NA	976.6	NA	NA		M	NA	NA	NA	NA
2019/11/11 14:34:01	AWS3	5.91	291	8.03	290	-0.1	100	-0.1	NA	NA	976.6	NA	NA		M	NA	NA	NA	NA
2019/11/11 14:35:01	AWS3	6.11	291	8.03	290	-0.1	100	-0.1	NA	NA	976.4	NA	NA		M	NA	NA	NA	NA
2019/11/11 14:36:01	AWS3	6.42	289	7.82	297	-0.1	100	-0.1	NA	NA	976.3	NA	NA		M	NA	NA	NA	NA
2019/11/11 14:37:02	AWS3	6.73	292	8.08	291	-0.1	100	-0.1	NA	NA	976.4	NA	NA		M	NA	NA	NA	NA
2019/11/11 14:38:01	AWS3	6.44	292	8.08	291	-0.1	100	-0.1	NA	NA	976.7	NA	NA		M	NA	NA	NA	NA
2019/11/11 14:39:01	AWS3	6.08	289	8.08	291	-0.1	100	-0.1	NA	NA	976.6	NA	NA		M	NA	NA	NA	NA
2019/11/11 14:40:01	AWS3	6.81	287	8.08	289	-0.1	100	-0.1	NA	NA	976.6	NA	NA		M	NA	NA	NA	NA
2019/11/11 14:41:01	AWS3	7.00	288	8.08	289	-0.1	100	-0.1	NA	NA	976.6	NA	NA		M	NA	NA	NA	NA
2019/11/11 14:42:01	AWS3	6.69	290	8.08	289	-0.1	100	-0.1	NA	NA	976.6	NA	NA		M	NA	NA	NA	NA
2019/11/11 14:43:01	AWS3	6.72	292	8.08	289	-0.1	100	-0.1	NA	NA	976.7	NA	NA		M	NA	NA	NA	NA
2019/11/11 14:44:01	AWS3	6.45	291	8.08	289	-0.1	100	-0.1	NA	NA	976.7	NA	NA		M	NA	NA	NA	NA
2019/11/11 14:45:02	AWS3	6.28	287	8.08	289	-0.1	100	-0.1	NA	NA	976.7	NA	NA		M	NA	NA	NA	NA
2019/11/11 14:46:01	AWS3	6.38	286	8.08	289	-0.1	100	-0.1	NA	NA	976.7	NA	NA		M	NA	NA	NA	NA
2019/11/11 14:47:01	AWS3	6.96	289	8.08	296	-0.1	100	-0.1	NA	NA	976.6	NA	NA		M	NA	NA	NA	NA
2019/11/11 14:48:01	AWS3	7.17	289	8.08	296	-0.1	100	-0.1	NA	NA	976.6	NA	NA		M	NA	NA	NA	NA
2019/11/11 14:49:01	AWS3	6.92	287	8.08	289	-0.1	100	-0.1	NA	NA	976.7	NA	NA		M	NA	NA	NA	NA
2019/11/11 14:50:01	AWS3	6.90	284	8.08	289	-0.1	100	-0.1	NA	NA	976.7	NA	NA		M	NA	NA	NA	NA
2019/11/11 14:51:02	AWS3	6.64	285	8.08	289	-0.1	100	-0.1	NA	NA	976.7	NA	NA		M	NA	NA	NA	NA
2019/11/11 14:52:01	AWS3	6.65	287	8.08	289	-0.1	100	-0.1	NA	NA	976.7	NA	NA		M	NA	NA	NA	NA
2019/11/11 14:53:01	AWS3	6.69	288	8.08	289	-0.1	100	-0.1	NA	NA	976.7	NA	NA		M	NA	NA	NA	NA
2019/11/11 14:54:01	AWS3	6.63	285	8.08	289	-0.1	100	-0.1	NA	NA	976.8	NA	NA		M	NA	NA	NA	NA
2019/11/11 14:55:01	AWS3	6.69	284	8.08	289	-0.1	100	-0.1	NA	NA	976.7	NA	NA		M	NA	NA	NA	NA
2019/11/11 14:56:01	AWS3	6.69	285	8.08	289	-0.1	100	-0.1	NA	NA	976.7	NA	NA		M	NA	NA	NA	NA
2019/11/11 14:57:01	AWS3	6.93	283	8.08	289	-0.1	100	-0.1	NA	NA	976.7	NA	NA		M	NA	NA	NA	NA
2019/11/11 14:58:00	AWS3	7.16	283	8.59	284	-0.1	100	-0.1	NA	NA	976.7	NA	NA		M	NA	NA	NA	NA
2019/11/11 14:59:01	AWS3	7.34	283	8.59	284	-0.1	100	-0.1	NA	NA	976.8	NA	NA		M	NA	NA	NA	NA
2019/11/11 15:00:01	AWS3	6.99	285	8.59	284	-0.1	100	-0.1	NA	NA	976.8	NA	NA		M	NA	NA	NA	NA
2019/11/11 15:01:00	AWS3	6.62	284	8.59	284	-0.1	100	-0.1	NA	NA	976.8	NA	NA		M	NA	NA	NA	NA
2019/11/11 15:02:00	AWS3	6.63	281	8.59	284	-0.1	100	-0.1	NA	NA	976.8	NA	NA		M	NA	NA	NA	NA
2019/11/11 15:03:01	AWS3	6.79	282	8.59	284	-0.1	100	-0.1	NA	NA	976.8	NA	NA		M	NA	NA	NA	NA
2019/11/11 15:04:01	AWS3	6.81	282	8.59	284	-0.1	100	-0.1	NA	NA	976.8	NA	NA		M	NA	NA	NA	NA
2019/11/11 15:05:00	AWS3	6.92	281	8.59	284	-0.1	100	-0.1	NA	NA	976.8	NA	NA		M	NA	NA	NA	NA
2019/11/11 15:06:01	AWS3	7.01	282	8.59	284	-0.1	100	-0.1	NA	NA	976.9	NA	NA		M	NA	NA	NA	NA
2019/11/11 15:07:01	AWS3	6.72	281	8.59	284	-0.1	100	-0.1	NA	NA	976.9	NA	NA		M	NA	NA	NA	NA
2019/11/11 15:08:01	AWS3	6.90	281	8.39	281	-0.1	100	-0.1	NA	NA	976.8	NA	NA		M	NA	NA	NA	NA
2019/11/11 15:09:01	AWS3	7.05	282	8.28	281	-0.1	100	-0.1	NA	NA	976.9	NA	NA		M	NA	NA	NA	NA
2019/11/11 15:10:00	AWS3	6.80	280	8.08	292	-0.1	100	-0.1	NA	NA	976.9	NA	NA		M	NA	NA	NA	NA
2019/11/11 15:11:01	AWS3	6.71	280	8.08	292	-0.1	100	-0.1	NA	NA	977.0	NA	NA		M	NA	NA	NA	NA
2019/11/11 15:12:00	AWS3	6.60	279	8.08	292	-0.1	100	-0.1	NA	NA	976.9	NA	NA		M	NA	NA	NA	NA
2019/11/11 15:13:01	AWS3	6.29	278	8.08	292	-0.1	100	-0.1	NA	NA	976.9	NA	NA		M	NA	NA	NA	NA
2019/11/11 15:14:01	AWS3	6.40	279	8.08	292	-0.1	100	-0.1	NA	NA	976.9	NA	NA		M	NA	NA	NA	NA
2019/11/11 15:15:01	AWS3	6.59	277	8.08	292	-0.1	100	-0.1	NA	NA	977.0	NA	NA		M	NA	NA	NA	NA
2019/11/11 15:16:01	AWS3	6.77	277	8.08	292	-0.1	100	-0.1	NA	NA	976.9	NA	NA		M	NA	NA	NA	NA
2019/11/11 15:17:02	AWS3	6.99	279	8.08	272	-0.1	100	-0.1	NA	NA	977.0	NA	NA		M	NA	NA	NA	NA
2019/11/11 15:18:02	AWS3	6.55	281	8.08	272	-0.1	100	-0.1	NA	NA	977.0	NA	NA		M	NA	NA	NA	NA
2019/11/11 15:19:00	AWS3	6.29	279	8.08	272	-0.1	100	-0.1	NA	NA	977.0	NA	NA		M	NA	NA	NA	NA
2019/11/11 15:20:01	AWS3	6.74	279	8.08	272	-0.1	100	-0.1	NA	NA	977.0	NA	NA		M	NA	NA	NA	NA
2019/11/11 15:21:01	AWS3	6.62	282	8.08	272	-0.1	100	-0.1	NA	NA	977.0	NA	NA		M	NA	NA	NA	NA
2019/11/11 15:22:01	AWS3	6.34	281	8.08	272	-0.1	100	-0.1	NA	NA	977.1	NA	NA		M	NA	NA	NA	NA
2019/11/11 15:23:01	AWS3	6.05	280	8.08	272	-0.1	100	-0.1	NA	NA	977.1	NA	NA		M	NA	NA	NA	NA
2019/11/11 15:24:01	AWS3	5.56	280	8.08	272	-0.1	100	-0.1	NA	NA	977.0	NA	NA		M	NA	NA	NA	NA
2019/11/11 15:25:01	AWS3	5.90	283	8.08	272	-0.1	100	-0.1	NA	NA	977.0	NA	NA		M	NA	NA	NA	NA
2019/11/11 15:26:01	AWS3	6.09	283	8.08	272	-0.1	100	-0.1	NA	NA	977.1	NA	NA		M	NA	NA	NA	NA
2019/11/11 15:27:01	AWS3	5.89	283	7.92	284	-0.1	100	-0.1	NA	NA	977.0	NA	NA		M	NA	NA	NA	NA
2019/11/11 15:28:01	AWS3	5.89	284	7.92	284	-0.1	100	-0.1	NA	NA	977.1	NA	NA		M	NA	NA	NA	NA
2019/11/11 15:29:01	AWS3	5.80	283	7.92	284	-0.1	100	-0.1	NA	NA	977.1	NA	NA		M	NA	NA	NA	NA
2019/11/11 15:30:01	AWS3	5.91	284	7.61	269	-0.1	100	-0.1	NA	NA	977.1	NA	NA		M	NA	NA	NA	NA
2019/11/11 15:31:02	AWS3	6.51	281	7.97	273	-0.1	100	-0.1	NA	NA	977.1	NA	NA		M	NA	NA	NA	NA
2019/11/11 15:32:02	AWS3	6.63	278	7.97	273	-0.1	100	-0.1	NA	NA	977.1	NA	NA		M	NA	NA	NA	NA
2019/11/11 15:33:02	AWS3	6.79	276	9.00	272	-0.1	100	-0.1	NA	NA	977.1	NA	NA		M	NA	NA	NA	NA
2019/11/11 15:34:01	AWS3	7.09	274	9.00	272	-0.1	100	-0.1	NA	NA	977.0	NA	NA		M	NA	NA	NA	NA
2019/11/11 15:35:01	AWS3	7.33	272	9.00	272	-0.1	100	-0.1	NA	NA	977.1	NA	NA		M	NA	NA	NA	NA
2019/11/11 15:36:01	AWS3	7.50	270	9.00	272	-0.1	100	-0.1	NA	NA	977.1	NA	NA		M	NA	NA	NA	NA
2019/11/11 15:37:01	AWS3	7.51	271	9.05	277	-0.1	100	-0.1	NA	NA	977.1	NA	NA		M	NA	NA	NA	NA
2019/11/11 15:38:01	AWS3	7.61	274	9.05	277	-0.1	100	-0.1	NA	NA	977.1	NA	NA		M	NA	NA	NA	NA
2019/11/11 15:39:01	AWS3	7.12	274	9.05	277	-0.1	100	-0.1	NA	NA	977.2	NA	NA		M	NA	NA	NA	NA
2019/11/11 15:40:01	AWS3	6.91	273	9.05	277	-0.1	100	-0.1	NA	NA	977.1	NA	NA		M	NA	NA	NA	NA
2019/11/11 15:41:01	AWS3	6.90	273	9.05	277	-0.1	100	-0.1	NA	NA	977.2	NA	NA		M	NA	NA	NA	NA
2019/11/11 15:42:00	AWS3	6.99	274	9.11	274	-0.1	100	-0.1	NA	NA	977.1	NA	NA		M	NA	NA	NA	NA
2019/11/11 15:43:01	AWS3	7.32	273	9.11	274	-0.1	100	-0.1	NA	NA	977.1	NA	NA		M	NA	NA	NA	NA
2019/11/11 15:44:01	AWS3	7.34	274	9.11	274	-0.1	100	-0.1	NA	NA	977.2	NA	NA		M	NA	NA	NA	NA
2019/11/11 15:45:02	AWS3	7.59	273	9.11	274	-0.1	100	-0.1	NA	NA	977.1	NA	NA		M	NA	NA	NA	NA
2019/11/11 15:46:01	AWS3	7.90	272	9.41	274	-0.1	100	-0.1	NA	NA	977.1	NA	NA		M	NA	NA	NA	NA
2019/11/11 15:47:00	AWS3	7.60	273	9.41	274	-0.1	100	-0.1	NA	NA	977.1	NA	NA		M	NA	NA	NA	NA
2019/11/11 15:48:00	AWS3	7.33	273	9.41	274	-0.1	100	-0.1	NA	NA	977.1	NA	NA		M	NA	NA	NA	NA
2019/11/11 15:49:01	AWS3	7.25	272	9.41	274	-0.1	100	-0.1	NA	NA	977.1	NA	NA		M	NA	NA	NA	NA
2019/11/11 15:50:01	AWS3	7.35	271	9.41	274	-0.1	100	-0.1	NA	NA	977.1	NA	NA		M	NA	NA	NA	NA
2019/11/11 15:51:01	AWS3	7.33	272	9.41	274	-0.1	100	-0.1	NA	NA	977.2	NA	NA		M	NA	NA	NA	NA
2019/11/11 15:52:01	AWS3	7.23	273	9.41	274	-0.1	100	-0.1	NA	NA	977.2	NA	NA		M	NA	NA	NA	NA
2019/11/11 15:53:01	AWS3	7.14	273	9.41	274	-0.1	100	-0.1	NA	NA	977.2	NA	NA		M	NA	NA	NA	NA
2019/11/11 15:54:01	AWS3	6.93	273	9.41	274	-0.1	100	-0.1	NA	NA	977.2	NA	NA		M	NA	NA	NA	NA
2019/11/11 15:55:01	AWS3	7.53	274	9.41	274	-0.1	100	-0.1	NA	NA	977.2	NA	NA		M	NA	NA	NA	NA
2019/11/11 15:56:01	AWS3	7.72	273	8.95	276	-0.0	100	-0.0	NA	NA	977.2	NA	NA		M	NA	NA	NA	NA
2019/11/11 15:57:01	AWS3	7.43	273	8.95	276	-0.0	100	-0.0	NA	NA	977.2	NA	NA		M	NA	NA	NA	NA
2019/11/11 15:58:01	AWS3	7.46	273	8.95	276	-0.0	100	-0.0	NA	NA	977.2	NA	NA		M	NA	NA	NA	NA
2019/11/11 15:59:01	AWS3	7.22	273	8.95	276	-0.1	100	-0.1	NA	NA	977.2	NA	NA		M	NA	NA	NA	NA
2019/11/11 16:00:00	AWS3	7.28	275	8.95	276	-0.0	100	-0.0	NA	NA	977.2	NA	NA		M	NA	NA	NA	NA
2019/11/11 16:01:01	AWS3	7.40	275	8.95	276	-0.0	100	-0.0	NA	NA	977.2	NA	NA		M	NA	NA	NA	NA
2019/11/11 16:02:00	AWS3	7.67	273	8.80	277	-0.0	100	-0.0	NA	NA	977.2	NA	NA		M	NA	NA	NA	NA
2019/11/11 16:03:01	AWS3	7.70	271	8.80	277	-0.0	100	-0.0	NA	NA	977.3	NA	NA		M	NA	NA	NA	NA
2019/11/11 16:04:01	AWS3	7.46	273	8.80	277	-0.0	100	-0.0	NA	NA	977.2	NA	NA		M	NA	NA	NA	NA
2019/11/11 16:05:01	AWS3	7.60	270	9.41	263	-0.0	100	-0.0	NA	NA	977.3	NA	NA		M	NA	NA	NA	NA
2019/11/11 16:06:01	AWS3	7.58	268	9.41	263	-0.0	100	-0.0	NA	NA	977.2	NA	NA		M	NA	NA	NA	NA
2019/11/11 16:07:01	AWS3	7.95	268	9.52	260	-0.0	100	-0.0	NA	NA	977.2	NA	NA		M	NA	NA	NA	NA
2019/11/11 16:08:00	AWS3	8.09	265	10.55	258	-0.0	100	-0.0	NA	NA	977.1	NA	NA		M	NA	NA	NA	NA
2019/11/11 16:09:01	AWS3	7.57	268	10.55	258	-0.0	100	-0.0	NA	NA	977.3	NA	NA		M	NA	NA	NA	NA
2019/11/11 16:10:00	AWS3	7.60	269	10.55	258	-0.0	100	-0.0	NA	NA	977.3	NA	NA		M	NA	NA	NA	NA
2019/11/11 16:11:00	AWS3	7.68	272	10.55	258	0.0	100	0.0	NA	NA	977.3	NA	NA		M	NA	NA	NA	NA
2019/11/11 16:12:01	AWS3	7.83	272	10.55	258	0.0	100	0.0	NA	NA	977.3	NA	NA		M	NA	NA	NA	NA
2019/11/11 16:13:02	AWS3	8.54	270	10.55	258	0.0	100	0.0	NA	NA	977.2	NA	NA		M	NA	NA	NA	NA
2019/11/11 16:14:01	AWS3	8.81	270	10.55	258	0.0	100	0.0	NA	NA	977.2	NA	NA		M	NA	NA	NA	NA
2019/11/11 16:15:01	AWS3	8.68	269	10.55	258	0.0	100	0.0	NA	NA	977.3	NA	NA		M	NA	NA	NA	NA
2019/11/11 16:16:01	AWS3	8.65	270	10.55	258	0.0	100	0.0	NA	NA	977.3	NA	NA		M	NA	NA	NA	NA
2019/11/11 16:17:01	AWS3	8.43	272	10.55	258	0.0	100	0.0	NA	NA	977.3	NA	NA		M	NA	NA	NA	NA
2019/11/11 16:18:02	AWS3	8.38	270	9.88	271	0.0	100	0.0	NA	NA	977.2	NA	NA		M	NA	NA	NA	NA
2019/11/11 16:19:01	AWS3	8.60	270	10.08	262	0.0	100	0.0	NA	NA	977.3	NA	NA		M	NA	NA	NA	NA
2019/11/11 16:20:01	AWS3	9.24	272	10.24	266	0.0	100	0.0	NA	NA	977.2	NA	NA		M	NA	NA	NA	NA
2019/11/11 16:21:01	AWS3	9.15	271	10.24	266	0.0	100	0.0	NA	NA	977.3	NA	NA		M	NA	NA	NA	NA
2019/11/11 16:22:00	AWS3	8.31	270	10.24	266	0.0	100	0.0	NA	NA	977.3	NA	NA		M	NA	NA	NA	NA
2019/11/11 16:23:00	AWS3	8.27	271	10.24	266	0.0	100	0.0	NA	NA	977.4	NA	NA		M	NA	NA	NA	NA
2019/11/11 16:24:01	AWS3	8.42	269	10.55	267	0.0	100	0.0	NA	NA	977.4	NA	NA		M	NA	NA	NA	NA
2019/11/11 16:25:01	AWS3	8.52	269	10.80	267	0.0	100	0.0	NA	NA	977.3	NA	NA		M	NA	NA	NA	NA
2019/11/11 16:26:01	AWS3	8.59	269	10.80	267	0.0	100	0.0	NA	NA	977.4	NA	NA		M	NA	NA	NA	NA
2019/11/11 16:27:01	AWS3	8.27	269	10.80	267	0.0	100	0.0	NA	NA	977.4	NA	NA		M	NA	NA	NA	NA
2019/11/11 16:28:02	AWS3	8.69	269	10.80	267	0.0	100	0.0	NA	NA	977.4	NA	NA		M	NA	NA	NA	NA
2019/11/11 16:29:01	AWS3	9.34	270	10.80	267	0.0	100	0.0	NA	NA	977.3	NA	NA		M	NA	NA	NA	NA
2019/11/11 16:30:01	AWS3	9.31	271	10.80	267	0.0	100	0.0	NA	NA	977.3	NA	NA		M	NA	NA	NA	NA
2019/11/11 16:31:02	AWS3	9.56	268	10.80	267	0.0	100	0.0	NA	NA	977.4	NA	NA		M	NA	NA	NA	NA
2019/11/11 16:32:00	AWS3	9.72	269	10.91	267	0.0	100	0.0	NA	NA	977.3	NA	NA		M	NA	NA	NA	NA
2019/11/11 16:33:01	AWS3	9.64	269	10.91	267	0.0	100	0.0	NA	NA	977.3	NA	NA		M	NA	NA	NA	NA
2019/11/11 16:34:01	AWS3	8.97	267	10.91	267	0.0	100	0.0	NA	NA	977.5	NA	NA		M	NA	NA	NA	NA
2019/11/11 16:35:00	AWS3	8.82	269	10.91	267	0.0	100	0.0	NA	NA	977.3	NA	NA		M	NA	NA	NA	NA
2019/11/11 16:36:01	AWS3	8.74	268	10.91	267	0.0	100	0.0	NA	NA	977.5	NA	NA		M	NA	NA	NA	NA
2019/11/11 16:37:01	AWS3	8.40	266	10.91	267	0.0	100	0.0	NA	NA	977.4	NA	NA		M	NA	NA	NA	NA
2019/11/11 16:38:01	AWS3	8.90	267	10.91	267	0.0	100	0.0	NA	NA	977.4	NA	NA		M	NA	NA	NA	NA
2019/11/11 16:39:02	AWS3	8.75	268	10.91	267	0.0	100	0.0	NA	NA	977.5	NA	NA		M	NA	NA	NA	NA
2019/11/11 16:40:01	AWS3	8.00	268	10.91	267	0.0	100	0.0	NA	NA	977.6	NA	NA		M	NA	NA	NA	NA
2019/11/11 16:41:02	AWS3	7.68	268	10.91	267	0.0	100	0.0	NA	NA	977.5	NA	NA		M	NA	NA	NA	NA
2019/11/11 16:42:01	AWS3	8.06	268	10.60	260	0.0	100	0.0	NA	NA	977.5	NA	NA		M	NA	NA	NA	NA
2019/11/11 16:43:01	AWS3	8.67	267	10.60	260	0.0	100	0.0	NA	NA	977.6	NA	NA		M	NA	NA	NA	NA
2019/11/11 16:44:02	AWS3	8.18	268	10.60	260	0.0	100	0.0	NA	NA	977.6	NA	NA		M	NA	NA	NA	NA
2019/11/11 16:45:01	AWS3	7.93	268	10.60	260	0.0	100	0.0	NA	NA	977.6	NA	NA		M	NA	NA	NA	NA
2019/11/11 16:46:01	AWS3	8.36	265	10.60	260	0.0	100	0.0	NA	NA	977.6	NA	NA		M	NA	NA	NA	NA
2019/11/11 16:47:01	AWS3	7.90	265	10.60	260	0.0	100	0.0	NA	NA	977.7	NA	NA		M	NA	NA	NA	NA
2019/11/11 16:48:02	AWS3	7.55	268	10.44	271	0.0	100	0.0	NA	NA	977.6	NA	NA		M	NA	NA	NA	NA
2019/11/11 16:49:01	AWS3	7.62	270	10.44	271	0.0	100	0.0	NA	NA	977.6	NA	NA		M	NA	NA	NA	NA
2019/11/11 16:50:01	AWS3	7.67	271	10.44	271	0.0	100	0.0	NA	NA	977.7	NA	NA		M	NA	NA	NA	NA
2019/11/11 16:51:01	AWS3	7.68	267	10.44	271	0.0	100	0.0	NA	NA	977.7	NA	NA		M	NA	NA	NA	NA
2019/11/11 16:52:01	AWS3	8.23	263	11.32	258	0.0	100	0.0	NA	NA	977.7	NA	NA		M	NA	NA	NA	NA
2019/11/11 16:53:01	AWS3	8.41	265	11.32	258	0.0	100	0.0	NA	NA	977.9	NA	NA		M	NA	NA	NA	NA
2019/11/11 16:54:01	AWS3	7.98	269	11.32	258	0.0	100	0.0	NA	NA	977.8	NA	NA		M	NA	NA	NA	NA
2019/11/11 16:55:02	AWS3	8.39	270	11.32	258	0.0	100	0.0	NA	NA	977.8	NA	NA		M	NA	NA	NA	NA
2019/11/11 16:56:01	AWS3	7.78	265	11.32	258	0.0	100	0.0	NA	NA	977.9	NA	NA		M	NA	NA	NA	NA
2019/11/11 16:57:02	AWS3	6.83	265	11.32	258	0.0	100	0.0	NA	NA	977.9	NA	NA		M	NA	NA	NA	NA
2019/11/11 16:58:01	AWS3	7.23	269	11.32	258	0.0	100	0.0	NA	NA	977.8	NA	NA		M	NA	NA	NA	NA
2019/11/11 16:59:01	AWS3	7.08	267	11.32	258	0.0	100	0.0	NA	NA	977.9	NA	NA		M	NA	NA	NA	NA
2019/11/11 17:00:02	AWS3	7.06	267	11.32	258	0.0	100	0.0	NA	NA	977.9	NA	NA		M	NA	NA	NA	NA
2019/11/11 17:01:01	AWS3	7.58	268	11.32	258	0.0	100	0.0	NA	NA	977.9	NA	NA		M	NA	NA	NA	NA
2019/11/11 17:02:00	AWS3	7.68	266	10.08	272	0.0	100	0.0	NA	NA	978.0	NA	NA		M	NA	NA	NA	NA
2019/11/11 17:03:01	AWS3	7.78	266	9.67	270	0.0	100	0.0	NA	NA	977.9	NA	NA		M	NA	NA	NA	NA
2019/11/11 17:04:01	AWS3	7.67	266	9.67	270	0.0	100	0.0	NA	NA	978.1	NA	NA		M	NA	NA	NA	NA
2019/11/11 17:05:00	AWS3	7.53	261	9.41	254	0.0	100	0.0	NA	NA	978.0	NA	NA		M	NA	NA	NA	NA
2019/11/11 17:06:00	AWS3	7.82	261	9.41	254	0.0	100	0.0	NA	NA	978.0	NA	NA		M	NA	NA	NA	NA
2019/11/11 17:07:01	AWS3	8.00	266	9.41	254	0.0	100	0.0	NA	NA	977.9	NA	NA		M	NA	NA	NA	NA
2019/11/11 17:08:01	AWS3	7.64	262	9.41	254	0.0	100	0.0	NA	NA	978.1	NA	NA		M	NA	NA	NA	NA
2019/11/11 17:09:01	AWS3	7.41	262	9.41	254	0.0	100	0.0	NA	NA	978.1	NA	NA		M	NA	NA	NA	NA
2019/11/11 17:10:01	AWS3	7.20	263	9.41	254	0.0	100	0.0	NA	NA	978.0	NA	NA		M	NA	NA	NA	NA
2019/11/11 17:11:01	AWS3	6.88	261	9.41	254	0.0	100	0.0	NA	NA	978.0	NA	NA		M	NA	NA	NA	NA
2019/11/11 17:12:01	AWS3	7.27	261	9.41	262	0.0	100	0.0	NA	NA	978.2	NA	NA		M	NA	NA	NA	NA
2019/11/11 17:13:01	AWS3	7.32	261	9.41	262	0.0	100	0.0	NA	NA	978.1	NA	NA		M	NA	NA	NA	NA
2019/11/11 17:14:00	AWS3	6.97	263	9.41	262	0.0	100	0.0	NA	NA	978.1	NA	NA		M	NA	NA	NA	NA
2019/11/11 17:15:01	AWS3	7.14	267	9.41	262	0.0	100	0.0	NA	NA	978.0	NA	NA		M	NA	NA	NA	NA
2019/11/11 17:16:00	AWS3	7.17	267	9.52	266	0.0	100	0.0	NA	NA	978.1	NA	NA		M	NA	NA	NA	NA
2019/11/11 17:17:01	AWS3	7.60	263	9.88	264	0.0	100	0.0	NA	NA	978.2	NA	NA		M	NA	NA	NA	NA
2019/11/11 17:18:00	AWS3	7.85	264	9.88	264	0.0	100	0.0	NA	NA	978.2	NA	NA		M	NA	NA	NA	NA
2019/11/11 17:19:01	AWS3	7.72	262	9.88	264	0.0	100	0.0	NA	NA	978.2	NA	NA		M	NA	NA	NA	NA
2019/11/11 17:20:01	AWS3	7.69	262	9.88	264	0.0	100	0.0	NA	NA	978.2	NA	NA		M	NA	NA	NA	NA
2019/11/11 17:21:00	AWS3	7.88	266	10.03	272	0.0	100	0.0	NA	NA	978.2	NA	NA		M	NA	NA	NA	NA
2019/11/11 17:22:00	AWS3	7.69	266	10.03	272	0.0	100	0.0	NA	NA	978.2	NA	NA		M	NA	NA	NA	NA
2019/11/11 17:23:01	AWS3	7.73	263	10.03	272	0.0	100	0.0	NA	NA	978.4	NA	NA		M	NA	NA	NA	NA
2019/11/11 17:24:00	AWS3	7.98	265	10.03	272	0.0	100	0.0	NA	NA	978.3	NA	NA		M	NA	NA	NA	NA
2019/11/11 17:25:01	AWS3	7.73	267	10.03	272	0.0	100	0.0	NA	NA	978.2	NA	NA		M	NA	NA	NA	NA
2019/11/11 17:26:01	AWS3	7.90	265	10.03	272	0.0	100	0.0	NA	NA	978.4	NA	NA		M	NA	NA	NA	NA
2019/11/11 17:27:01	AWS3	7.54	262	10.03	272	0.0	100	0.0	NA	NA	978.3	NA	NA		M	NA	NA	NA	NA
2019/11/11 17:28:00	AWS3	6.94	264	10.03	272	0.0	100	0.0	NA	NA	978.5	NA	NA		M	NA	NA	NA	NA
2019/11/11 17:29:01	AWS3	7.14	267	10.03	272	0.0	100	0.0	NA	NA	978.4	NA	NA		M	NA	NA	NA	NA
2019/11/11 17:30:01	AWS3	7.25	266	10.03	272	0.0	100	0.0	NA	NA	978.3	NA	NA		M	NA	NA	NA	NA
2019/11/11 17:31:02	AWS3	7.32	266	9.47	255	0.0	100	0.0	NA	NA	978.5	NA	NA		M	NA	NA	NA	NA
2019/11/11 17:32:01	AWS3	7.18	262	9.47	255	0.0	100	0.0	NA	NA	978.5	NA	NA		M	NA	NA	NA	NA
2019/11/11 17:33:01	AWS3	6.51	258	9.11	259	0.0	100	0.0	NA	NA	978.5	NA	NA		M	NA	NA	NA	NA
2019/11/11 17:34:02	AWS3	7.07	263	9.11	259	0.0	100	0.0	NA	NA	978.5	NA	NA		M	NA	NA	NA	NA
2019/11/11 17:35:02	AWS3	8.09	267	9.41	259	0.0	100	0.0	NA	NA	978.5	NA	NA		M	NA	NA	NA	NA
2019/11/11 17:36:01	AWS3	7.71	267	9.41	259	0.0	100	0.0	NA	NA	978.5	NA	NA		M	NA	NA	NA	NA
2019/11/11 17:37:01	AWS3	7.43	262	9.41	259	0.0	100	0.0	NA	NA	978.6	NA	NA		M	NA	NA	NA	NA
2019/11/11 17:38:01	AWS3	7.20	262	9.41	259	0.0	100	0.0	NA	NA	978.5	NA	NA		M	NA	NA	NA	NA
2019/11/11 17:39:01	AWS3	6.40	269	9.41	259	-0.0	100	-0.0	NA	NA	978.6	NA	NA		M	NA	NA	NA	NA
2019/11/11 17:40:01	AWS3	6.69	268	9.41	259	-0.0	100	-0.0	NA	NA	978.6	NA	NA		M	NA	NA	NA	NA
2019/11/11 17:41:01	AWS3	7.24	265	9.41	259	-0.0	100	-0.0	NA	NA	978.6	NA	NA		M	NA	NA	NA	NA
2019/11/11 17:42:01	AWS3	7.55	263	9.62	265	0.0	100	0.0	NA	NA	978.6	NA	NA		M	NA	NA	NA	NA
2019/11/11 17:43:01	AWS3	7.34	262	9.62	265	0.0	100	0.0	NA	NA	978.6	NA	NA		M	NA	NA	NA	NA
2019/11/11 17:44:01	AWS3	7.15	265	9.62	265	0.0	100	0.0	NA	NA	978.7	NA	NA		M	NA	NA	NA	NA
2019/11/11 17:45:01	AWS3	7.63	269	9.62	265	0.0	100	0.0	NA	NA	978.5	NA	NA		M	NA	NA	NA	NA
2019/11/11 17:46:01	AWS3	7.56	267	9.62	265	0.0	100	0.0	NA	NA	978.6	NA	NA		M	NA	NA	NA	NA
2019/11/11 17:47:01	AWS3	6.75	264	9.62	265	0.0	100	0.0	NA	NA	978.6	NA	NA		M	NA	NA	NA	NA
2019/11/11 17:48:00	AWS3	7.04	264	9.77	262	0.0	100	0.0	NA	NA	978.6	NA	NA		M	NA	NA	NA	NA
2019/11/11 17:49:01	AWS3	7.60	266	9.77	262	0.0	100	0.0	NA	NA	978.7	NA	NA		M	NA	NA	NA	NA
2019/11/11 17:50:01	AWS3	6.93	265	9.77	262	0.0	100	0.0	NA	NA	978.6	NA	NA		M	NA	NA	NA	NA
2019/11/11 17:51:01	AWS3	6.63	265	9.77	262	0.0	100	0.0	NA	NA	978.6	NA	NA		M	NA	NA	NA	NA
2019/11/11 17:52:02	AWS3	7.31	265	9.77	262	0.0	100	0.0	NA	NA	978.7	NA	NA		M	NA	NA	NA	NA
2019/11/11 17:53:01	AWS3	7.42	264	9.77	262	0.0	100	0.0	NA	NA	978.8	NA	NA		M	NA	NA	NA	NA
2019/11/11 17:54:01	AWS3	7.04	266	9.77	262	0.0	100	0.0	NA	NA	978.7	NA	NA		M	NA	NA	NA	NA
2019/11/11 17:55:01	AWS3	7.04	268	9.77	262	0.0	100	0.0	NA	NA	978.8	NA	NA		M	NA	NA	NA	NA
2019/11/11 17:56:00	AWS3	7.23	266	9.77	262	0.0	100	0.0	NA	NA	978.6	NA	NA		M	NA	NA	NA	NA
2019/11/11 17:57:01	AWS3	8.04	266	9.77	262	0.0	100	0.0	NA	NA	978.7	NA	NA		M	NA	NA	NA	NA
2019/11/11 17:58:01	AWS3	7.83	266	9.41	255	0.0	100	0.0	NA	NA	978.9	NA	NA		M	NA	NA	NA	NA
2019/11/11 17:59:01	AWS3	7.70	267	9.41	255	0.0	100	0.0	NA	NA	978.8	NA	NA		M	NA	NA	NA	NA
2019/11/11 18:00:01	AWS3	8.15	266	9.41	255	0.0	100	0.0	NA	NA	978.8	NA	NA		M	NA	NA	NA	NA
2019/11/11 18:01:00	AWS3	7.77	264	9.41	257	0.0	100	0.0	NA	NA	978.9	NA	NA		M	NA	NA	NA	NA
2019/11/11 18:02:01	AWS3	7.18	266	9.41	257	0.0	100	0.0	NA	NA	978.9	NA	NA		M	NA	NA	NA	NA
2019/11/11 18:03:01	AWS3	6.97	268	9.41	257	0.0	100	0.0	NA	NA	978.9	NA	NA		M	NA	NA	NA	NA
2019/11/11 18:04:01	AWS3	7.23	268	9.41	257	-0.0	100	-0.0	NA	NA	978.9	NA	NA		M	NA	NA	NA	NA
2019/11/11 18:05:01	AWS3	7.54	267	9.41	257	-0.0	100	-0.0	NA	NA	979.0	NA	NA		M	NA	NA	NA	NA
2019/11/11 18:06:01	AWS3	7.14	269	9.41	257	-0.0	100	-0.0	NA	NA	979.0	NA	NA		M	NA	NA	NA	NA
2019/11/11 18:07:01	AWS3	6.89	268	9.41	257	-0.0	100	-0.0	NA	NA	978.8	NA	NA		M	NA	NA	NA	NA
2019/11/11 18:08:00	AWS3	7.76	267	9.41	257	-0.0	100	-0.0	NA	NA	979.0	NA	NA		M	NA	NA	NA	NA
2019/11/11 18:09:01	AWS3	8.13	270	9.41	257	0.0	100	0.0	NA	NA	978.9	NA	NA		M	NA	NA	NA	NA
2019/11/11 18:10:01	AWS3	7.88	268	9.41	257	0.0	100	0.0	NA	NA	979.0	NA	NA		M	NA	NA	NA	NA
2019/11/11 18:11:01	AWS3	7.24	267	9.36	266	0.0	100	0.0	NA	NA	979.0	NA	NA		M	NA	NA	NA	NA
2019/11/11 18:12:01	AWS3	7.19	267	9.36	266	0.0	100	0.0	NA	NA	979.0	NA	NA		M	NA	NA	NA	NA
2019/11/11 18:13:00	AWS3	7.80	266	9.36	266	0.0	100	0.0	NA	NA	979.1	NA	NA		M	NA	NA	NA	NA
2019/11/11 18:14:01	AWS3	7.86	267	9.36	266	0.0	100	0.0	NA	NA	979.0	NA	NA		M	NA	NA	NA	NA
2019/11/11 18:15:01	AWS3	7.31	268	9.36	266	0.0	100	0.0	NA	NA	979.0	NA	NA		M	NA	NA	NA	NA
2019/11/11 18:16:00	AWS3	6.85	270	9.36	266	0.0	100	0.0	NA	NA	979.1	NA	NA		M	NA	NA	NA	NA
2019/11/11 18:17:01	AWS3	7.26	268	9.36	266	0.0	100	0.0	NA	NA	979.1	NA	NA		M	NA	NA	NA	NA
2019/11/11 18:18:01	AWS3	7.84	268	9.11	268	0.0	100	0.0	NA	NA	979.0	NA	NA		M	NA	NA	NA	NA
2019/11/11 18:19:01	AWS3	8.40	270	9.62	269	0.0	100	0.0	NA	NA	979.0	NA	NA		M	NA	NA	NA	NA
2019/11/11 18:20:01	AWS3	8.74	268	9.62	269	0.0	100	0.0	NA	NA	979.1	NA	NA		M	NA	NA	NA	NA
2019/11/11 18:21:02	AWS3	8.38	269	9.62	269	-0.0	100	-0.0	NA	NA	979.1	NA	NA		M	NA	NA	NA	NA
2019/11/11 18:22:01	AWS3	8.05	269	9.62	269	-0.0	100	-0.0	NA	NA	979.1	NA	NA		M	NA	NA	NA	NA
2019/11/11 18:23:02	AWS3	8.30	267	9.67	271	-0.0	100	-0.0	NA	NA	979.2	NA	NA		M	NA	NA	NA	NA
2019/11/11 18:24:01	AWS3	8.60	267	9.93	264	-0.0	100	-0.0	NA	NA	979.2	NA	NA		M	NA	NA	NA	NA
2019/11/11 18:25:01	AWS3	8.38	265	9.93	264	-0.1	100	-0.1	NA	NA	979.2	NA	NA		M	NA	NA	NA	NA
2019/11/11 18:26:00	AWS3	7.94	266	9.93	264	-0.1	100	-0.1	NA	NA	979.2	NA	NA		M	NA	NA	NA	NA
2019/11/11 18:27:01	AWS3	7.70	268	9.93	264	-0.1	100	-0.1	NA	NA	979.1	NA	NA		M	NA	NA	NA	NA
2019/11/11 18:28:01	AWS3	7.73	266	9.93	264	-0.1	100	-0.1	NA	NA	979.2	NA	NA		M	NA	NA	NA	NA
2019/11/11 18:29:01	AWS3	7.62	267	9.93	264	-0.1	100	-0.1	NA	NA	979.1	NA	NA		M	NA	NA	NA	NA
2019/11/11 18:30:00	AWS3	8.09	268	9.93	264	-0.1	100	-0.1	NA	NA	979.2	NA	NA		M	NA	NA	NA	NA
2019/11/11 18:31:02	AWS3	8.30	265	9.93	264	-0.1	100	-0.1	NA	NA	979.3	NA	NA		M	NA	NA	NA	NA
2019/11/11 18:32:01	AWS3	7.25	266	9.93	264	-0.1	100	-0.1	NA	NA	979.3	NA	NA		M	NA	NA	NA	NA
2019/11/11 18:33:01	AWS3	7.61	268	9.93	260	-0.1	100	-0.1	NA	NA	979.2	NA	NA		M	NA	NA	NA	NA
2019/11/11 18:34:00	AWS3	8.14	267	9.93	260	-0.1	100	-0.1	NA	NA	979.2	NA	NA		M	NA	NA	NA	NA
2019/11/11 18:35:01	AWS3	7.34	264	9.93	260	-0.1	100	-0.1	NA	NA	979.3	NA	NA		M	NA	NA	NA	NA
2019/11/11 18:36:01	AWS3	6.66	260	9.93	260	-0.1	100	-0.1	NA	NA	979.3	NA	NA		M	NA	NA	NA	NA
2019/11/11 18:37:01	AWS3	5.98	262	9.93	260	-0.1	100	-0.1	NA	NA	979.4	NA	NA		M	NA	NA	NA	NA
2019/11/11 18:38:00	AWS3	5.69	264	9.93	260	-0.1	100	-0.1	NA	NA	979.4	NA	NA		M	NA	NA	NA	NA
2019/11/11 18:39:01	AWS3	6.69	264	9.93	260	-0.1	100	-0.1	NA	NA	979.4	NA	NA		M	NA	NA	NA	NA
2019/11/11 18:40:01	AWS3	7.25	264	9.93	260	-0.1	100	-0.1	NA	NA	979.4	NA	NA		M	NA	NA	NA	NA
2019/11/11 18:41:00	AWS3	7.23	265	9.93	260	-0.1	100	-0.1	NA	NA	979.4	NA	NA		M	NA	NA	NA	NA
2019/11/11 18:42:00	AWS3	7.57	265	9.93	260	-0.1	100	-0.1	NA	NA	979.4	NA	NA		M	NA	NA	NA	NA
2019/11/11 18:43:01	AWS3	7.43	266	9.47	267	-0.1	100	-0.1	NA	NA	979.5	NA	NA		M	NA	NA	NA	NA
2019/11/11 18:44:01	AWS3	6.93	268	9.47	267	-0.1	100	-0.1	NA	NA	979.5	NA	NA		M	NA	NA	NA	NA
2019/11/11 18:45:01	AWS3	6.53	266	9.47	267	-0.1	100	-0.1	NA	NA	979.5	NA	NA		M	NA	NA	NA	NA
2019/11/11 18:46:00	AWS3	7.13	264	9.47	267	-0.1	100	-0.1	NA	NA	979.5	NA	NA		M	NA	NA	NA	NA
2019/11/11 18:47:01	AWS3	7.01	264	9.47	267	-0.1	100	-0.1	NA	NA	979.6	NA	NA		M	NA	NA	NA	NA
2019/11/11 18:48:00	AWS3	6.05	261	9.47	267	-0.1	100	-0.1	NA	NA	979.6	NA	NA		M	NA	NA	NA	NA
2019/11/11 18:49:00	AWS3	5.82	261	9.47	267	-0.1	100	-0.1	NA	NA	979.6	NA	NA		M	NA	NA	NA	NA
2019/11/11 18:50:00	AWS3	5.94	262	9.47	267	-0.1	100	-0.1	NA	NA	979.6	NA	NA		M	NA	NA	NA	NA
2019/11/11 18:51:01	AWS3	6.18	263	8.64	257	-0.1	100	-0.1	NA	NA	979.6	NA	NA		M	NA	NA	NA	NA
2019/11/11 18:52:01	AWS3	6.38	264	8.64	257	-0.1	100	-0.1	NA	NA	979.6	NA	NA		M	NA	NA	NA	NA
2019/11/11 18:53:01	AWS3	6.70	264	8.64	257	-0.1	100	-0.1	NA	NA	979.6	NA	NA		M	NA	NA	NA	NA
2019/11/11 18:54:01	AWS3	7.00	267	8.64	257	-0.1	100	-0.1	NA	NA	979.5	NA	NA		M	NA	NA	NA	NA
2019/11/11 18:55:01	AWS3	7.39	270	8.75	264	-0.1	100	-0.1	NA	NA	979.5	NA	NA		M	NA	NA	NA	NA
2019/11/11 18:56:00	AWS3	7.56	268	9.41	264	-0.1	100	-0.1	NA	NA	979.6	NA	NA		M	NA	NA	NA	NA
2019/11/11 18:57:01	AWS3	7.14	264	9.41	264	-0.1	100	-0.1	NA	NA	979.7	NA	NA		M	NA	NA	NA	NA
2019/11/11 18:58:00	AWS3	6.42	262	9.41	264	-0.1	100	-0.1	NA	NA	979.7	NA	NA		M	NA	NA	NA	NA
2019/11/11 18:59:01	AWS3	6.06	266	9.41	264	-0.1	100	-0.1	NA	NA	979.7	NA	NA		M	NA	NA	NA	NA
2019/11/11 19:00:01	AWS3	6.11	269	9.41	264	-0.1	100	-0.1	NA	NA	979.7	NA	NA		M	NA	NA	NA	NA
2019/11/11 19:01:01	AWS3	6.21	264	9.41	264	-0.1	100	-0.1	NA	NA	979.7	NA	NA		M	NA	NA	NA	NA
2019/11/11 19:02:01	AWS3	6.45	266	9.41	264	-0.1	100	-0.1	NA	NA	979.7	NA	NA		M	NA	NA	NA	NA
2019/11/11 19:03:01	AWS3	6.52	269	9.41	264	-0.1	100	-0.1	NA	NA	979.8	NA	NA		M	NA	NA	NA	NA
2019/11/11 19:04:00	AWS3	6.74	265	9.41	264	-0.1	100	-0.1	NA	NA	979.7	NA	NA		M	NA	NA	NA	NA
2019/11/11 19:05:01	AWS3	7.57	264	9.41	264	-0.1	100	-0.1	NA	NA	979.6	NA	NA		M	NA	NA	NA	NA
2019/11/11 19:06:01	AWS3	7.71	265	9.31	278	-0.1	100	-0.1	NA	NA	979.6	NA	NA		M	NA	NA	NA	NA
2019/11/11 19:07:01	AWS3	7.17	264	9.31	278	-0.1	100	-0.1	NA	NA	979.7	NA	NA		M	NA	NA	NA	NA
2019/11/11 19:08:01	AWS3	6.72	262	9.31	278	-0.1	100	-0.1	NA	NA	979.7	NA	NA		M	NA	NA	NA	NA
2019/11/11 19:09:00	AWS3	6.63	262	9.31	278	-0.1	100	-0.1	NA	NA	979.8	NA	NA		M	NA	NA	NA	NA
2019/11/11 19:10:01	AWS3	6.62	263	9.31	278	-0.1	100	-0.1	NA	NA	979.8	NA	NA		M	NA	NA	NA	NA
2019/11/11 19:11:01	AWS3	6.17	263	9.31	278	-0.1	100	-0.1	NA	NA	979.8	NA	NA		M	NA	NA	NA	NA
2019/11/11 19:12:00	AWS3	6.82	265	9.31	278	-0.1	100	-0.1	NA	NA	979.8	NA	NA		M	NA	NA	NA	NA
2019/11/11 19:13:01	AWS3	7.74	266	9.31	278	-0.1	100	-0.1	NA	NA	979.8	NA	NA		M	NA	NA	NA	NA
2019/11/11 19:14:01	AWS3	7.49	267	9.31	278	-0.1	100	-0.1	NA	NA	979.8	NA	NA		M	NA	NA	NA	NA
2019/11/11 19:15:01	AWS3	7.41	265	9.05	262	-0.1	100	-0.1	NA	NA	979.9	NA	NA		M	NA	NA	NA	NA
2019/11/11 19:16:01	AWS3	7.21	265	9.05	262	-0.1	100	-0.1	NA	NA	979.9	NA	NA		M	NA	NA	NA	NA
2019/11/11 19:17:01	AWS3	6.84	262	9.05	262	-0.1	100	-0.1	NA	NA	979.9	NA	NA		M	NA	NA	NA	NA
2019/11/11 19:18:00	AWS3	6.68	262	9.05	262	-0.1	100	-0.1	NA	NA	979.9	NA	NA		M	NA	NA	NA	NA
2019/11/11 19:19:01	AWS3	6.64	263	9.05	262	-0.1	100	-0.1	NA	NA	979.9	NA	NA		M	NA	NA	NA	NA
2019/11/11 19:20:02	AWS3	6.56	261	9.05	262	-0.1	100	-0.1	NA	NA	979.9	NA	NA		M	NA	NA	NA	NA
2019/11/11 19:21:01	AWS3	6.20	261	9.05	262	-0.1	100	-0.1	NA	NA	979.9	NA	NA		M	NA	NA	NA	NA
2019/11/11 19:22:01	AWS3	6.53	263	9.05	262	-0.1	100	-0.1	NA	NA	979.9	NA	NA		M	NA	NA	NA	NA
2019/11/11 19:23:01	AWS3	6.85	266	9.05	262	-0.1	100	-0.1	NA	NA	979.9	NA	NA		M	NA	NA	NA	NA
2019/11/11 19:24:01	AWS3	6.77	265	9.05	262	-0.1	100	-0.1	NA	NA	979.9	NA	NA		M	NA	NA	NA	NA
2019/11/11 19:25:01	AWS3	6.46	267	8.18	264	-0.1	100	-0.1	NA	NA	979.9	NA	NA		M	NA	NA	NA	NA
2019/11/11 19:26:01	AWS3	6.02	267	8.18	264	-0.1	100	-0.1	NA	NA	980.1	NA	NA		M	NA	NA	NA	NA
2019/11/11 19:27:01	AWS3	5.72	266	8.18	264	-0.1	100	-0.1	NA	NA	980.0	NA	NA		M	NA	NA	NA	NA
2019/11/11 19:28:00	AWS3	6.46	266	9.83	265	-0.1	100	-0.1	NA	NA	979.9	NA	NA		M	NA	NA	NA	NA
2019/11/11 19:29:01	AWS3	7.33	266	9.83	265	-0.1	100	-0.1	NA	NA	980.0	NA	NA		M	NA	NA	NA	NA
2019/11/11 19:30:01	AWS3	6.52	264	9.83	265	-0.1	100	-0.1	NA	NA	979.9	NA	NA		M	NA	NA	NA	NA
2019/11/11 19:31:02	AWS3	6.32	263	9.83	265	-0.1	100	-0.1	NA	NA	980.0	NA	NA		M	NA	NA	NA	NA
2019/11/11 19:32:00	AWS3	6.89	265	9.83	265	-0.1	100	-0.1	NA	NA	980.0	NA	NA		M	NA	NA	NA	NA
2019/11/11 19:33:00	AWS3	7.72	267	9.83	265	-0.1	100	-0.1	NA	NA	980.0	NA	NA		M	NA	NA	NA	NA
2019/11/11 19:34:00	AWS3	7.69	266	9.83	265	-0.1	100	-0.1	NA	NA	980.1	NA	NA		M	NA	NA	NA	NA
2019/11/11 19:35:01	AWS3	7.04	263	9.83	265	-0.1	100	-0.1	NA	NA	980.1	NA	NA		M	NA	NA	NA	NA
2019/11/11 19:36:01	AWS3	7.87	264	10.65	258	-0.1	100	-0.1	NA	NA	980.1	NA	NA		M	NA	NA	NA	NA
2019/11/11 19:37:01	AWS3	8.67	264	10.65	258	-0.1	100	-0.1	NA	NA	980.1	NA	NA		M	NA	NA	NA	NA
2019/11/11 19:38:00	AWS3	8.26	260	10.65	258	-0.1	100	-0.1	NA	NA	980.1	NA	NA		M	NA	NA	NA	NA
2019/11/11 19:39:01	AWS3	7.90	259	10.65	258	-0.1	100	-0.1	NA	NA	980.2	NA	NA		M	NA	NA	NA	NA
2019/11/11 19:40:00	AWS3	7.89	261	10.65	258	-0.1	100	-0.1	NA	NA	980.2	NA	NA		M	NA	NA	NA	NA
2019/11/11 19:41:01	AWS3	7.69	262	10.65	258	-0.2	100	-0.2	NA	NA	980.2	NA	NA		M	NA	NA	NA	NA
2019/11/11 19:42:00	AWS3	7.87	262	10.65	258	-0.2	100	-0.2	NA	NA	980.1	NA	NA		M	NA	NA	NA	NA
2019/11/11 19:43:01	AWS3	8.00	261	10.65	258	-0.2	100	-0.2	NA	NA	980.2	NA	NA		M	NA	NA	NA	NA
2019/11/11 19:44:00	AWS3	7.87	263	10.65	258	-0.2	100	-0.2	NA	NA	980.1	NA	NA		M	NA	NA	NA	NA
2019/11/11 19:45:01	AWS3	7.88	263	10.65	258	-0.2	100	-0.2	NA	NA	980.2	NA	NA		M	NA	NA	NA	NA
2019/11/11 19:46:01	AWS3	7.22	260	10.55	257	-0.2	100	-0.2	NA	NA	980.2	NA	NA		M	NA	NA	NA	NA
2019/11/11 19:47:01	AWS3	6.86	258	10.55	257	-0.2	100	-0.2	NA	NA	980.1	NA	NA		M	NA	NA	NA	NA
2019/11/11 19:48:00	AWS3	7.91	260	10.08	257	-0.2	100	-0.2	NA	NA	980.2	NA	NA		M	NA	NA	NA	NA
2019/11/11 19:49:00	AWS3	9.04	261	11.32	264	-0.2	100	-0.2	NA	NA	980.1	NA	NA		M	NA	NA	NA	NA
2019/11/11 19:50:00	AWS3	9.23	259	11.32	264	-0.2	100	-0.2	NA	NA	980.2	NA	NA		M	NA	NA	NA	NA
2019/11/11 19:51:01	AWS3	8.98	258	11.32	264	-0.2	100	-0.2	NA	NA	980.3	NA	NA		M	NA	NA	NA	NA
2019/11/11 19:52:00	AWS3	8.40	258	11.32	264	-0.2	100	-0.2	NA	NA	980.1	NA	NA		M	NA	NA	NA	NA
2019/11/11 19:53:02	AWS3	8.25	259	11.32	264	-0.2	100	-0.2	NA	NA	980.0	NA	NA		M	NA	NA	NA	NA
2019/11/11 19:54:01	AWS3	8.66	258	11.32	264	-0.2	100	-0.2	NA	NA	980.2	NA	NA		M	NA	NA	NA	NA
2019/11/11 19:55:01	AWS3	7.99	260	11.32	264	-0.2	100	-0.2	NA	NA	980.2	NA	NA		M	NA	NA	NA	NA
2019/11/11 19:56:01	AWS3	7.81	259	11.32	264	-0.2	100	-0.2	NA	NA	980.3	NA	NA		M	NA	NA	NA	NA
2019/11/11 19:57:01	AWS3	7.85	258	11.32	264	-0.2	100	-0.2	NA	NA	980.2	NA	NA		M	NA	NA	NA	NA
2019/11/11 19:58:01	AWS3	7.72	260	11.32	264	-0.2	100	-0.2	NA	NA	980.3	NA	NA		M	NA	NA	NA	NA
2019/11/11 19:59:00	AWS3	8.66	257	10.65	254	-0.2	100	-0.2	NA	NA	980.3	NA	NA		M	NA	NA	NA	NA
2019/11/11 20:00:01	AWS3	8.88	258	10.65	254	-0.2	100	-0.2	NA	NA	980.1	NA	NA		M	NA	NA	NA	NA
2019/11/11 20:01:00	AWS3	8.46	260	10.65	254	-0.2	100	-0.2	NA	NA	980.3	NA	NA		M	NA	NA	NA	NA
2019/11/11 20:02:01	AWS3	8.02	259	10.65	254	-0.3	100	-0.3	NA	NA	980.4	NA	NA		M	NA	NA	NA	NA
2019/11/11 20:03:00	AWS3	7.17	259	10.60	257	-0.3	100	-0.3	NA	NA	980.3	NA	NA		M	NA	NA	NA	NA
2019/11/11 20:04:01	AWS3	6.63	262	10.60	257	-0.3	100	-0.3	NA	NA	980.5	NA	NA		M	NA	NA	NA	NA
2019/11/11 20:05:01	AWS3	6.93	264	10.60	257	-0.3	100	-0.3	NA	NA	980.4	NA	NA		M	NA	NA	NA	NA
2019/11/11 20:06:01	AWS3	7.24	263	10.60	257	-0.3	100	-0.3	NA	NA	980.6	NA	NA		M	NA	NA	NA	NA
2019/11/11 20:07:01	AWS3	6.78	262	10.60	257	-0.3	100	-0.3	NA	NA	980.3	NA	NA		M	NA	NA	NA	NA
2019/11/11 20:08:02	AWS3	6.69	259	10.60	257	-0.3	100	-0.3	NA	NA	980.5	NA	NA		M	NA	NA	NA	NA
2019/11/11 20:09:01	AWS3	6.94	255	10.55	255	-0.3	100	-0.3	NA	NA	980.4	NA	NA		M	NA	NA	NA	NA
2019/11/11 20:10:01	AWS3	7.28	257	9.62	262	-0.3	100	-0.3	NA	NA	980.3	NA	NA		M	NA	NA	NA	NA
2019/11/11 20:11:01	AWS3	8.79	257	11.99	250	-0.3	100	-0.3	NA	NA	980.6	NA	NA		M	NA	NA	NA	NA
2019/11/11 20:12:01	AWS3	9.42	253	11.99	250	-0.3	100	-0.3	NA	NA	980.4	NA	NA		M	NA	NA	NA	NA
2019/11/11 20:13:01	AWS3	7.77	257	11.99	250	-0.3	100	-0.3	NA	NA	980.6	NA	NA		M	NA	NA	NA	NA
2019/11/11 20:14:01	AWS3	6.92	258	11.99	250	-0.4	100	-0.4	NA	NA	980.5	NA	NA		M	NA	NA	NA	NA
2019/11/11 20:15:02	AWS3	7.69	252	11.99	250	-0.4	100	-0.4	NA	NA	980.8	NA	NA		M	NA	NA	NA	NA
2019/11/11 20:16:01	AWS3	7.19	251	11.99	250	-0.4	100	-0.4	NA	NA	980.5	NA	NA		M	NA	NA	NA	NA
2019/11/11 20:17:01	AWS3	6.65	255	11.99	250	-0.4	100	-0.4	NA	NA	980.7	NA	NA		M	NA	NA	NA	NA
2019/11/11 20:18:01	AWS3	6.69	255	11.99	250	-0.4	100	-0.4	NA	NA	980.7	NA	NA		M	NA	NA	NA	NA
2019/11/11 20:19:01	AWS3	6.50	252	11.99	250	-0.4	100	-0.4	NA	NA	980.7	NA	NA		M	NA	NA	NA	NA
2019/11/11 20:20:01	AWS3	7.08	254	11.99	250	-0.4	100	-0.4	NA	NA	980.9	NA	NA		M	NA	NA	NA	NA
2019/11/11 20:21:00	AWS3	7.17	253	10.44	246	-0.4	100	-0.4	NA	NA	980.9	NA	NA		M	NA	NA	NA	NA
2019/11/11 20:22:02	AWS3	6.38	249	9.98	247	-0.5	100	-0.5	NA	NA	980.9	NA	NA		M	NA	NA	NA	NA
2019/11/11 20:23:01	AWS3	5.49	249	9.36	239	-0.5	100	-0.5	NA	NA	980.8	NA	NA		M	NA	NA	NA	NA
2019/11/11 20:24:00	AWS3	5.84	250	9.36	239	-0.5	100	-0.5	NA	NA	980.9	NA	NA		M	NA	NA	NA	NA
2019/11/11 20:25:01	AWS3	6.51	248	8.69	248	-0.5	100	-0.5	NA	NA	981.0	NA	NA		M	NA	NA	NA	NA
2019/11/11 20:26:01	AWS3	5.68	251	8.69	248	-0.5	100	-0.5	NA	NA	980.8	NA	NA		M	NA	NA	NA	NA
2019/11/11 20:27:01	AWS3	5.95	254	9.47	255	-0.5	100	-0.5	NA	NA	981.0	NA	NA		M	NA	NA	NA	NA
2019/11/11 20:28:01	AWS3	6.42	251	9.47	255	-0.5	100	-0.5	NA	NA	981.0	NA	NA		M	NA	NA	NA	NA
2019/11/11 20:29:01	AWS3	5.86	246	9.47	255	-0.6	100	-0.6	NA	NA	981.0	NA	NA		M	NA	NA	NA	NA
2019/11/11 20:30:01	AWS3	5.81	249	9.47	255	-0.6	100	-0.6	NA	NA	980.8	NA	NA		M	NA	NA	NA	NA
2019/11/11 20:31:02	AWS3	5.75	253	9.47	255	-0.6	100	-0.6	NA	NA	981.0	NA	NA		M	NA	NA	NA	NA
2019/11/11 20:32:01	AWS3	5.73	252	9.47	255	-0.6	100	-0.6	NA	NA	981.0	NA	NA		M	NA	NA	NA	NA
2019/11/11 20:33:02	AWS3	5.64	255	9.47	255	-0.6	100	-0.6	NA	NA	981.0	NA	NA		M	NA	NA	NA	NA
2019/11/11 20:34:01	AWS3	5.93	257	9.47	255	-0.6	100	-0.6	NA	NA	981.1	NA	NA		M	NA	NA	NA	NA
2019/11/11 20:35:01	AWS3	6.18	257	9.47	255	-0.6	100	-0.6	NA	NA	981.0	NA	NA		M	NA	NA	NA	NA
2019/11/11 20:36:01	AWS3	6.08	258	9.47	255	-0.6	100	-0.6	NA	NA	981.1	NA	NA		M	NA	NA	NA	NA
2019/11/11 20:37:01	AWS3	6.68	252	8.64	259	-0.7	100	-0.7	NA	NA	981.2	NA	NA		M	NA	NA	NA	NA
2019/11/11 20:38:01	AWS3	6.90	252	8.64	259	-0.7	100	-0.7	NA	NA	981.1	NA	NA		M	NA	NA	NA	NA
2019/11/11 20:39:01	AWS3	6.39	252	8.64	259	-0.7	100	-0.7	NA	NA	981.2	NA	NA		M	NA	NA	NA	NA
2019/11/11 20:40:01	AWS3	6.05	249	8.64	259	-0.8	100	-0.8	NA	NA	981.1	NA	NA		M	NA	NA	NA	NA
2019/11/11 20:41:00	AWS3	5.34	253	8.64	259	-0.8	100	-0.8	NA	NA	981.3	NA	NA		M	NA	NA	NA	NA
2019/11/11 20:42:01	AWS3	5.30	254	8.64	259	-0.8	100	-0.8	NA	NA	981.3	NA	NA		M	NA	NA	NA	NA
2019/11/11 20:43:01	AWS3	6.21	255	8.64	259	-0.8	100	-0.8	NA	NA	981.3	NA	NA		M	NA	NA	NA	NA
2019/11/11 20:44:01	AWS3	6.52	256	8.64	259	-0.8	100	-0.8	NA	NA	981.3	NA	NA		M	NA	NA	NA	NA
2019/11/11 20:45:01	AWS3	6.60	258	9.41	254	-0.8	100	-0.8	NA	NA	981.2	NA	NA		M	NA	NA	NA	NA
2019/11/11 20:46:00	AWS3	6.72	257	9.41	254	-0.8	100	-0.8	NA	NA	981.4	NA	NA		M	NA	NA	NA	NA
2019/11/11 20:47:01	AWS3	7.20	253	9.41	254	-0.9	100	-0.9	NA	NA	981.4	NA	NA		M	NA	NA	NA	NA
2019/11/11 20:48:01	AWS3	7.71	252	9.41	254	-0.9	100	-0.9	NA	NA	981.3	NA	NA		M	NA	NA	NA	NA
2019/11/11 20:49:01	AWS3	7.39	249	9.41	254	-0.9	100	-0.9	NA	NA	981.3	NA	NA		M	NA	NA	NA	NA
2019/11/11 20:50:01	AWS3	6.74	247	9.41	254	-1.0	100	-1.0	NA	NA	981.3	NA	NA		M	NA	NA	NA	NA
2019/11/11 20:51:01	AWS3	6.56	251	9.41	254	-1.0	100	-1.0	NA	NA	981.3	NA	NA		M	NA	NA	NA	NA
2019/11/11 20:52:00	AWS3	6.34	257	9.41	254	-1.0	100	-1.0	NA	NA	981.4	NA	NA		M	NA	NA	NA	NA
2019/11/11 20:53:01	AWS3	6.46	256	9.41	254	-1.0	100	-1.0	NA	NA	981.5	NA	NA		M	NA	NA	NA	NA
2019/11/11 20:54:01	AWS3	6.97	255	9.41	254	-1.0	100	-1.0	NA	NA	981.3	NA	NA		M	NA	NA	NA	NA
2019/11/11 20:55:01	AWS3	6.80	256	9.26	241	-1.0	100	-1.0	NA	NA	981.5	NA	NA		M	NA	NA	NA	NA
2019/11/11 20:56:01	AWS3	6.32	256	9.26	241	-1.1	100	-1.1	NA	NA	981.6	NA	NA		M	NA	NA	NA	NA
2019/11/11 20:57:01	AWS3	6.25	253	9.26	241	-1.1	100	-1.1	NA	NA	981.5	NA	NA		M	NA	NA	NA	NA
2019/11/11 20:58:01	AWS3	6.41	255	9.26	241	-1.1	100	-1.1	NA	NA	981.5	NA	NA		M	NA	NA	NA	NA
2019/11/11 20:59:01	AWS3	6.40	258	9.11	245	-1.1	100	-1.1	NA	NA	981.6	NA	NA		M	NA	NA	NA	NA
2019/11/11 21:00:01	AWS3	6.43	259	9.11	245	-1.1	100	-1.1	NA	NA	981.5	NA	NA		M	NA	NA	NA	NA
2019/11/11 21:01:01	AWS3	7.11	255	9.36	252	-1.1	100	-1.1	NA	NA	981.6	NA	NA		M	NA	NA	NA	NA
2019/11/11 21:02:01	AWS3	7.26	245	9.36	252	-1.1	100	-1.1	NA	NA	981.6	NA	NA		M	NA	NA	NA	NA
2019/11/11 21:03:01	AWS3	6.27	239	9.36	252	-1.1	100	-1.1	NA	NA	981.6	NA	NA		M	NA	NA	NA	NA
2019/11/11 21:04:01	AWS3	6.55	238	9.88	230	-1.1	100	-1.1	NA	NA	981.7	NA	NA		M	NA	NA	NA	NA
2019/11/11 21:05:01	AWS3	6.66	246	9.88	230	-1.1	100	-1.1	NA	NA	981.7	NA	NA		M	NA	NA	NA	NA
2019/11/11 21:06:01	AWS3	6.40	253	9.88	230	-1.2	100	-1.2	NA	NA	981.7	NA	NA		M	NA	NA	NA	NA
2019/11/11 21:07:01	AWS3	6.74	259	9.88	230	-1.2	100	-1.2	NA	NA	981.6	NA	NA		M	NA	NA	NA	NA
2019/11/11 21:08:02	AWS3	5.89	258	9.88	230	-1.2	100	-1.2	NA	NA	981.8	NA	NA		M	NA	NA	NA	NA
2019/11/11 21:09:01	AWS3	6.03	252	9.88	230	-1.2	100	-1.2	NA	NA	981.6	NA	NA		M	NA	NA	NA	NA
2019/11/11 21:10:01	AWS3	6.21	252	9.88	230	-1.2	100	-1.2	NA	NA	981.9	NA	NA		M	NA	NA	NA	NA
2019/11/11 21:11:01	AWS3	6.18	254	9.88	230	-1.2	100	-1.2	NA	NA	981.7	NA	NA		M	NA	NA	NA	NA
2019/11/11 21:12:01	AWS3	6.22	255	9.88	230	-1.2	100	-1.2	NA	NA	981.9	NA	NA		M	NA	NA	NA	NA
2019/11/11 21:13:01	AWS3	5.10	254	9.88	230	-1.2	100	-1.2	NA	NA	981.9	NA	NA		M	NA	NA	NA	NA
2019/11/11 21:14:01	AWS3	5.32	257	9.11	248	-1.2	100	-1.2	NA	NA	981.8	NA	NA		M	NA	NA	NA	NA
2019/11/11 21:15:01	AWS3	5.96	259	9.11	248	-1.2	100	-1.2	NA	NA	981.8	NA	NA		M	NA	NA	NA	NA
2019/11/11 21:16:01	AWS3	6.10	257	9.11	248	-1.2	100	-1.2	NA	NA	982.0	NA	NA		M	NA	NA	NA	NA
2019/11/11 21:17:01	AWS3	6.08	258	9.11	248	-1.2	100	-1.2	NA	NA	982.0	NA	NA		M	NA	NA	NA	NA
2019/11/11 21:18:01	AWS3	5.73	263	9.11	248	-1.3	100	-1.3	NA	NA	981.8	NA	NA		M	NA	NA	NA	NA
2019/11/11 21:19:01	AWS3	5.81	262	8.33	262	-1.3	100	-1.3	NA	NA	981.9	NA	NA		M	NA	NA	NA	NA
2019/11/11 21:20:01	AWS3	5.32	260	8.33	262	-1.3	100	-1.3	NA	NA	982.0	NA	NA		M	NA	NA	NA	NA
2019/11/11 21:21:01	AWS3	5.14	263	7.72	248	-1.3	100	-1.3	NA	NA	982.0	NA	NA		M	NA	NA	NA	NA
2019/11/11 21:22:01	AWS3	5.64	259	7.72	248	-1.3	100	-1.3	NA	NA	982.0	NA	NA		M	NA	NA	NA	NA
2019/11/11 21:23:01	AWS3	5.38	258	7.72	248	-1.3	100	-1.3	NA	NA	981.9	NA	NA		M	NA	NA	NA	NA
2019/11/11 21:24:00	AWS3	5.08	260	7.72	248	-1.3	100	-1.3	NA	NA	981.9	NA	NA		M	NA	NA	NA	NA
2019/11/11 21:25:00	AWS3	4.87	257	7.72	248	-1.3	100	-1.3	NA	NA	982.1	NA	NA		M	NA	NA	NA	NA
2019/11/11 21:26:01	AWS3	5.07	258	7.31	251	-1.3	100	-1.3	NA	NA	982.1	NA	NA		M	NA	NA	NA	NA
2019/11/11 21:27:01	AWS3	5.66	260	7.31	251	-1.3	100	-1.3	NA	NA	982.2	NA	NA		M	NA	NA	NA	NA
2019/11/11 21:28:00	AWS3	5.97	260	7.31	251	-1.3	100	-1.3	NA	NA	982.2	NA	NA		M	NA	NA	NA	NA
2019/11/11 21:29:01	AWS3	6.12	259	7.77	256	-1.3	100	-1.3	NA	NA	982.2	NA	NA		M	NA	NA	NA	NA
2019/11/11 21:30:01	AWS3	5.68	258	7.77	256	-1.3	100	-1.3	NA	NA	982.2	NA	NA		M	NA	NA	NA	NA
2019/11/11 21:31:02	AWS3	5.46	257	7.77	256	-1.3	100	-1.3	NA	NA	982.2	NA	NA		M	NA	NA	NA	NA
2019/11/11 21:32:00	AWS3	5.43	257	7.77	256	-1.3	100	-1.3	NA	NA	982.1	NA	NA		M	NA	NA	NA	NA
2019/11/11 21:33:01	AWS3	5.47	255	7.77	256	-1.3	100	-1.3	NA	NA	982.2	NA	NA		M	NA	NA	NA	NA
2019/11/11 21:34:01	AWS3	5.90	249	7.77	256	-1.3	100	-1.3	NA	NA	982.2	NA	NA		M	NA	NA	NA	NA
2019/11/11 21:35:01	AWS3	6.27	246	9.11	246	-1.4	100	-1.4	NA	NA	982.2	NA	NA		M	NA	NA	NA	NA
2019/11/11 21:36:01	AWS3	6.25	248	9.11	246	-1.4	100	-1.4	NA	NA	982.1	NA	NA		M	NA	NA	NA	NA
2019/11/11 21:37:01	AWS3	6.00	253	9.11	246	-1.4	100	-1.4	NA	NA	982.2	NA	NA		M	NA	NA	NA	NA
2019/11/11 21:38:01	AWS3	5.95	258	9.11	246	-1.4	100	-1.4	NA	NA	982.4	NA	NA		M	NA	NA	NA	NA
2019/11/11 21:39:00	AWS3	5.83	257	9.11	246	-1.4	100	-1.4	NA	NA	982.4	NA	NA		M	NA	NA	NA	NA
2019/11/11 21:40:01	AWS3	5.40	255	9.11	246	-1.4	100	-1.4	NA	NA	982.4	NA	NA		M	NA	NA	NA	NA
2019/11/11 21:41:01	AWS3	4.99	255	9.11	246	-1.4	100	-1.4	NA	NA	982.2	NA	NA		M	NA	NA	NA	NA
2019/11/11 21:42:01	AWS3	5.19	255	9.11	246	-1.4	100	-1.4	NA	NA	982.1	NA	NA		M	NA	NA	NA	NA
2019/11/11 21:43:01	AWS3	5.49	254	9.11	246	-1.4	100	-1.4	NA	NA	982.5	NA	NA		M	NA	NA	NA	NA
2019/11/11 21:44:00	AWS3	5.92	257	9.11	246	-1.4	100	-1.4	NA	NA	982.4	NA	NA		M	NA	NA	NA	NA
2019/11/11 21:45:01	AWS3	5.64	259	7.77	255	-1.4	100	-1.4	NA	NA	982.3	NA	NA		M	NA	NA	NA	NA
2019/11/11 21:46:01	AWS3	5.27	258	7.77	255	-1.4	100	-1.4	NA	NA	982.3	NA	NA		M	NA	NA	NA	NA
2019/11/11 21:47:01	AWS3	5.28	255	7.77	255	-1.4	100	-1.4	NA	NA	982.5	NA	NA		M	NA	NA	NA	NA
2019/11/11 21:48:01	AWS3	4.69	251	7.77	255	-1.4	100	-1.4	NA	NA	982.3	NA	NA		M	NA	NA	NA	NA
2019/11/11 21:49:01	AWS3	4.53	252	7.77	255	-1.4	100	-1.4	NA	NA	982.5	NA	NA		M	NA	NA	NA	NA
2019/11/11 21:50:01	AWS3	4.78	254	7.77	255	-1.4	100	-1.4	NA	NA	982.4	NA	NA		M	NA	NA	NA	NA
2019/11/11 21:51:01	AWS3	4.84	253	7.77	255	-1.4	100	-1.4	NA	NA	982.4	NA	NA		M	NA	NA	NA	NA
2019/11/11 21:52:01	AWS3	4.67	258	7.77	255	-1.4	100	-1.4	NA	NA	982.3	NA	NA		M	NA	NA	NA	NA
2019/11/11 21:53:01	AWS3	4.78	259	7.77	255	-1.4	100	-1.4	NA	NA	982.2	NA	NA		M	NA	NA	NA	NA
2019/11/11 21:54:01	AWS3	5.17	253	7.15	250	-1.4	100	-1.4	NA	NA	982.3	NA	NA		M	NA	NA	NA	NA
2019/11/11 21:55:02	AWS3	5.54	253	7.15	250	-1.4	100	-1.4	NA	NA	982.4	NA	NA		M	NA	NA	NA	NA
2019/11/11 21:56:01	AWS3	5.96	254	7.25	254	-1.4	100	-1.4	NA	NA	982.4	NA	NA		M	NA	NA	NA	NA
2019/11/11 21:57:01	AWS3	6.12	254	7.82	256	-1.5	100	-1.5	NA	NA	982.5	NA	NA		M	NA	NA	NA	NA
2019/11/11 21:58:01	AWS3	5.77	258	7.82	256	-1.5	100	-1.5	NA	NA	982.4	NA	NA		M	NA	NA	NA	NA
2019/11/11 21:59:01	AWS3	5.12	258	7.82	256	-1.5	100	-1.5	NA	NA	982.6	NA	NA		M	NA	NA	NA	NA
2019/11/11 22:00:01	AWS3	5.12	255	7.82	256	-1.5	100	-1.5	NA	NA	982.6	NA	NA		M	NA	NA	NA	NA
2019/11/11 22:01:01	AWS3	5.31	256	7.82	256	-1.5	100	-1.5	NA	NA	982.4	NA	NA		M	NA	NA	NA	NA
2019/11/11 22:02:01	AWS3	5.00	256	7.82	256	-1.5	100	-1.5	NA	NA	982.8	NA	NA		M	NA	NA	NA	NA
2019/11/11 22:03:01	AWS3	4.80	258	7.82	256	-1.5	100	-1.5	NA	NA	982.6	NA	NA		M	NA	NA	NA	NA
2019/11/11 22:04:00	AWS3	4.93	259	7.82	256	-1.5	100	-1.5	NA	NA	982.6	NA	NA		M	NA	NA	NA	NA
2019/11/11 22:05:00	AWS3	5.03	258	7.82	256	-1.5	100	-1.5	NA	NA	982.6	NA	NA		M	NA	NA	NA	NA
2019/11/11 22:06:01	AWS3	5.26	259	7.82	256	-1.5	100	-1.5	NA	NA	982.6	NA	NA		M	NA	NA	NA	NA
2019/11/11 22:07:01	AWS3	5.12	257	7.61	262	-1.5	100	-1.5	NA	NA	982.6	NA	NA		M	NA	NA	NA	NA
2019/11/11 22:08:00	AWS3	5.07	254	7.15	271	-1.5	100	-1.5	NA	NA	982.8	NA	NA		M	NA	NA	NA	NA
2019/11/11 22:09:01	AWS3	5.30	252	7.15	271	-1.5	100	-1.5	NA	NA	982.8	NA	NA		M	NA	NA	NA	NA
2019/11/11 22:10:01	AWS3	5.02	255	7.15	271	-1.5	100	-1.5	NA	NA	982.6	NA	NA		M	NA	NA	NA	NA
2019/11/11 22:11:01	AWS3	5.04	256	7.15	271	-1.5	100	-1.5	NA	NA	982.7	NA	NA		M	NA	NA	NA	NA
2019/11/11 22:12:01	AWS3	5.10	253	7.15	271	-1.5	100	-1.5	NA	NA	982.6	NA	NA		M	NA	NA	NA	NA
2019/11/11 22:13:01	AWS3	5.07	255	7.15	271	-1.5	100	-1.5	NA	NA	982.9	NA	NA		M	NA	NA	NA	NA
2019/11/11 22:14:01	AWS3	4.96	257	7.15	271	-1.5	100	-1.5	NA	NA	982.7	NA	NA		M	NA	NA	NA	NA
2019/11/11 22:15:01	AWS3	4.53	255	7.15	271	-1.5	100	-1.5	NA	NA	982.9	NA	NA		M	NA	NA	NA	NA
2019/11/11 22:16:01	AWS3	4.54	256	7.15	271	-1.5	100	-1.5	NA	NA	983.0	NA	NA		M	NA	NA	NA	NA
2019/11/11 22:17:01	AWS3	4.92	255	7.15	271	-1.5	100	-1.5	NA	NA	983.1	NA	NA		M	NA	NA	NA	NA
2019/11/11 22:18:01	AWS3	5.01	251	7.05	244	-1.5	100	-1.5	NA	NA	983.0	NA	NA		M	NA	NA	NA	NA
2019/11/11 22:19:01	AWS3	4.60	250	7.05	244	-1.5	100	-1.5	NA	NA	983.1	NA	NA		M	NA	NA	NA	NA
2019/11/11 22:20:01	AWS3	4.69	253	7.25	253	-1.5	100	-1.5	NA	NA	983.0	NA	NA		M	NA	NA	NA	NA
2019/11/11 22:21:01	AWS3	4.92	254	7.25	253	-1.5	100	-1.5	NA	NA	983.1	NA	NA		M	NA	NA	NA	NA
2019/11/11 22:22:01	AWS3	5.32	255	7.51	251	-1.5	100	-1.5	NA	NA	982.9	NA	NA		M	NA	NA	NA	NA
2019/11/11 22:23:01	AWS3	5.61	258	7.51	251	-1.5	100	-1.5	NA	NA	983.1	NA	NA		M	NA	NA	NA	NA
2019/11/11 22:24:01	AWS3	5.37	258	7.51	251	-1.5	100	-1.5	NA	NA	983.1	NA	NA		M	NA	NA	NA	NA
2019/11/11 22:25:01	AWS3	5.17	257	7.51	251	-1.6	100	-1.6	NA	NA	983.2	NA	NA		M	NA	NA	NA	NA
2019/11/11 22:26:01	AWS3	5.26	253	7.51	251	-1.6	100	-1.6	NA	NA	983.2	NA	NA		M	NA	NA	NA	NA
2019/11/11 22:27:01	AWS3	6.07	256	7.72	258	-1.6	100	-1.6	NA	NA	983.2	NA	NA		M	NA	NA	NA	NA
2019/11/11 22:28:01	AWS3	6.25	260	7.72	258	-1.6	100	-1.6	NA	NA	983.1	NA	NA		M	NA	NA	NA	NA
2019/11/11 22:29:01	AWS3	5.48	261	7.72	258	-1.6	100	-1.6	NA	NA	983.3	NA	NA		M	NA	NA	NA	NA
2019/11/11 22:30:01	AWS3	5.26	263	7.72	258	-1.6	100	-1.6	NA	NA	983.1	NA	NA		M	NA	NA	NA	NA
2019/11/11 22:31:02	AWS3	5.79	258	7.77	255	-1.6	100	-1.6	NA	NA	983.3	NA	NA		M	NA	NA	NA	NA
2019/11/11 22:32:01	AWS3	5.71	256	7.77	255	-1.6	100	-1.6	NA	NA	983.3	NA	NA		M	NA	NA	NA	NA
2019/11/11 22:33:02	AWS3	5.57	258	7.77	255	-1.6	100	-1.6	NA	NA	983.2	NA	NA		M	NA	NA	NA	NA
2019/11/11 22:34:02	AWS3	5.63	257	7.77	255	-1.6	100	-1.6	NA	NA	983.3	NA	NA		M	NA	NA	NA	NA
2019/11/11 22:35:02	AWS3	5.58	260	7.77	255	-1.6	100	-1.6	NA	NA	983.3	NA	NA		M	NA	NA	NA	NA
2019/11/11 22:36:03	AWS3	6.18	261	7.97	254	-1.6	100	-1.6	NA	NA	983.3	NA	NA		M	NA	NA	NA	NA
2019/11/11 22:37:03	AWS3	6.69	260	8.08	258	-1.6	100	-1.6	NA	NA	983.2	NA	NA		M	NA	NA	NA	NA
2019/11/11 22:38:02	AWS3	6.19	260	8.08	258	-1.6	100	-1.6	NA	NA	983.1	NA	NA		M	NA	NA	NA	NA
2019/11/11 22:39:28	AWS3	M	M	8.08	258	-1.6	100	-1.6	NA	NA	983.5	NA	NA		M	NA	NA	NA	NA
2019/11/11 22:40:01	AWS3	M	M	8.08	258	-1.6	100	-1.6	NA	NA	M	NA	NA		M	NA	NA	NA	NA
2019/11/11 22:41:04	AWS3	5.94	258	8.08	258	-1.7	100	-1.7	NA	NA	983.5	NA	NA		M	NA	NA	NA	NA
2019/11/11 22:42:03	AWS3	6.22	261	8.44	257	-1.7	100	-1.7	NA	NA	983.4	NA	NA		M	NA	NA	NA	NA
2019/11/11 22:43:01	AWS3	6.90	262	8.80	262	-1.7	100	-1.7	NA	NA	983.2	NA	NA		M	NA	NA	NA	NA
2019/11/11 22:44:01	AWS3	6.51	260	8.80	262	-1.7	100	-1.7	NA	NA	983.4	NA	NA		M	NA	NA	NA	NA
2019/11/11 22:45:01	AWS3	6.05	261	8.80	262	-1.7	100	-1.7	NA	NA	983.3	NA	NA		M	NA	NA	NA	NA
2019/11/11 22:46:01	AWS3	6.71	262	8.80	262	-1.7	100	-1.7	NA	NA	983.4	NA	NA		M	NA	NA	NA	NA
2019/11/11 22:47:01	AWS3	6.88	264	8.80	262	-1.7	100	-1.7	NA	NA	983.5	NA	NA		M	NA	NA	NA	NA
2019/11/11 22:48:00	AWS3	6.53	263	8.80	262	-1.7	100	-1.7	NA	NA	983.5	NA	NA		M	NA	NA	NA	NA
2019/11/11 22:49:00	AWS3	6.73	264	8.80	262	-1.7	100	-1.7	NA	NA	983.5	NA	NA		M	NA	NA	NA	NA
2019/11/11 22:50:00	AWS3	6.59	262	8.80	262	-1.7	100	-1.7	NA	NA	983.5	NA	NA		M	NA	NA	NA	NA
2019/11/11 22:51:00	AWS3	6.51	258	8.80	262	-1.7	100	-1.7	NA	NA	983.6	NA	NA		M	NA	NA	NA	NA
2019/11/11 22:52:00	AWS3	6.29	259	8.80	262	-1.7	100	-1.7	NA	NA	983.6	NA	NA		M	NA	NA	NA	NA
2019/11/11 22:53:01	AWS3	5.55	259	8.75	254	-1.7	100	-1.7	NA	NA	983.5	NA	NA		M	NA	NA	NA	NA
2019/11/11 22:54:01	AWS3	5.40	260	8.75	254	-1.7	100	-1.7	NA	NA	983.7	NA	NA		M	NA	NA	NA	NA
2019/11/11 22:55:01	AWS3	5.43	260	8.75	254	-1.7	100	-1.7	NA	NA	983.7	NA	NA		M	NA	NA	NA	NA
2019/11/11 22:56:01	AWS3	5.95	262	8.49	257	-1.7	100	-1.7	NA	NA	983.6	NA	NA		M	NA	NA	NA	NA
2019/11/11 22:57:01	AWS3	6.25	261	8.49	257	-1.7	100	-1.7	NA	NA	983.7	NA	NA		M	NA	NA	NA	NA
2019/11/11 22:58:01	AWS3	5.74	259	8.49	257	-1.7	100	-1.7	NA	NA	983.6	NA	NA		M	NA	NA	NA	NA
2019/11/11 22:59:01	AWS3	5.66	261	8.49	257	-1.7	100	-1.7	NA	NA	983.6	NA	NA		M	NA	NA	NA	NA
2019/11/11 23:00:01	AWS3	5.72	259	8.49	257	-1.7	100	-1.7	NA	NA	983.8	NA	NA		M	NA	NA	NA	NA
2019/11/11 23:01:00	AWS3	5.50	257	7.97	263	-1.7	100	-1.7	NA	NA	983.7	NA	NA		M	NA	NA	NA	NA
2019/11/11 23:02:01	AWS3	5.68	255	7.97	263	-1.7	100	-1.7	NA	NA	983.6	NA	NA		M	NA	NA	NA	NA
2019/11/11 23:03:01	AWS3	5.51	255	7.97	263	-1.7	100	-1.7	NA	NA	983.6	NA	NA		M	NA	NA	NA	NA
2019/11/11 23:04:00	AWS3	5.42	257	7.97	263	-1.7	100	-1.7	NA	NA	983.8	NA	NA		M	NA	NA	NA	NA
2019/11/11 23:05:01	AWS3	5.44	258	7.97	263	-1.7	100	-1.7	NA	NA	983.8	NA	NA		M	NA	NA	NA	NA
2019/11/11 23:06:01	AWS3	5.07	256	7.61	256	-1.7	100	-1.7	NA	NA	983.7	NA	NA		M	NA	NA	NA	NA
2019/11/11 23:07:01	AWS3	4.87	257	7.61	256	-1.7	100	-1.7	NA	NA	983.6	NA	NA		M	NA	NA	NA	NA
2019/11/11 23:08:01	AWS3	5.04	259	7.61	256	-1.7	100	-1.7	NA	NA	983.8	NA	NA		M	NA	NA	NA	NA
2019/11/11 23:09:01	AWS3	5.27	259	7.61	256	-1.7	100	-1.7	NA	NA	983.9	NA	NA		M	NA	NA	NA	NA
2019/11/11 23:10:01	AWS3	4.95	253	7.61	256	-1.7	100	-1.7	NA	NA	983.8	NA	NA		M	NA	NA	NA	NA
2019/11/11 23:11:01	AWS3	4.94	255	7.61	256	-1.7	100	-1.7	NA	NA	983.7	NA	NA		M	NA	NA	NA	NA
2019/11/11 23:12:01	AWS3	5.25	261	7.61	268	-1.7	100	-1.7	NA	NA	983.8	NA	NA		M	NA	NA	NA	NA
2019/11/11 23:13:01	AWS3	5.23	257	7.61	268	-1.7	100	-1.7	NA	NA	983.8	NA	NA		M	NA	NA	NA	NA
2019/11/11 23:14:01	AWS3	5.23	256	7.61	268	-1.7	100	-1.7	NA	NA	983.8	NA	NA		M	NA	NA	NA	NA
2019/11/11 23:15:01	AWS3	5.15	255	7.61	268	-1.7	100	-1.7	NA	NA	983.9	NA	NA		M	NA	NA	NA	NA
2019/11/11 23:16:00	AWS3	5.46	257	7.61	268	-1.7	100	-1.7	NA	NA	983.9	NA	NA		M	NA	NA	NA	NA
2019/11/11 23:17:01	AWS3	5.79	259	7.61	268	-1.8	100	-1.8	NA	NA	984.0	NA	NA		M	NA	NA	NA	NA
2019/11/11 23:18:01	AWS3	4.96	257	7.61	268	-1.8	100	-1.8	NA	NA	983.9	NA	NA		M	NA	NA	NA	NA
2019/11/11 23:19:00	AWS3	4.47	251	7.61	268	-1.8	100	-1.8	NA	NA	984.0	NA	NA		M	NA	NA	NA	NA
2019/11/11 23:20:01	AWS3	5.07	251	7.61	268	-1.8	100	-1.8	NA	NA	983.9	NA	NA		M	NA	NA	NA	NA
2019/11/11 23:21:01	AWS3	5.05	256	7.61	268	-1.8	100	-1.8	NA	NA	984.0	NA	NA		M	NA	NA	NA	NA
2019/11/11 23:22:00	AWS3	4.38	258	7.36	259	-1.8	100	-1.8	NA	NA	983.9	NA	NA		M	NA	NA	NA	NA
2019/11/11 23:23:01	AWS3	4.23	259	7.36	259	-1.8	100	-1.8	NA	NA	984.1	NA	NA		M	NA	NA	NA	NA
2019/11/11 23:24:00	AWS3	5.08	260	7.36	259	-1.8	100	-1.8	NA	NA	984.0	NA	NA		M	NA	NA	NA	NA
2019/11/11 23:25:01	AWS3	5.48	256	7.36	259	-1.8	100	-1.8	NA	NA	984.2	NA	NA		M	NA	NA	NA	NA
2019/11/11 23:26:01	AWS3	4.83	254	7.15	264	-1.8	100	-1.8	NA	NA	984.1	NA	NA		M	NA	NA	NA	NA
2019/11/11 23:27:01	AWS3	5.00	254	6.94	272	-1.8	100	-1.8	NA	NA	984.0	NA	NA		M	NA	NA	NA	NA
2019/11/11 23:28:01	AWS3	5.11	254	6.94	272	-1.8	100	-1.8	NA	NA	984.2	NA	NA		M	NA	NA	NA	NA
2019/11/11 23:29:01	AWS3	4.80	254	6.94	272	-1.8	100	-1.8	NA	NA	984.2	NA	NA		M	NA	NA	NA	NA
2019/11/11 23:30:00	AWS3	4.48	253	6.94	272	-1.8	100	-1.8	NA	NA	984.0	NA	NA		M	NA	NA	NA	NA
2019/11/11 23:31:02	AWS3	4.68	254	7.25	250	-1.8	100	-1.8	NA	NA	984.1	NA	NA		M	NA	NA	NA	NA
2019/11/11 23:32:01	AWS3	4.74	248	7.25	250	-1.8	100	-1.8	NA	NA	984.1	NA	NA		M	NA	NA	NA	NA
2019/11/11 23:33:01	AWS3	4.50	247	7.25	250	-1.8	100	-1.8	NA	NA	984.2	NA	NA		M	NA	NA	NA	NA
2019/11/11 23:34:00	AWS3	4.41	250	7.25	250	-1.8	100	-1.8	NA	NA	984.0	NA	NA		M	NA	NA	NA	NA
2019/11/11 23:35:00	AWS3	4.14	248	7.25	250	-1.8	100	-1.8	NA	NA	984.3	NA	NA		M	NA	NA	NA	NA
2019/11/11 23:36:01	AWS3	4.24	251	7.25	250	-1.8	100	-1.8	NA	NA	984.3	NA	NA		M	NA	NA	NA	NA
2019/11/11 23:37:01	AWS3	4.05	250	7.25	250	-1.9	100	-1.9	NA	NA	984.2	NA	NA		M	NA	NA	NA	NA
2019/11/11 23:38:01	AWS3	4.03	240	7.25	250	-1.9	100	-1.9	NA	NA	984.1	NA	NA		M	NA	NA	NA	NA
2019/11/11 23:39:01	AWS3	4.05	237	7.25	250	-1.9	100	-1.9	NA	NA	984.1	NA	NA		M	NA	NA	NA	NA
2019/11/11 23:40:01	AWS3	4.02	240	7.25	250	-1.9	100	-1.9	NA	NA	984.4	NA	NA		M	NA	NA	NA	NA
2019/11/11 23:41:01	AWS3	4.39	246	6.38	251	-1.9	100	-1.9	NA	NA	984.1	NA	NA		M	NA	NA	NA	NA
2019/11/11 23:42:01	AWS3	4.50	250	6.07	247	-1.9	100	-1.9	NA	NA	984.1	NA	NA		M	NA	NA	NA	NA
2019/11/11 23:43:01	AWS3	4.39	248	7.15	249	-1.9	100	-1.9	NA	NA	984.2	NA	NA		M	NA	NA	NA	NA
2019/11/11 23:44:01	AWS3	4.50	250	7.15	249	-1.9	100	-1.9	NA	NA	984.1	NA	NA		M	NA	NA	NA	NA
2019/11/11 23:45:01	AWS3	4.29	253	7.15	249	-1.9	100	-1.9	NA	NA	984.1	NA	NA		M	NA	NA	NA	NA
2019/11/11 23:46:01	AWS3	3.85	251	7.15	249	-1.9	100	-1.9	NA	NA	984.2	NA	NA		M	NA	NA	NA	NA
2019/11/11 23:47:01	AWS3	4.32	251	7.15	249	-1.9	100	-1.9	NA	NA	984.3	NA	NA		M	NA	NA	NA	NA
2019/11/11 23:48:01	AWS3	5.02	254	7.15	249	-1.9	100	-1.9	NA	NA	984.2	NA	NA		M	NA	NA	NA	NA
2019/11/11 23:49:01	AWS3	4.93	256	7.15	249	-1.9	100	-1.9	NA	NA	984.1	NA	NA		M	NA	NA	NA	NA
2019/11/11 23:50:00	AWS3	4.53	252	7.15	249	-1.9	100	-1.9	NA	NA	984.3	NA	NA		M	NA	NA	NA	NA
2019/11/11 23:51:00	AWS3	4.66	253	7.15	249	-1.9	100	-1.9	NA	NA	984.3	NA	NA		M	NA	NA	NA	NA
2019/11/11 23:52:01	AWS3	5.01	256	7.15	249	-1.9	100	-1.9	NA	NA	984.3	NA	NA		M	NA	NA	NA	NA
2019/11/11 23:53:00	AWS3	5.03	252	6.48	260	-1.9	100	-1.9	NA	NA	984.3	NA	NA		M	NA	NA	NA	NA
2019/11/11 23:54:00	AWS3	4.52	250	6.48	260	-2.0	100	-2.0	NA	NA	984.4	NA	NA		M	NA	NA	NA	NA
2019/11/11 23:55:01	AWS3	4.32	254	6.48	260	-2.0	100	-2.0	NA	NA	984.3	NA	NA		M	NA	NA	NA	NA
2019/11/11 23:56:00	AWS3	5.21	260	6.58	270	-2.0	100	-2.0	NA	NA	984.3	NA	NA		M	NA	NA	NA	NA
2019/11/11 23:57:01	AWS3	5.54	261	7.05	269	-2.0	100	-2.0	NA	NA	984.3	NA	NA		M	NA	NA	NA	NA
2019/11/11 23:58:01	AWS3	5.56	260	7.46	264	-2.0	100	-2.0	NA	NA	984.4	NA	NA		M	NA	NA	NA	NA
2019/11/11 23:59:01	AWS3	5.56	261	7.46	264	-2.0	100	-2.0	NA	NA	984.4	NA	NA		M	NA	NA	NA	NA